<?xml version='1.0' encoding='UTF-8'?><gpx version="1.1" creator="JPX - https://github.com/jenetics/jpx" xmlns="http://www.topografix.com/GPX/1/1"><trk><trkseg><trkpt lat="42.0899454" lon="11.7928295"><ele>7.999999999999999</ele><time>2026-04-18T06:17:57.706Z</time></trkpt><trkpt lat="42.0900042" lon="11.7928638"><ele>8.0</ele><time>2026-04-18T06:18:10.722Z</time></trkpt><trkpt lat="42.0900567" lon="11.7929167"><ele>8.0</ele><time>2026-04-18T06:18:15.725Z</time></trkpt><trkpt lat="42.0899471" lon="11.7928415"><ele>8.0</ele><time>2026-04-18T06:18:53.99Z</time></trkpt><trkpt lat="42.0900165" lon="11.792908"><ele>7.999999999999999</ele><time>2026-04-18T06:18:58.997Z</time></trkpt><trkpt lat="42.0899718" lon="11.7928148"><ele>8.0</ele><time>2026-04-18T06:19:00.994Z</time></trkpt><trkpt lat="42.0899058" lon="11.792849"><ele>7.142857142857142</ele><time>2026-04-18T06:23:52.991Z</time></trkpt><trkpt lat="42.089868" lon="11.7929204"><ele>6.285714285714285</ele><time>2026-04-18T06:23:58.957Z</time></trkpt><trkpt lat="42.0897921" lon="11.7929373"><ele>5.428571428571428</ele><time>2026-04-18T06:24:06.009Z</time></trkpt><trkpt lat="42.0897092" lon="11.7929575"><ele>4.571428571428571</ele><time>2026-04-18T06:24:09.899Z</time></trkpt><trkpt lat="42.0896338" lon="11.7929688"><ele>3.714285714285714</ele><time>2026-04-18T06:24:15.001Z</time></trkpt><trkpt lat="42.0895749" lon="11.7930264"><ele>2.8571428571428568</ele><time>2026-04-18T06:24:20.994Z</time></trkpt><trkpt lat="42.0895038" lon="11.7929962"><ele>2.0</ele><time>2026-04-18T06:26:52.011Z</time></trkpt><trkpt lat="42.0894645" lon="11.7929016"><ele>1.9999999999999998</ele><time>2026-04-18T06:29:57.004Z</time></trkpt><trkpt lat="42.0895327" lon="11.793014"><ele>2.0</ele><time>2026-04-18T06:31:32.021Z</time></trkpt><trkpt lat="42.089466" lon="11.7930043"><ele>2.0</ele><time>2026-04-18T06:31:43.025Z</time></trkpt><trkpt lat="42.089498" lon="11.7930843"><ele>2.0</ele><time>2026-04-18T06:31:54.02Z</time></trkpt><trkpt lat="42.0895091" lon="11.7931735"><ele>1.9999999999999998</ele><time>2026-04-18T06:45:06.981Z</time></trkpt><trkpt lat="42.0894506" lon="11.7931162"><ele>2.0</ele><time>2026-04-18T06:45:42.999Z</time></trkpt><trkpt lat="42.0894643" lon="11.7932221"><ele>2.0</ele><time>2026-04-18T07:06:28.968Z</time></trkpt><trkpt lat="42.0894698" lon="11.7931352"><ele>1.9999999999999998</ele><time>2026-04-18T07:06:46.049Z</time></trkpt><trkpt lat="42.0894977" lon="11.793053"><ele>2.0</ele><time>2026-04-18T07:09:22.956Z</time></trkpt><trkpt lat="42.0894839" lon="11.7931393"><ele>2.0</ele><time>2026-04-18T07:10:32.023Z</time></trkpt><trkpt lat="42.0894253" lon="11.7932352"><ele>1.9999999999999998</ele><time>2026-04-18T07:11:34.028Z</time></trkpt><trkpt lat="42.0893782" lon="11.7932953"><ele>2.0</ele><time>2026-04-18T07:11:37.017Z</time></trkpt><trkpt lat="42.089389" lon="11.7932087"><ele>2.0</ele><time>2026-04-18T07:12:13.023Z</time></trkpt><trkpt lat="42.0894182" lon="11.7931218"><ele>2.0</ele><time>2026-04-18T07:12:18.027Z</time></trkpt><trkpt lat="42.0894394" lon="11.7930201"><ele>1.9999999999999998</ele><time>2026-04-18T07:12:23.03Z</time></trkpt><trkpt lat="42.0894639" lon="11.7929383"><ele>2.0</ele><time>2026-04-18T07:12:29.041Z</time></trkpt><trkpt lat="42.0895276" lon="11.7929124"><ele>2.0</ele><time>2026-04-18T07:14:21.041Z</time></trkpt><trkpt lat="42.0895352" lon="11.7928161"><ele>1.9999999999999998</ele><time>2026-04-18T07:14:29.047Z</time></trkpt><trkpt lat="42.0895535" lon="11.7927249"><ele>2.0</ele><time>2026-04-18T07:14:35.04Z</time></trkpt><trkpt lat="42.0896017" lon="11.7926662"><ele>2.0</ele><time>2026-04-18T07:14:39.039Z</time></trkpt><trkpt lat="42.0896496" lon="11.7926036"><ele>2.0</ele><time>2026-04-18T07:14:44.041Z</time></trkpt><trkpt lat="42.0897058" lon="11.7925506"><ele>1.9999999999999998</ele><time>2026-04-18T07:14:49.042Z</time></trkpt><trkpt lat="42.0897692" lon="11.7925202"><ele>2.0</ele><time>2026-04-18T07:14:54.039Z</time></trkpt><trkpt lat="42.0897154" lon="11.792577"><ele>2.0</ele><time>2026-04-18T07:15:32.039Z</time></trkpt><trkpt lat="42.0896568" lon="11.79263"><ele>1.9999999999999998</ele><time>2026-04-18T07:15:38.032Z</time></trkpt><trkpt lat="42.0896015" lon="11.7926831"><ele>2.0</ele><time>2026-04-18T07:15:42.038Z</time></trkpt><trkpt lat="42.0895466" lon="11.792739"><ele>2.0</ele><time>2026-04-18T07:15:47.037Z</time></trkpt><trkpt lat="42.0894917" lon="11.7927811"><ele>1.9999999999999998</ele><time>2026-04-18T07:15:59.044Z</time></trkpt><trkpt lat="42.0895332" lon="11.7928475"><ele>2.0</ele><time>2026-04-18T07:19:44.037Z</time></trkpt><trkpt lat="42.0895195" lon="11.7929305"><ele>2.0</ele><time>2026-04-18T07:20:43.032Z</time></trkpt><trkpt lat="42.0894573" lon="11.7929062"><ele>2.0</ele><time>2026-04-18T07:20:59.036Z</time></trkpt><trkpt lat="42.0894323" lon="11.7930409"><ele>1.9999999999999998</ele><time>2026-04-18T07:23:10.019Z</time></trkpt><trkpt lat="42.0894082" lon="11.793151"><ele>2.0</ele><time>2026-04-18T07:23:11.004Z</time></trkpt><trkpt lat="42.0893752" lon="11.7932505"><ele>2.0</ele><time>2026-04-18T07:23:11.998Z</time></trkpt><trkpt lat="42.089335" lon="11.7933652"><ele>2.0</ele><time>2026-04-18T07:23:12.993Z</time></trkpt><trkpt lat="42.0892822" lon="11.7934739"><ele>2.0</ele><time>2026-04-18T07:23:13.989Z</time></trkpt><trkpt lat="42.0892293" lon="11.7935809"><ele>2.0</ele><time>2026-04-18T07:23:15.009Z</time></trkpt><trkpt lat="42.0891852" lon="11.7936765"><ele>2.0</ele><time>2026-04-18T07:23:15.996Z</time></trkpt><trkpt lat="42.0891329" lon="11.793793"><ele>1.8333333333333333</ele><time>2026-04-18T07:23:16.998Z</time></trkpt><trkpt lat="42.0890718" lon="11.793892"><ele>1.6666666666666665</ele><time>2026-04-18T07:23:18.002Z</time></trkpt><trkpt lat="42.0890099" lon="11.7939859"><ele>1.5</ele><time>2026-04-18T07:23:19.003Z</time></trkpt><trkpt lat="42.0889571" lon="11.7940812"><ele>1.3333333333333333</ele><time>2026-04-18T07:23:20.012Z</time></trkpt><trkpt lat="42.0889198" lon="11.7941721"><ele>1.1666666666666665</ele><time>2026-04-18T07:23:21.015Z</time></trkpt><trkpt lat="42.0888892" lon="11.7942583"><ele>1.0</ele><time>2026-04-18T07:23:22.016Z</time></trkpt><trkpt lat="42.0888511" lon="11.7943486"><ele>0.9999999999999999</ele><time>2026-04-18T07:23:23.015Z</time></trkpt><trkpt lat="42.0888043" lon="11.7944477"><ele>1.0</ele><time>2026-04-18T07:23:24.011Z</time></trkpt><trkpt lat="42.0887579" lon="11.7945547"><ele>1.0</ele><time>2026-04-18T07:23:25.019Z</time></trkpt><trkpt lat="42.0887206" lon="11.7946497"><ele>1.0</ele><time>2026-04-18T07:23:26.017Z</time></trkpt><trkpt lat="42.0886833" lon="11.7947295"><ele>0.9999999999999999</ele><time>2026-04-18T07:23:27.01Z</time></trkpt><trkpt lat="42.0886474" lon="11.7948105"><ele>1.0</ele><time>2026-04-18T07:23:28.009Z</time></trkpt><trkpt lat="42.0886201" lon="11.7948915"><ele>0.9999999999999999</ele><time>2026-04-18T07:23:29.015Z</time></trkpt><trkpt lat="42.0885869" lon="11.7949817"><ele>1.0</ele><time>2026-04-18T07:23:30.03Z</time></trkpt><trkpt lat="42.0885509" lon="11.7950537"><ele>1.0</ele><time>2026-04-18T07:23:31.017Z</time></trkpt><trkpt lat="42.0884853" lon="11.7951785"><ele>1.0</ele><time>2026-04-18T07:23:33.012Z</time></trkpt><trkpt lat="42.0884359" lon="11.7952889"><ele>0.9999999999999999</ele><time>2026-04-18T07:23:35.023Z</time></trkpt><trkpt lat="42.088422" lon="11.7954216"><ele>1.0</ele><time>2026-04-18T07:23:37.012Z</time></trkpt><trkpt lat="42.0884069" lon="11.7955727"><ele>1.1428571428571428</ele><time>2026-04-18T07:23:39.015Z</time></trkpt><trkpt lat="42.0883868" lon="11.7956555"><ele>1.2857142857142856</ele><time>2026-04-18T07:23:40.017Z</time></trkpt><trkpt lat="42.0883592" lon="11.7957329"><ele>1.4285714285714284</ele><time>2026-04-18T07:23:41.013Z</time></trkpt><trkpt lat="42.088338" lon="11.7958172"><ele>1.5714285714285714</ele><time>2026-04-18T07:23:42.013Z</time></trkpt><trkpt lat="42.0882985" lon="11.795971"><ele>1.714285714285714</ele><time>2026-04-18T07:23:44.011Z</time></trkpt><trkpt lat="42.0882749" lon="11.7960524"><ele>1.857142857142857</ele><time>2026-04-18T07:23:45.017Z</time></trkpt><trkpt lat="42.0882446" lon="11.7961337"><ele>2.0</ele><time>2026-04-18T07:23:46.008Z</time></trkpt><trkpt lat="42.0881799" lon="11.7962697"><ele>1.9999999999999998</ele><time>2026-04-18T07:23:48.008Z</time></trkpt><trkpt lat="42.088161" lon="11.7963712"><ele>2.0</ele><time>2026-04-18T07:23:49.999Z</time></trkpt><trkpt lat="42.0881549" lon="11.7964636"><ele>2.0</ele><time>2026-04-18T07:23:52.02Z</time></trkpt><trkpt lat="42.0881112" lon="11.7965462"><ele>2.0</ele><time>2026-04-18T07:23:54.014Z</time></trkpt><trkpt lat="42.0880928" lon="11.7966367"><ele>1.9999999999999998</ele><time>2026-04-18T07:23:56.028Z</time></trkpt><trkpt lat="42.0880766" lon="11.7967536"><ele>2.0</ele><time>2026-04-18T07:23:59.029Z</time></trkpt><trkpt lat="42.0880888" lon="11.7968696"><ele>2.833333333333333</ele><time>2026-04-18T07:24:02.03Z</time></trkpt><trkpt lat="42.0880947" lon="11.79698"><ele>3.666666666666667</ele><time>2026-04-18T07:24:05.044Z</time></trkpt><trkpt lat="42.0880929" lon="11.7971184"><ele>4.5</ele><time>2026-04-18T07:24:08.027Z</time></trkpt><trkpt lat="42.0880219" lon="11.7972471"><ele>5.333333333333334</ele><time>2026-04-18T07:24:10.014Z</time></trkpt><trkpt lat="42.0879913" lon="11.7973271"><ele>6.166666666666667</ele><time>2026-04-18T07:24:11.014Z</time></trkpt><trkpt lat="42.0879559" lon="11.7974165"><ele>7.0</ele><time>2026-04-18T07:24:12.015Z</time></trkpt><trkpt lat="42.0879021" lon="11.7975015"><ele>7.0</ele><time>2026-04-18T07:24:13.015Z</time></trkpt><trkpt lat="42.0878517" lon="11.7975958"><ele>6.999999999999999</ele><time>2026-04-18T07:24:14.008Z</time></trkpt><trkpt lat="42.0877996" lon="11.7977102"><ele>6.999999999999999</ele><time>2026-04-18T07:24:15.021Z</time></trkpt><trkpt lat="42.0877331" lon="11.7978282"><ele>7.0</ele><time>2026-04-18T07:24:16.011Z</time></trkpt><trkpt lat="42.0876803" lon="11.7979611"><ele>7.0</ele><time>2026-04-18T07:24:17.012Z</time></trkpt><trkpt lat="42.0876255" lon="11.798086"><ele>6.5</ele><time>2026-04-18T07:24:18Z</time></trkpt><trkpt lat="42.0875653" lon="11.7982193"><ele>6.0</ele><time>2026-04-18T07:24:18.998Z</time></trkpt><trkpt lat="42.0875039" lon="11.7983519"><ele>5.5</ele><time>2026-04-18T07:24:20.003Z</time></trkpt><trkpt lat="42.0874376" lon="11.7984891"><ele>5.0</ele><time>2026-04-18T07:24:21.001Z</time></trkpt><trkpt lat="42.0873645" lon="11.7986222"><ele>5.0</ele><time>2026-04-18T07:24:22.004Z</time></trkpt><trkpt lat="42.0873017" lon="11.798766"><ele>5.0</ele><time>2026-04-18T07:24:23.006Z</time></trkpt><trkpt lat="42.0872349" lon="11.7989043"><ele>5.0</ele><time>2026-04-18T07:24:24.006Z</time></trkpt><trkpt lat="42.0871692" lon="11.7990493"><ele>5.0</ele><time>2026-04-18T07:24:25.007Z</time></trkpt><trkpt lat="42.0870998" lon="11.7991934"><ele>5.5</ele><time>2026-04-18T07:24:26.011Z</time></trkpt><trkpt lat="42.087039" lon="11.7993442"><ele>6.0</ele><time>2026-04-18T07:24:27.027Z</time></trkpt><trkpt lat="42.0869649" lon="11.7994925"><ele>6.5</ele><time>2026-04-18T07:24:28.008Z</time></trkpt><trkpt lat="42.0868922" lon="11.7996569"><ele>7.0</ele><time>2026-04-18T07:24:29.011Z</time></trkpt><trkpt lat="42.0868139" lon="11.7997963"><ele>7.0</ele><time>2026-04-18T07:24:30.008Z</time></trkpt><trkpt lat="42.0867373" lon="11.7999732"><ele>7.0</ele><time>2026-04-18T07:24:31.008Z</time></trkpt><trkpt lat="42.086664" lon="11.8001361"><ele>7.0</ele><time>2026-04-18T07:24:31.999Z</time></trkpt><trkpt lat="42.0866061" lon="11.8002136"><ele>7.0</ele><time>2026-04-18T07:24:32.996Z</time></trkpt><trkpt lat="42.0865946" lon="11.8003175"><ele>7.000000000000001</ele><time>2026-04-18T07:24:33.994Z</time></trkpt><trkpt lat="42.086528" lon="11.8004014"><ele>7.0</ele><time>2026-04-18T07:24:34.994Z</time></trkpt><trkpt lat="42.0864794" lon="11.8004882"><ele>7.0</ele><time>2026-04-18T07:24:35.996Z</time></trkpt><trkpt lat="42.0864409" lon="11.8005908"><ele>7.0</ele><time>2026-04-18T07:24:37.011Z</time></trkpt><trkpt lat="42.0864013" lon="11.8007058"><ele>7.000000000000001</ele><time>2026-04-18T07:24:38.014Z</time></trkpt><trkpt lat="42.086351" lon="11.8008139"><ele>7.0</ele><time>2026-04-18T07:24:39.013Z</time></trkpt><trkpt lat="42.0863028" lon="11.8009172"><ele>7.833333333333334</ele><time>2026-04-18T07:24:40.012Z</time></trkpt><trkpt lat="42.0862576" lon="11.8010005"><ele>8.666666666666668</ele><time>2026-04-18T07:24:41.014Z</time></trkpt><trkpt lat="42.0862214" lon="11.8010937"><ele>9.5</ele><time>2026-04-18T07:24:42.011Z</time></trkpt><trkpt lat="42.0861711" lon="11.8011837"><ele>10.333333333333334</ele><time>2026-04-18T07:24:44.001Z</time></trkpt><trkpt lat="42.0862144" lon="11.8012565"><ele>11.166666666666666</ele><time>2026-04-18T07:24:56.011Z</time></trkpt><trkpt lat="42.0862759" lon="11.8011902"><ele>12.0</ele><time>2026-04-18T07:27:44.012Z</time></trkpt><trkpt lat="42.086301" lon="11.8011028"><ele>11.0</ele><time>2026-04-18T07:27:47.015Z</time></trkpt><trkpt lat="42.0863164" lon="11.800993"><ele>10.0</ele><time>2026-04-18T07:27:50.006Z</time></trkpt><trkpt lat="42.0863483" lon="11.8009183"><ele>9.0</ele><time>2026-04-18T07:27:51.002Z</time></trkpt><trkpt lat="42.0863999" lon="11.8008154"><ele>8.0</ele><time>2026-04-18T07:27:52.003Z</time></trkpt><trkpt lat="42.086474" lon="11.8006873"><ele>7.0</ele><time>2026-04-18T07:27:52.995Z</time></trkpt><trkpt lat="42.0865436" lon="11.8005396"><ele>7.0</ele><time>2026-04-18T07:27:54.003Z</time></trkpt><trkpt lat="42.0866201" lon="11.8003795"><ele>7.0</ele><time>2026-04-18T07:27:54.999Z</time></trkpt><trkpt lat="42.0867036" lon="11.8002263"><ele>7.0</ele><time>2026-04-18T07:27:55.995Z</time></trkpt><trkpt lat="42.0867782" lon="11.8000743"><ele>7.0</ele><time>2026-04-18T07:27:56.996Z</time></trkpt><trkpt lat="42.0868477" lon="11.7999163"><ele>7.0</ele><time>2026-04-18T07:27:57.996Z</time></trkpt><trkpt lat="42.0869281" lon="11.7997648"><ele>7.0</ele><time>2026-04-18T07:27:59.013Z</time></trkpt><trkpt lat="42.0870109" lon="11.7996107"><ele>7.0</ele><time>2026-04-18T07:27:59.999Z</time></trkpt><trkpt lat="42.0870962" lon="11.7994574"><ele>7.0</ele><time>2026-04-18T07:28:01Z</time></trkpt><trkpt lat="42.0871754" lon="11.799304"><ele>6.5</ele><time>2026-04-18T07:28:02.003Z</time></trkpt><trkpt lat="42.0872517" lon="11.7991529"><ele>6.0</ele><time>2026-04-18T07:28:03.006Z</time></trkpt><trkpt lat="42.0873262" lon="11.7989988"><ele>5.5</ele><time>2026-04-18T07:28:04.018Z</time></trkpt><trkpt lat="42.0873759" lon="11.7988596"><ele>5.0</ele><time>2026-04-18T07:28:05.004Z</time></trkpt><trkpt lat="42.0874598" lon="11.798665"><ele>6.25</ele><time>2026-04-18T07:28:06.003Z</time></trkpt><trkpt lat="42.0875057" lon="11.7984682"><ele>7.5</ele><time>2026-04-18T07:28:07.004Z</time></trkpt><trkpt lat="42.0875952" lon="11.7983088"><ele>8.75</ele><time>2026-04-18T07:28:08.005Z</time></trkpt><trkpt lat="42.0876705" lon="11.798142"><ele>10.0</ele><time>2026-04-18T07:28:09.003Z</time></trkpt><trkpt lat="42.0877609" lon="11.7979889"><ele>10.0</ele><time>2026-04-18T07:28:09.998Z</time></trkpt><trkpt lat="42.0878382" lon="11.7978923"><ele>10.0</ele><time>2026-04-18T07:28:11.009Z</time></trkpt><trkpt lat="42.0878975" lon="11.797776"><ele>10.0</ele><time>2026-04-18T07:28:12.013Z</time></trkpt><trkpt lat="42.0879457" lon="11.7976626"><ele>10.0</ele><time>2026-04-18T07:28:13.011Z</time></trkpt><trkpt lat="42.0879804" lon="11.7975376"><ele>10.0</ele><time>2026-04-18T07:28:14.01Z</time></trkpt><trkpt lat="42.0880303" lon="11.797401"><ele>9.5</ele><time>2026-04-18T07:28:15.015Z</time></trkpt><trkpt lat="42.0880817" lon="11.7972857"><ele>9.0</ele><time>2026-04-18T07:28:16.014Z</time></trkpt><trkpt lat="42.0881226" lon="11.797197"><ele>8.5</ele><time>2026-04-18T07:28:17.014Z</time></trkpt><trkpt lat="42.0881552" lon="11.7971189"><ele>8.0</ele><time>2026-04-18T07:28:18.016Z</time></trkpt><trkpt lat="42.0881892" lon="11.79704"><ele>7.500000000000001</ele><time>2026-04-18T07:28:19.025Z</time></trkpt><trkpt lat="42.088226" lon="11.7969592"><ele>7.0</ele><time>2026-04-18T07:28:20.025Z</time></trkpt><trkpt lat="42.0882652" lon="11.7968841"><ele>6.6</ele><time>2026-04-18T07:28:21.02Z</time></trkpt><trkpt lat="42.0882918" lon="11.7967452"><ele>6.199999999999999</ele><time>2026-04-18T07:28:23.016Z</time></trkpt><trkpt lat="42.0882039" lon="11.796685"><ele>5.8</ele><time>2026-04-18T07:28:25.026Z</time></trkpt><trkpt lat="42.0880994" lon="11.7966743"><ele>5.4</ele><time>2026-04-18T07:28:27.018Z</time></trkpt><trkpt lat="42.088133" lon="11.7965588"><ele>5.0</ele><time>2026-04-18T07:28:31.036Z</time></trkpt><trkpt lat="42.0881722" lon="11.7964916"><ele>5.0</ele><time>2026-04-18T07:28:32.031Z</time></trkpt><trkpt lat="42.0882068" lon="11.7963988"><ele>5.0</ele><time>2026-04-18T07:28:33.022Z</time></trkpt><trkpt lat="42.088255" lon="11.7963015"><ele>5.0</ele><time>2026-04-18T07:28:34.023Z</time></trkpt><trkpt lat="42.0883077" lon="11.7961765"><ele>5.0</ele><time>2026-04-18T07:28:35.036Z</time></trkpt><trkpt lat="42.0883526" lon="11.7960567"><ele>5.0</ele><time>2026-04-18T07:28:36.019Z</time></trkpt><trkpt lat="42.0884019" lon="11.7959385"><ele>4.666666666666667</ele><time>2026-04-18T07:28:37.024Z</time></trkpt><trkpt lat="42.0884361" lon="11.7958085"><ele>4.333333333333334</ele><time>2026-04-18T07:28:38.023Z</time></trkpt><trkpt lat="42.0884631" lon="11.7956836"><ele>4.0</ele><time>2026-04-18T07:28:39.025Z</time></trkpt><trkpt lat="42.0884806" lon="11.7955633"><ele>3.666666666666667</ele><time>2026-04-18T07:28:40.027Z</time></trkpt><trkpt lat="42.0885017" lon="11.7954551"><ele>3.3333333333333335</ele><time>2026-04-18T07:28:41.024Z</time></trkpt><trkpt lat="42.0885195" lon="11.7953602"><ele>3.0</ele><time>2026-04-18T07:28:42.026Z</time></trkpt><trkpt lat="42.0885363" lon="11.7952703"><ele>3.0</ele><time>2026-04-18T07:28:43.024Z</time></trkpt><trkpt lat="42.08855" lon="11.7951768"><ele>3.0</ele><time>2026-04-18T07:28:44.026Z</time></trkpt><trkpt lat="42.0886108" lon="11.7950405"><ele>3.0</ele><time>2026-04-18T07:28:46.029Z</time></trkpt><trkpt lat="42.0886497" lon="11.7949585"><ele>3.0</ele><time>2026-04-18T07:28:47.033Z</time></trkpt><trkpt lat="42.0886941" lon="11.7948796"><ele>3.0</ele><time>2026-04-18T07:28:48.035Z</time></trkpt><trkpt lat="42.0887435" lon="11.7948169"><ele>3.0</ele><time>2026-04-18T07:28:49.032Z</time></trkpt><trkpt lat="42.0887795" lon="11.7947414"><ele>2.714285714285714</ele><time>2026-04-18T07:28:50.029Z</time></trkpt><trkpt lat="42.0888079" lon="11.7946563"><ele>2.4285714285714284</ele><time>2026-04-18T07:28:51.024Z</time></trkpt><trkpt lat="42.0888385" lon="11.7945636"><ele>2.142857142857143</ele><time>2026-04-18T07:28:52.027Z</time></trkpt><trkpt lat="42.0888724" lon="11.7944713"><ele>1.857142857142857</ele><time>2026-04-18T07:28:53.023Z</time></trkpt><trkpt lat="42.0889041" lon="11.7943886"><ele>1.5714285714285712</ele><time>2026-04-18T07:28:54.02Z</time></trkpt><trkpt lat="42.088938" lon="11.7943053"><ele>1.2857142857142856</ele><time>2026-04-18T07:28:55.03Z</time></trkpt><trkpt lat="42.0889759" lon="11.7942244"><ele>1.0</ele><time>2026-04-18T07:28:56.023Z</time></trkpt><trkpt lat="42.0890123" lon="11.7941529"><ele>0.8571428571428571</ele><time>2026-04-18T07:28:57.026Z</time></trkpt><trkpt lat="42.0890501" lon="11.794085"><ele>0.7142857142857142</ele><time>2026-04-18T07:28:58.025Z</time></trkpt><trkpt lat="42.0890789" lon="11.7940043"><ele>0.5714285714285714</ele><time>2026-04-18T07:28:59.026Z</time></trkpt><trkpt lat="42.0891037" lon="11.793923"><ele>0.42857142857142855</ele><time>2026-04-18T07:29:00.022Z</time></trkpt><trkpt lat="42.0891406" lon="11.7938511"><ele>0.2857142857142857</ele><time>2026-04-18T07:29:01.02Z</time></trkpt><trkpt lat="42.0891745" lon="11.7937766"><ele>0.14285714285714285</ele><time>2026-04-18T07:29:02.019Z</time></trkpt><trkpt lat="42.0892095" lon="11.7936972"><ele>0.0</ele><time>2026-04-18T07:29:03.02Z</time></trkpt><trkpt lat="42.0892464" lon="11.7936159"><ele>0.2857142857142857</ele><time>2026-04-18T07:29:04.017Z</time></trkpt><trkpt lat="42.0892852" lon="11.7935429"><ele>0.5714285714285714</ele><time>2026-04-18T07:29:05.015Z</time></trkpt><trkpt lat="42.0893242" lon="11.7934672"><ele>0.8571428571428571</ele><time>2026-04-18T07:29:06.029Z</time></trkpt><trkpt lat="42.0893796" lon="11.7933555"><ele>1.1428571428571428</ele><time>2026-04-18T07:29:08.022Z</time></trkpt><trkpt lat="42.0893924" lon="11.7932508"><ele>1.4285714285714284</ele><time>2026-04-18T07:29:10.034Z</time></trkpt><trkpt lat="42.0893941" lon="11.793155"><ele>1.7142857142857142</ele><time>2026-04-18T07:29:12.032Z</time></trkpt><trkpt lat="42.089416" lon="11.793073"><ele>2.0</ele><time>2026-04-18T07:29:14.03Z</time></trkpt><trkpt lat="42.0894844" lon="11.793047"><ele>1.9999999999999998</ele><time>2026-04-18T07:29:19.036Z</time></trkpt><trkpt lat="42.0894637" lon="11.7931311"><ele>2.0</ele><time>2026-04-18T08:32:39.003Z</time></trkpt><trkpt lat="42.0893865" lon="11.7930812"><ele>2.0</ele><time>2026-04-18T08:32:42.007Z</time></trkpt><trkpt lat="42.0894109" lon="11.792977"><ele>2.0</ele><time>2026-04-18T08:32:44.01Z</time></trkpt><trkpt lat="42.0894891" lon="11.7929218"><ele>1.9999999999999998</ele><time>2026-04-18T08:32:47.01Z</time></trkpt><trkpt lat="42.089555" lon="11.7929136"><ele>2.0</ele><time>2026-04-18T08:35:20.01Z</time></trkpt><trkpt lat="42.0895685" lon="11.7930313"><ele>1.9999999999999998</ele><time>2026-04-18T08:36:46.004Z</time></trkpt><trkpt lat="42.0895185" lon="11.7931471"><ele>2.0</ele><time>2026-04-18T08:36:48.007Z</time></trkpt><trkpt lat="42.0894691" lon="11.793226"><ele>2.0</ele><time>2026-04-18T08:36:49.007Z</time></trkpt><trkpt lat="42.0894188" lon="11.7933224"><ele>2.0</ele><time>2026-04-18T08:36:50.005Z</time></trkpt><trkpt lat="42.0893676" lon="11.7934123"><ele>1.9999999999999998</ele><time>2026-04-18T08:36:51.006Z</time></trkpt><trkpt lat="42.0893233" lon="11.7934869"><ele>2.0</ele><time>2026-04-18T08:36:52.021Z</time></trkpt><trkpt lat="42.0892869" lon="11.7935749"><ele>2.142857142857143</ele><time>2026-04-18T08:36:53.004Z</time></trkpt><trkpt lat="42.0892444" lon="11.7936748"><ele>2.2857142857142856</ele><time>2026-04-18T08:36:54.005Z</time></trkpt><trkpt lat="42.0891925" lon="11.7937756"><ele>2.4285714285714284</ele><time>2026-04-18T08:36:55.004Z</time></trkpt><trkpt lat="42.0891541" lon="11.7938525"><ele>2.571428571428571</ele><time>2026-04-18T08:36:56.006Z</time></trkpt><trkpt lat="42.0891134" lon="11.7939284"><ele>2.7142857142857144</ele><time>2026-04-18T08:36:57.012Z</time></trkpt><trkpt lat="42.0890726" lon="11.7940011"><ele>2.8571428571428568</ele><time>2026-04-18T08:36:58.01Z</time></trkpt><trkpt lat="42.0890343" lon="11.7940726"><ele>3.0</ele><time>2026-04-18T08:36:59.013Z</time></trkpt><trkpt lat="42.0889996" lon="11.7941444"><ele>2.6</ele><time>2026-04-18T08:37:00.014Z</time></trkpt><trkpt lat="42.0889379" lon="11.7942895"><ele>2.1999999999999997</ele><time>2026-04-18T08:37:02.031Z</time></trkpt><trkpt lat="42.0888963" lon="11.7943532"><ele>1.8</ele><time>2026-04-18T08:37:03.008Z</time></trkpt><trkpt lat="42.0888425" lon="11.7944785"><ele>1.4</ele><time>2026-04-18T08:37:05.014Z</time></trkpt><trkpt lat="42.0887961" lon="11.794588"><ele>1.0</ele><time>2026-04-18T08:37:07.005Z</time></trkpt><trkpt lat="42.0887555" lon="11.7946989"><ele>0.9999999999999999</ele><time>2026-04-18T08:37:09.003Z</time></trkpt><trkpt lat="42.088725" lon="11.7947805"><ele>1.0</ele><time>2026-04-18T08:37:10.003Z</time></trkpt><trkpt lat="42.0886895" lon="11.7948602"><ele>1.0</ele><time>2026-04-18T08:37:11.006Z</time></trkpt><trkpt lat="42.0886573" lon="11.7949331"><ele>1.0</ele><time>2026-04-18T08:37:12.005Z</time></trkpt><trkpt lat="42.0885987" lon="11.7950736"><ele>0.9999999999999999</ele><time>2026-04-18T08:37:14.001Z</time></trkpt><trkpt lat="42.0885367" lon="11.7951807"><ele>1.0</ele><time>2026-04-18T08:37:16.003Z</time></trkpt><trkpt lat="42.088495" lon="11.7952979"><ele>1.3333333333333333</ele><time>2026-04-18T08:37:19.008Z</time></trkpt><trkpt lat="42.0884902" lon="11.7954152"><ele>1.6666666666666665</ele><time>2026-04-18T08:37:21.016Z</time></trkpt><trkpt lat="42.0884802" lon="11.7955296"><ele>2.0</ele><time>2026-04-18T08:37:23.014Z</time></trkpt><trkpt lat="42.088473" lon="11.7956315"><ele>2.3333333333333335</ele><time>2026-04-18T08:37:26.014Z</time></trkpt><trkpt lat="42.0884606" lon="11.7957522"><ele>2.6666666666666665</ele><time>2026-04-18T08:37:29.998Z</time></trkpt><trkpt lat="42.0884415" lon="11.7958414"><ele>3.0</ele><time>2026-04-18T08:37:32.003Z</time></trkpt><trkpt lat="42.0884095" lon="11.795921"><ele>3.0</ele><time>2026-04-18T08:37:34.007Z</time></trkpt><trkpt lat="42.0883683" lon="11.7959983"><ele>3.0</ele><time>2026-04-18T08:37:36.005Z</time></trkpt><trkpt lat="42.0883422" lon="11.7961184"><ele>3.0</ele><time>2026-04-18T08:37:38.011Z</time></trkpt><trkpt lat="42.0883042" lon="11.7962397"><ele>3.0</ele><time>2026-04-18T08:37:40.018Z</time></trkpt><trkpt lat="42.0882676" lon="11.7963419"><ele>3.0</ele><time>2026-04-18T08:37:42.017Z</time></trkpt><trkpt lat="42.0882404" lon="11.7964488"><ele>3.0</ele><time>2026-04-18T08:37:44.019Z</time></trkpt><trkpt lat="42.088228" lon="11.7965359"><ele>2.8571428571428568</ele><time>2026-04-18T08:37:46.019Z</time></trkpt><trkpt lat="42.0881956" lon="11.7966116"><ele>2.7142857142857144</ele><time>2026-04-18T08:37:48.014Z</time></trkpt><trkpt lat="42.0881547" lon="11.7966985"><ele>2.571428571428571</ele><time>2026-04-18T08:37:50.017Z</time></trkpt><trkpt lat="42.0881024" lon="11.7967526"><ele>2.4285714285714284</ele><time>2026-04-18T08:37:52.013Z</time></trkpt><trkpt lat="42.0881476" lon="11.7968566"><ele>2.2857142857142856</ele><time>2026-04-18T08:37:56.015Z</time></trkpt><trkpt lat="42.0881645" lon="11.7969397"><ele>2.142857142857143</ele><time>2026-04-18T08:37:58.005Z</time></trkpt><trkpt lat="42.0882284" lon="11.7969676"><ele>2.0</ele><time>2026-04-18T08:38:40.018Z</time></trkpt><trkpt lat="42.0883252" lon="11.7968752"><ele>2.5</ele><time>2026-04-18T08:38:42.008Z</time></trkpt><trkpt lat="42.0883709" lon="11.7967821"><ele>3.0</ele><time>2026-04-18T08:38:43.012Z</time></trkpt><trkpt lat="42.0884176" lon="11.7966852"><ele>3.5</ele><time>2026-04-18T08:38:44.011Z</time></trkpt><trkpt lat="42.0884722" lon="11.7965753"><ele>4.0</ele><time>2026-04-18T08:38:45.013Z</time></trkpt><trkpt lat="42.0885217" lon="11.7964722"><ele>4.5</ele><time>2026-04-18T08:38:46.014Z</time></trkpt><trkpt lat="42.0885598" lon="11.7963888"><ele>5.0</ele><time>2026-04-18T08:38:47.002Z</time></trkpt><trkpt lat="42.0885981" lon="11.7963159"><ele>5.0</ele><time>2026-04-18T08:38:48.011Z</time></trkpt><trkpt lat="42.0886366" lon="11.7962357"><ele>5.0</ele><time>2026-04-18T08:38:49.007Z</time></trkpt><trkpt lat="42.0886684" lon="11.7961538"><ele>5.0</ele><time>2026-04-18T08:38:50.005Z</time></trkpt><trkpt lat="42.0887044" lon="11.7960711"><ele>5.0</ele><time>2026-04-18T08:38:51.005Z</time></trkpt><trkpt lat="42.0887409" lon="11.7959882"><ele>5.0</ele><time>2026-04-18T08:38:52.008Z</time></trkpt><trkpt lat="42.088781" lon="11.7959096"><ele>5.0</ele><time>2026-04-18T08:38:53.006Z</time></trkpt><trkpt lat="42.0888152" lon="11.7958351"><ele>5.0</ele><time>2026-04-18T08:38:54.007Z</time></trkpt><trkpt lat="42.0888528" lon="11.795747"><ele>4.666666666666667</ele><time>2026-04-18T08:38:55.002Z</time></trkpt><trkpt lat="42.0888919" lon="11.7956699"><ele>4.333333333333334</ele><time>2026-04-18T08:38:56.007Z</time></trkpt><trkpt lat="42.0889344" lon="11.7955854"><ele>4.0</ele><time>2026-04-18T08:38:57.008Z</time></trkpt><trkpt lat="42.0889758" lon="11.7955102"><ele>3.666666666666667</ele><time>2026-04-18T08:38:58.005Z</time></trkpt><trkpt lat="42.0890137" lon="11.7954424"><ele>3.3333333333333335</ele><time>2026-04-18T08:38:59.01Z</time></trkpt><trkpt lat="42.0890854" lon="11.7953153"><ele>3.0</ele><time>2026-04-18T08:39:01.009Z</time></trkpt><trkpt lat="42.0891407" lon="11.7952202"><ele>3.8</ele><time>2026-04-18T08:39:03.004Z</time></trkpt><trkpt lat="42.0891922" lon="11.7951195"><ele>4.6</ele><time>2026-04-18T08:39:05.008Z</time></trkpt><trkpt lat="42.0892325" lon="11.7950311"><ele>5.3999999999999995</ele><time>2026-04-18T08:39:07.015Z</time></trkpt><trkpt lat="42.0892846" lon="11.7949361"><ele>6.199999999999999</ele><time>2026-04-18T08:39:09.007Z</time></trkpt><trkpt lat="42.0893437" lon="11.7948103"><ele>7.0</ele><time>2026-04-18T08:39:11.006Z</time></trkpt><trkpt lat="42.0893908" lon="11.7947132"><ele>7.0</ele><time>2026-04-18T08:39:13.014Z</time></trkpt><trkpt lat="42.0894418" lon="11.7946473"><ele>6.999999999999999</ele><time>2026-04-18T08:39:15.016Z</time></trkpt><trkpt lat="42.0893686" lon="11.7946091"><ele>6.999999999999999</ele><time>2026-04-18T08:39:40.002Z</time></trkpt><trkpt lat="42.0893017" lon="11.7947197"><ele>7.0</ele><time>2026-04-18T08:39:41.997Z</time></trkpt><trkpt lat="42.0892146" lon="11.7948336"><ele>7.0</ele><time>2026-04-18T08:39:43.998Z</time></trkpt><trkpt lat="42.0891538" lon="11.7949028"><ele>7.000000000000001</ele><time>2026-04-18T08:39:47.01Z</time></trkpt><trkpt lat="42.0891194" lon="11.7949773"><ele>7.0</ele><time>2026-04-18T08:39:50.015Z</time></trkpt><trkpt lat="42.0890823" lon="11.7950754"><ele>7.0</ele><time>2026-04-18T08:39:52.012Z</time></trkpt><trkpt lat="42.0890298" lon="11.7952084"><ele>7.0</ele><time>2026-04-18T08:39:54.002Z</time></trkpt><trkpt lat="42.0889916" lon="11.7953062"><ele>7.000000000000001</ele><time>2026-04-18T08:39:56.004Z</time></trkpt><trkpt lat="42.0889497" lon="11.7953743"><ele>7.0</ele><time>2026-04-18T08:40:08.012Z</time></trkpt><trkpt lat="42.0888885" lon="11.7954884"><ele>6.666666666666667</ele><time>2026-04-18T08:40:11.013Z</time></trkpt><trkpt lat="42.0888113" lon="11.7956159"><ele>6.333333333333334</ele><time>2026-04-18T08:40:13.001Z</time></trkpt><trkpt lat="42.0887754" lon="11.7956883"><ele>6.0</ele><time>2026-04-18T08:40:13.998Z</time></trkpt><trkpt lat="42.0887364" lon="11.7957704"><ele>5.666666666666667</ele><time>2026-04-18T08:40:15.004Z</time></trkpt><trkpt lat="42.0886976" lon="11.7958591"><ele>5.333333333333334</ele><time>2026-04-18T08:40:16.003Z</time></trkpt><trkpt lat="42.0886515" lon="11.7959467"><ele>5.0</ele><time>2026-04-18T08:40:17.003Z</time></trkpt><trkpt lat="42.0886088" lon="11.7960192"><ele>5.0</ele><time>2026-04-18T08:40:18.009Z</time></trkpt><trkpt lat="42.0885688" lon="11.7961045"><ele>5.0</ele><time>2026-04-18T08:40:19.006Z</time></trkpt><trkpt lat="42.0885127" lon="11.7962427"><ele>5.0</ele><time>2026-04-18T08:40:21.01Z</time></trkpt><trkpt lat="42.088453" lon="11.796387"><ele>5.0</ele><time>2026-04-18T08:40:23.007Z</time></trkpt><trkpt lat="42.0884092" lon="11.7964836"><ele>5.0</ele><time>2026-04-18T08:40:24.01Z</time></trkpt><trkpt lat="42.0883779" lon="11.7965735"><ele>5.0</ele><time>2026-04-18T08:40:25.003Z</time></trkpt><trkpt lat="42.0883372" lon="11.7966691"><ele>5.0</ele><time>2026-04-18T08:40:26.001Z</time></trkpt><trkpt lat="42.0882825" lon="11.7967558"><ele>5.0</ele><time>2026-04-18T08:40:27.002Z</time></trkpt><trkpt lat="42.0882336" lon="11.7968271"><ele>5.0</ele><time>2026-04-18T08:40:27.994Z</time></trkpt><trkpt lat="42.0881449" lon="11.7968644"><ele>5.0</ele><time>2026-04-18T08:40:30.001Z</time></trkpt><trkpt lat="42.0882176" lon="11.7968743"><ele>5.0</ele><time>2026-04-18T08:42:11.001Z</time></trkpt><trkpt lat="42.0882699" lon="11.7968065"><ele>5.0</ele><time>2026-04-18T08:42:12.006Z</time></trkpt><trkpt lat="42.0883351" lon="11.7966997"><ele>5.0</ele><time>2026-04-18T08:42:13.001Z</time></trkpt><trkpt lat="42.0884065" lon="11.7965888"><ele>5.0</ele><time>2026-04-18T08:42:13.994Z</time></trkpt><trkpt lat="42.0884768" lon="11.7964828"><ele>5.0</ele><time>2026-04-18T08:42:15.001Z</time></trkpt><trkpt lat="42.0885304" lon="11.7963728"><ele>5.0</ele><time>2026-04-18T08:42:16.003Z</time></trkpt><trkpt lat="42.0885666" lon="11.7962692"><ele>5.0</ele><time>2026-04-18T08:42:17.004Z</time></trkpt><trkpt lat="42.0886056" lon="11.796187"><ele>5.0</ele><time>2026-04-18T08:42:18.005Z</time></trkpt><trkpt lat="42.0886702" lon="11.7960805"><ele>5.0</ele><time>2026-04-18T08:42:20.009Z</time></trkpt><trkpt lat="42.0887451" lon="11.7959412"><ele>5.0</ele><time>2026-04-18T08:42:22.011Z</time></trkpt><trkpt lat="42.0887905" lon="11.7958595"><ele>5.0</ele><time>2026-04-18T08:42:23.002Z</time></trkpt><trkpt lat="42.088832" lon="11.7957928"><ele>5.0</ele><time>2026-04-18T08:42:23.999Z</time></trkpt><trkpt lat="42.0888862" lon="11.79571"><ele>4.666666666666667</ele><time>2026-04-18T08:42:26.008Z</time></trkpt><trkpt lat="42.0889367" lon="11.7956308"><ele>4.333333333333334</ele><time>2026-04-18T08:42:28.015Z</time></trkpt><trkpt lat="42.0890077" lon="11.7956082"><ele>4.0</ele><time>2026-04-18T08:42:30.01Z</time></trkpt><trkpt lat="42.0891055" lon="11.7956576"><ele>3.666666666666667</ele><time>2026-04-18T08:42:32.013Z</time></trkpt><trkpt lat="42.089165" lon="11.7956906"><ele>3.3333333333333335</ele><time>2026-04-18T08:42:33.001Z</time></trkpt><trkpt lat="42.0892247" lon="11.79572"><ele>3.0</ele><time>2026-04-18T08:42:33.992Z</time></trkpt><trkpt lat="42.0892941" lon="11.7957829"><ele>4.0</ele><time>2026-04-18T08:42:35.002Z</time></trkpt><trkpt lat="42.0893639" lon="11.7958531"><ele>5.0</ele><time>2026-04-18T08:42:35.99Z</time></trkpt><trkpt lat="42.0894226" lon="11.795929"><ele>6.0</ele><time>2026-04-18T08:42:36.985Z</time></trkpt><trkpt lat="42.089492" lon="11.7959982"><ele>7.0</ele><time>2026-04-18T08:42:37.99Z</time></trkpt><trkpt lat="42.0895451" lon="11.796082"><ele>8.0</ele><time>2026-04-18T08:42:38.993Z</time></trkpt><trkpt lat="42.0895889" lon="11.7961476"><ele>9.0</ele><time>2026-04-18T08:42:39.996Z</time></trkpt><trkpt lat="42.089626" lon="11.7962492"><ele>9.0</ele><time>2026-04-18T08:42:41.997Z</time></trkpt><trkpt lat="42.0896863" lon="11.796321"><ele>9.0</ele><time>2026-04-18T08:42:46.994Z</time></trkpt><trkpt lat="42.0897291" lon="11.7962128"><ele>9.0</ele><time>2026-04-18T08:43:24.002Z</time></trkpt><trkpt lat="42.0897796" lon="11.7961279"><ele>9.0</ele><time>2026-04-18T08:43:25.009Z</time></trkpt><trkpt lat="42.0897851" lon="11.7962329"><ele>9.0</ele><time>2026-04-18T08:43:35.021Z</time></trkpt><trkpt lat="42.0897165" lon="11.7962764"><ele>9.0</ele><time>2026-04-18T08:43:48.006Z</time></trkpt><trkpt lat="42.0896243" lon="11.7963137"><ele>9.0</ele><time>2026-04-18T08:43:57.011Z</time></trkpt><trkpt lat="42.0895479" lon="11.7963354"><ele>9.0</ele><time>2026-04-18T08:43:59.01Z</time></trkpt><trkpt lat="42.0894456" lon="11.7962469"><ele>9.0</ele><time>2026-04-18T08:44:01.032Z</time></trkpt><trkpt lat="42.0893867" lon="11.7961851"><ele>9.0</ele><time>2026-04-18T08:44:02.036Z</time></trkpt><trkpt lat="42.0893322" lon="11.7961256"><ele>9.0</ele><time>2026-04-18T08:44:03.022Z</time></trkpt><trkpt lat="42.0892755" lon="11.7960784"><ele>9.0</ele><time>2026-04-18T08:44:04.023Z</time></trkpt><trkpt lat="42.0892034" lon="11.7960272"><ele>9.333333333333334</ele><time>2026-04-18T08:44:05.02Z</time></trkpt><trkpt lat="42.0891568" lon="11.7959531"><ele>9.666666666666666</ele><time>2026-04-18T08:44:06.027Z</time></trkpt><trkpt lat="42.0891119" lon="11.7958931"><ele>10.0</ele><time>2026-04-18T08:44:07.026Z</time></trkpt><trkpt lat="42.0890565" lon="11.7958511"><ele>10.333333333333332</ele><time>2026-04-18T08:44:08.048Z</time></trkpt><trkpt lat="42.0889749" lon="11.7957733"><ele>10.666666666666666</ele><time>2026-04-18T08:44:10.039Z</time></trkpt><trkpt lat="42.088912" lon="11.7957312"><ele>11.0</ele><time>2026-04-18T08:44:20.05Z</time></trkpt><trkpt lat="42.0888275" lon="11.7958088"><ele>9.8</ele><time>2026-04-18T08:44:22.041Z</time></trkpt><trkpt lat="42.0887814" lon="11.7959213"><ele>8.600000000000001</ele><time>2026-04-18T08:44:23.033Z</time></trkpt><trkpt lat="42.0887249" lon="11.7960383"><ele>7.4</ele><time>2026-04-18T08:44:24.039Z</time></trkpt><trkpt lat="42.0886657" lon="11.796178"><ele>6.2</ele><time>2026-04-18T08:44:25.041Z</time></trkpt><trkpt lat="42.0886034" lon="11.7963132"><ele>5.0</ele><time>2026-04-18T08:44:26.05Z</time></trkpt><trkpt lat="42.088547" lon="11.7964371"><ele>5.0</ele><time>2026-04-18T08:44:27.046Z</time></trkpt><trkpt lat="42.0884952" lon="11.7965455"><ele>5.0</ele><time>2026-04-18T08:44:28.042Z</time></trkpt><trkpt lat="42.0884459" lon="11.796629"><ele>5.0</ele><time>2026-04-18T08:44:29.049Z</time></trkpt><trkpt lat="42.0883901" lon="11.7967183"><ele>5.0</ele><time>2026-04-18T08:44:30.045Z</time></trkpt><trkpt lat="42.0883236" lon="11.7968233"><ele>5.0</ele><time>2026-04-18T08:44:31.054Z</time></trkpt><trkpt lat="42.088263" lon="11.7969285"><ele>5.4</ele><time>2026-04-18T08:44:32.056Z</time></trkpt><trkpt lat="42.0882085" lon="11.7970269"><ele>5.8</ele><time>2026-04-18T08:44:33.051Z</time></trkpt><trkpt lat="42.0881644" lon="11.7971209"><ele>6.199999999999999</ele><time>2026-04-18T08:44:34.05Z</time></trkpt><trkpt lat="42.0881206" lon="11.7972321"><ele>6.6</ele><time>2026-04-18T08:44:35.053Z</time></trkpt><trkpt lat="42.0880726" lon="11.7973414"><ele>7.0</ele><time>2026-04-18T08:44:36.053Z</time></trkpt><trkpt lat="42.0880261" lon="11.7974515"><ele>7.000000000000001</ele><time>2026-04-18T08:44:37.054Z</time></trkpt><trkpt lat="42.0879876" lon="11.7975461"><ele>7.0</ele><time>2026-04-18T08:44:38.051Z</time></trkpt><trkpt lat="42.0879507" lon="11.7976441"><ele>7.0</ele><time>2026-04-18T08:44:39.051Z</time></trkpt><trkpt lat="42.087909" lon="11.7977494"><ele>7.0</ele><time>2026-04-18T08:44:40.05Z</time></trkpt><trkpt lat="42.0878589" lon="11.7978546"><ele>7.000000000000001</ele><time>2026-04-18T08:44:41.05Z</time></trkpt><trkpt lat="42.0878122" lon="11.7979681"><ele>7.0</ele><time>2026-04-18T08:44:42.049Z</time></trkpt><trkpt lat="42.0877629" lon="11.7980874"><ele>7.3999999999999995</ele><time>2026-04-18T08:44:43.046Z</time></trkpt><trkpt lat="42.087712" lon="11.7982165"><ele>7.799999999999999</ele><time>2026-04-18T08:44:44.044Z</time></trkpt><trkpt lat="42.0876623" lon="11.7983352"><ele>8.2</ele><time>2026-04-18T08:44:45.044Z</time></trkpt><trkpt lat="42.0876107" lon="11.7984458"><ele>8.6</ele><time>2026-04-18T08:44:46.041Z</time></trkpt><trkpt lat="42.0875553" lon="11.7985613"><ele>9.0</ele><time>2026-04-18T08:44:47.045Z</time></trkpt><trkpt lat="42.0875025" lon="11.7986781"><ele>9.0</ele><time>2026-04-18T08:44:48.047Z</time></trkpt><trkpt lat="42.0874456" lon="11.7987945"><ele>9.0</ele><time>2026-04-18T08:44:49.039Z</time></trkpt><trkpt lat="42.0873893" lon="11.7989201"><ele>9.0</ele><time>2026-04-18T08:44:50.046Z</time></trkpt><trkpt lat="42.0873325" lon="11.7990407"><ele>9.0</ele><time>2026-04-18T08:44:51.045Z</time></trkpt><trkpt lat="42.0872765" lon="11.7991632"><ele>9.0</ele><time>2026-04-18T08:44:52.041Z</time></trkpt><trkpt lat="42.0872222" lon="11.7992735"><ele>8.6</ele><time>2026-04-18T08:44:53.039Z</time></trkpt><trkpt lat="42.0871706" lon="11.7993742"><ele>8.2</ele><time>2026-04-18T08:44:54.043Z</time></trkpt><trkpt lat="42.0871151" lon="11.7994788"><ele>7.799999999999999</ele><time>2026-04-18T08:44:55.038Z</time></trkpt><trkpt lat="42.0870591" lon="11.7995919"><ele>7.3999999999999995</ele><time>2026-04-18T08:44:56.041Z</time></trkpt><trkpt lat="42.0870098" lon="11.7997095"><ele>7.0</ele><time>2026-04-18T08:44:57.04Z</time></trkpt><trkpt lat="42.086952" lon="11.7998302"><ele>7.0</ele><time>2026-04-18T08:44:58.038Z</time></trkpt><trkpt lat="42.0869036" lon="11.7999432"><ele>6.999999999999999</ele><time>2026-04-18T08:44:59.037Z</time></trkpt><trkpt lat="42.0868392" lon="11.8000465"><ele>6.999999999999999</ele><time>2026-04-18T08:45:00.041Z</time></trkpt><trkpt lat="42.0867832" lon="11.8001541"><ele>7.0</ele><time>2026-04-18T08:45:01.049Z</time></trkpt><trkpt lat="42.0867311" lon="11.8002484"><ele>7.0</ele><time>2026-04-18T08:45:02.06Z</time></trkpt><trkpt lat="42.0866767" lon="11.8003467"><ele>7.0</ele><time>2026-04-18T08:45:03.046Z</time></trkpt><trkpt lat="42.0866255" lon="11.8004572"><ele>6.999999999999999</ele><time>2026-04-18T08:45:04.048Z</time></trkpt><trkpt lat="42.086575" lon="11.8005639"><ele>6.999999999999999</ele><time>2026-04-18T08:45:05.052Z</time></trkpt><trkpt lat="42.0865272" lon="11.8006811"><ele>7.0</ele><time>2026-04-18T08:45:06.049Z</time></trkpt><trkpt lat="42.0864714" lon="11.8008093"><ele>7.0</ele><time>2026-04-18T08:45:07.053Z</time></trkpt><trkpt lat="42.0864146" lon="11.8009223"><ele>8.0</ele><time>2026-04-18T08:45:08.045Z</time></trkpt><trkpt lat="42.0863574" lon="11.8010289"><ele>9.0</ele><time>2026-04-18T08:45:09.044Z</time></trkpt><trkpt lat="42.0863014" lon="11.8011327"><ele>10.0</ele><time>2026-04-18T08:45:10.05Z</time></trkpt><trkpt lat="42.0862463" lon="11.8012348"><ele>11.0</ele><time>2026-04-18T08:45:11.049Z</time></trkpt><trkpt lat="42.0861881" lon="11.8013366"><ele>12.0</ele><time>2026-04-18T08:45:12.046Z</time></trkpt><trkpt lat="42.0861272" lon="11.8014414"><ele>12.0</ele><time>2026-04-18T08:45:13.041Z</time></trkpt><trkpt lat="42.0860611" lon="11.8015412"><ele>12.0</ele><time>2026-04-18T08:45:14.052Z</time></trkpt><trkpt lat="42.0859903" lon="11.8016417"><ele>12.0</ele><time>2026-04-18T08:45:15.048Z</time></trkpt><trkpt lat="42.0859175" lon="11.8017487"><ele>12.0</ele><time>2026-04-18T08:45:16.048Z</time></trkpt><trkpt lat="42.085839" lon="11.8018543"><ele>12.0</ele><time>2026-04-18T08:45:17.041Z</time></trkpt><trkpt lat="42.0857662" lon="11.8019464"><ele>12.2</ele><time>2026-04-18T08:45:18.037Z</time></trkpt><trkpt lat="42.0856898" lon="11.8020311"><ele>12.399999999999999</ele><time>2026-04-18T08:45:19.042Z</time></trkpt><trkpt lat="42.0856202" lon="11.8021385"><ele>12.600000000000001</ele><time>2026-04-18T08:45:20.055Z</time></trkpt><trkpt lat="42.0855493" lon="11.802243"><ele>12.8</ele><time>2026-04-18T08:45:21.054Z</time></trkpt><trkpt lat="42.0854874" lon="11.8023479"><ele>13.0</ele><time>2026-04-18T08:45:22.054Z</time></trkpt><trkpt lat="42.0854274" lon="11.8024383"><ele>13.0</ele><time>2026-04-18T08:45:23.056Z</time></trkpt><trkpt lat="42.0853545" lon="11.8025319"><ele>13.0</ele><time>2026-04-18T08:45:24.056Z</time></trkpt><trkpt lat="42.0852927" lon="11.8026339"><ele>13.0</ele><time>2026-04-18T08:45:25.053Z</time></trkpt><trkpt lat="42.0852252" lon="11.80273"><ele>13.0</ele><time>2026-04-18T08:45:26.051Z</time></trkpt><trkpt lat="42.085154" lon="11.8028251"><ele>13.0</ele><time>2026-04-18T08:45:27.049Z</time></trkpt><trkpt lat="42.085083" lon="11.8029279"><ele>13.0</ele><time>2026-04-18T08:45:28.042Z</time></trkpt><trkpt lat="42.085015" lon="11.8030199"><ele>13.0</ele><time>2026-04-18T08:45:29.04Z</time></trkpt><trkpt lat="42.084947" lon="11.8031326"><ele>13.0</ele><time>2026-04-18T08:45:30.039Z</time></trkpt><trkpt lat="42.0848715" lon="11.8032431"><ele>13.0</ele><time>2026-04-18T08:45:31.045Z</time></trkpt><trkpt lat="42.0847945" lon="11.8033553"><ele>13.0</ele><time>2026-04-18T08:45:32.06Z</time></trkpt><trkpt lat="42.0847183" lon="11.8034533"><ele>13.2</ele><time>2026-04-18T08:45:33.056Z</time></trkpt><trkpt lat="42.0846408" lon="11.8035389"><ele>13.4</ele><time>2026-04-18T08:45:34.052Z</time></trkpt><trkpt lat="42.0845579" lon="11.803626"><ele>13.599999999999998</ele><time>2026-04-18T08:45:35.053Z</time></trkpt><trkpt lat="42.0844828" lon="11.8037192"><ele>13.799999999999999</ele><time>2026-04-18T08:45:36.052Z</time></trkpt><trkpt lat="42.0844133" lon="11.8038067"><ele>14.0</ele><time>2026-04-18T08:45:37.056Z</time></trkpt><trkpt lat="42.0843377" lon="11.803904"><ele>14.0</ele><time>2026-04-18T08:45:38.05Z</time></trkpt><trkpt lat="42.0842557" lon="11.8040161"><ele>14.0</ele><time>2026-04-18T08:45:39.051Z</time></trkpt><trkpt lat="42.0841744" lon="11.8041371"><ele>14.0</ele><time>2026-04-18T08:45:40.058Z</time></trkpt><trkpt lat="42.0840966" lon="11.8042432"><ele>14.0</ele><time>2026-04-18T08:45:41.049Z</time></trkpt><trkpt lat="42.0840196" lon="11.8043396"><ele>13.5</ele><time>2026-04-18T08:45:42.053Z</time></trkpt><trkpt lat="42.0839399" lon="11.8044402"><ele>13.0</ele><time>2026-04-18T08:45:43.05Z</time></trkpt><trkpt lat="42.0838588" lon="11.8045505"><ele>12.5</ele><time>2026-04-18T08:45:44.049Z</time></trkpt><trkpt lat="42.0837709" lon="11.8046578"><ele>12.0</ele><time>2026-04-18T08:45:45.053Z</time></trkpt><trkpt lat="42.0836826" lon="11.8047569"><ele>12.0</ele><time>2026-04-18T08:45:46.05Z</time></trkpt><trkpt lat="42.0835953" lon="11.8048514"><ele>12.0</ele><time>2026-04-18T08:45:47.052Z</time></trkpt><trkpt lat="42.0835113" lon="11.8049569"><ele>12.0</ele><time>2026-04-18T08:45:48.055Z</time></trkpt><trkpt lat="42.0834245" lon="11.8050603"><ele>12.0</ele><time>2026-04-18T08:45:49.051Z</time></trkpt><trkpt lat="42.0833513" lon="11.8051532"><ele>12.0</ele><time>2026-04-18T08:45:50.054Z</time></trkpt><trkpt lat="42.0832878" lon="11.8052416"><ele>11.833333333333334</ele><time>2026-04-18T08:45:51.056Z</time></trkpt><trkpt lat="42.0832314" lon="11.8053302"><ele>11.666666666666666</ele><time>2026-04-18T08:45:52.055Z</time></trkpt><trkpt lat="42.0831847" lon="11.8054056"><ele>11.5</ele><time>2026-04-18T08:45:53.056Z</time></trkpt><trkpt lat="42.0831404" lon="11.8054703"><ele>11.333333333333332</ele><time>2026-04-18T08:45:54.056Z</time></trkpt><trkpt lat="42.0830869" lon="11.8055714"><ele>11.166666666666666</ele><time>2026-04-18T08:45:56.059Z</time></trkpt><trkpt lat="42.0830298" lon="11.8056524"><ele>11.0</ele><time>2026-04-18T08:46:21.058Z</time></trkpt><trkpt lat="42.0829781" lon="11.8057319"><ele>11.0</ele><time>2026-04-18T08:46:22.058Z</time></trkpt><trkpt lat="42.0828909" lon="11.8058386"><ele>11.0</ele><time>2026-04-18T08:46:23.055Z</time></trkpt><trkpt lat="42.0828007" lon="11.8059238"><ele>11.0</ele><time>2026-04-18T08:46:24.052Z</time></trkpt><trkpt lat="42.0826966" lon="11.8060168"><ele>11.0</ele><time>2026-04-18T08:46:25.045Z</time></trkpt><trkpt lat="42.0825987" lon="11.806102"><ele>11.0</ele><time>2026-04-18T08:46:26.051Z</time></trkpt><trkpt lat="42.0824975" lon="11.8061831"><ele>11.0</ele><time>2026-04-18T08:46:27.046Z</time></trkpt><trkpt lat="42.0823849" lon="11.8062679"><ele>11.0</ele><time>2026-04-18T08:46:28.046Z</time></trkpt><trkpt lat="42.0822611" lon="11.8063399"><ele>11.0</ele><time>2026-04-18T08:46:29.058Z</time></trkpt><trkpt lat="42.0821285" lon="11.8064067"><ele>10.25</ele><time>2026-04-18T08:46:30.051Z</time></trkpt><trkpt lat="42.0819917" lon="11.8064597"><ele>9.5</ele><time>2026-04-18T08:46:31.058Z</time></trkpt><trkpt lat="42.0818583" lon="11.8065133"><ele>8.75</ele><time>2026-04-18T08:46:32.058Z</time></trkpt><trkpt lat="42.081735" lon="11.8065736"><ele>8.0</ele><time>2026-04-18T08:46:33.055Z</time></trkpt><trkpt lat="42.081612" lon="11.8066359"><ele>8.0</ele><time>2026-04-18T08:46:34.057Z</time></trkpt><trkpt lat="42.0814948" lon="11.8066968"><ele>8.0</ele><time>2026-04-18T08:46:35.057Z</time></trkpt><trkpt lat="42.0813881" lon="11.8067601"><ele>8.0</ele><time>2026-04-18T08:46:36.065Z</time></trkpt><trkpt lat="42.0812854" lon="11.8068166"><ele>8.0</ele><time>2026-04-18T08:46:37.052Z</time></trkpt><trkpt lat="42.0811833" lon="11.8068757"><ele>7.999999999999999</ele><time>2026-04-18T08:46:38.058Z</time></trkpt><trkpt lat="42.0810921" lon="11.8069219"><ele>8.0</ele><time>2026-04-18T08:46:39.049Z</time></trkpt><trkpt lat="42.0810094" lon="11.8069669"><ele>8.0</ele><time>2026-04-18T08:46:40.055Z</time></trkpt><trkpt lat="42.0809325" lon="11.8070033"><ele>8.0</ele><time>2026-04-18T08:46:41.073Z</time></trkpt><trkpt lat="42.0808613" lon="11.8070444"><ele>7.999999999999999</ele><time>2026-04-18T08:46:42.057Z</time></trkpt><trkpt lat="42.0807968" lon="11.8070843"><ele>8.0</ele><time>2026-04-18T08:46:43.065Z</time></trkpt><trkpt lat="42.0807351" lon="11.8071208"><ele>8.200000000000001</ele><time>2026-04-18T08:46:44.058Z</time></trkpt><trkpt lat="42.0806587" lon="11.8071554"><ele>8.4</ele><time>2026-04-18T08:46:45.065Z</time></trkpt><trkpt lat="42.0805685" lon="11.8071978"><ele>8.600000000000001</ele><time>2026-04-18T08:46:46.068Z</time></trkpt><trkpt lat="42.0804773" lon="11.8072431"><ele>8.8</ele><time>2026-04-18T08:46:47.059Z</time></trkpt><trkpt lat="42.0803812" lon="11.8072897"><ele>9.0</ele><time>2026-04-18T08:46:48.058Z</time></trkpt><trkpt lat="42.0802906" lon="11.8073329"><ele>9.0</ele><time>2026-04-18T08:46:49.054Z</time></trkpt><trkpt lat="42.0802101" lon="11.8073704"><ele>9.0</ele><time>2026-04-18T08:46:50.053Z</time></trkpt><trkpt lat="42.0801358" lon="11.807402"><ele>9.0</ele><time>2026-04-18T08:46:51.058Z</time></trkpt><trkpt lat="42.0800721" lon="11.8074293"><ele>9.0</ele><time>2026-04-18T08:46:52.053Z</time></trkpt><trkpt lat="42.0799708" lon="11.8074625"><ele>9.0</ele><time>2026-04-18T08:46:54.054Z</time></trkpt><trkpt lat="42.0798537" lon="11.8075002"><ele>8.6</ele><time>2026-04-18T08:46:56.066Z</time></trkpt><trkpt lat="42.0797778" lon="11.8075302"><ele>8.2</ele><time>2026-04-18T08:46:57.052Z</time></trkpt><trkpt lat="42.0796979" lon="11.8075563"><ele>7.799999999999999</ele><time>2026-04-18T08:46:58.049Z</time></trkpt><trkpt lat="42.0796129" lon="11.8075914"><ele>7.3999999999999995</ele><time>2026-04-18T08:46:59.044Z</time></trkpt><trkpt lat="42.0795145" lon="11.8076282"><ele>7.0</ele><time>2026-04-18T08:47:00.04Z</time></trkpt><trkpt lat="42.0794209" lon="11.8076695"><ele>7.0</ele><time>2026-04-18T08:47:01.061Z</time></trkpt><trkpt lat="42.0793264" lon="11.8077088"><ele>6.999999999999999</ele><time>2026-04-18T08:47:02.056Z</time></trkpt><trkpt lat="42.0792303" lon="11.8077458"><ele>6.999999999999999</ele><time>2026-04-18T08:47:03.048Z</time></trkpt><trkpt lat="42.0791373" lon="11.8077785"><ele>7.0</ele><time>2026-04-18T08:47:04.048Z</time></trkpt><trkpt lat="42.0790396" lon="11.8078069"><ele>7.0</ele><time>2026-04-18T08:47:05.048Z</time></trkpt><trkpt lat="42.0789503" lon="11.8078414"><ele>7.166666666666667</ele><time>2026-04-18T08:47:06.063Z</time></trkpt><trkpt lat="42.0788665" lon="11.8078749"><ele>7.333333333333334</ele><time>2026-04-18T08:47:07.044Z</time></trkpt><trkpt lat="42.078792" lon="11.8079132"><ele>7.5</ele><time>2026-04-18T08:47:08.047Z</time></trkpt><trkpt lat="42.0787246" lon="11.8079426"><ele>7.666666666666666</ele><time>2026-04-18T08:47:09.048Z</time></trkpt><trkpt lat="42.0786558" lon="11.8079704"><ele>7.833333333333333</ele><time>2026-04-18T08:47:10.046Z</time></trkpt><trkpt lat="42.0785758" lon="11.8079938"><ele>8.0</ele><time>2026-04-18T08:47:11.057Z</time></trkpt><trkpt lat="42.0784894" lon="11.8080238"><ele>8.0</ele><time>2026-04-18T08:47:12.049Z</time></trkpt><trkpt lat="42.0784013" lon="11.8080479"><ele>8.0</ele><time>2026-04-18T08:47:13.054Z</time></trkpt><trkpt lat="42.078315" lon="11.8080713"><ele>8.0</ele><time>2026-04-18T08:47:14.051Z</time></trkpt><trkpt lat="42.0782208" lon="11.8080958"><ele>8.0</ele><time>2026-04-18T08:47:15.048Z</time></trkpt><trkpt lat="42.0781292" lon="11.808118"><ele>8.0</ele><time>2026-04-18T08:47:16.062Z</time></trkpt><trkpt lat="42.0780378" lon="11.8081408"><ele>7.333333333333333</ele><time>2026-04-18T08:47:17.049Z</time></trkpt><trkpt lat="42.0779596" lon="11.8081529"><ele>6.666666666666666</ele><time>2026-04-18T08:47:18.053Z</time></trkpt><trkpt lat="42.077842" lon="11.8081781"><ele>6.0</ele><time>2026-04-18T08:47:20.046Z</time></trkpt><trkpt lat="42.0777729" lon="11.80819"><ele>5.333333333333333</ele><time>2026-04-18T08:47:22.053Z</time></trkpt><trkpt lat="42.0776847" lon="11.8082039"><ele>4.666666666666666</ele><time>2026-04-18T08:48:30.049Z</time></trkpt><trkpt lat="42.0776151" lon="11.8082216"><ele>4.0</ele><time>2026-04-18T08:48:31.059Z</time></trkpt><trkpt lat="42.0775325" lon="11.8082679"><ele>3.9999999999999996</ele><time>2026-04-18T08:48:32.051Z</time></trkpt><trkpt lat="42.0774645" lon="11.8083147"><ele>4.0</ele><time>2026-04-18T08:48:33.036Z</time></trkpt><trkpt lat="42.0774158" lon="11.8083737"><ele>4.0</ele><time>2026-04-18T08:48:34.037Z</time></trkpt><trkpt lat="42.0773873" lon="11.8084537"><ele>4.0</ele><time>2026-04-18T08:48:35.033Z</time></trkpt><trkpt lat="42.0774267" lon="11.8086308"><ele>3.9999999999999996</ele><time>2026-04-18T08:48:37.038Z</time></trkpt><trkpt lat="42.0774501" lon="11.8087268"><ele>4.0</ele><time>2026-04-18T08:48:38.054Z</time></trkpt><trkpt lat="42.0774649" lon="11.8088201"><ele>4.5</ele><time>2026-04-18T08:48:39.048Z</time></trkpt><trkpt lat="42.0774905" lon="11.8089087"><ele>5.0</ele><time>2026-04-18T08:48:40.04Z</time></trkpt><trkpt lat="42.0775066" lon="11.8089997"><ele>5.5</ele><time>2026-04-18T08:48:41.051Z</time></trkpt><trkpt lat="42.0775087" lon="11.809085"><ele>6.0</ele><time>2026-04-18T08:48:42.032Z</time></trkpt><trkpt lat="42.077469" lon="11.8092301"><ele>6.500000000000001</ele><time>2026-04-18T08:48:44.039Z</time></trkpt><trkpt lat="42.0774225" lon="11.8093235"><ele>7.0</ele><time>2026-04-18T08:48:46.054Z</time></trkpt><trkpt lat="42.0773782" lon="11.8093888"><ele>7.833333333333334</ele><time>2026-04-18T08:48:52.049Z</time></trkpt><trkpt lat="42.0773363" lon="11.8094582"><ele>8.666666666666668</ele><time>2026-04-18T08:48:54.043Z</time></trkpt><trkpt lat="42.0772461" lon="11.8095891"><ele>9.5</ele><time>2026-04-18T08:48:56.052Z</time></trkpt><trkpt lat="42.0771981" lon="11.8096553"><ele>10.333333333333334</ele><time>2026-04-18T08:48:57.046Z</time></trkpt><trkpt lat="42.0771392" lon="11.8097284"><ele>11.166666666666666</ele><time>2026-04-18T08:48:58.038Z</time></trkpt><trkpt lat="42.0770835" lon="11.8098051"><ele>12.0</ele><time>2026-04-18T08:48:59.04Z</time></trkpt><trkpt lat="42.0770184" lon="11.8098979"><ele>12.0</ele><time>2026-04-18T08:49:00.04Z</time></trkpt><trkpt lat="42.076939" lon="11.8099942"><ele>12.0</ele><time>2026-04-18T08:49:01.054Z</time></trkpt><trkpt lat="42.0768606" lon="11.8100965"><ele>12.0</ele><time>2026-04-18T08:49:02.043Z</time></trkpt><trkpt lat="42.0766909" lon="11.8103262"><ele>13.2</ele><time>2026-04-18T08:49:05.043Z</time></trkpt><trkpt lat="42.0766422" lon="11.8103938"><ele>14.399999999999999</ele><time>2026-04-18T08:49:06.053Z</time></trkpt><trkpt lat="42.0765594" lon="11.8104698"><ele>15.600000000000001</ele><time>2026-04-18T08:49:08.051Z</time></trkpt><trkpt lat="42.0764835" lon="11.8105963"><ele>16.8</ele><time>2026-04-18T08:49:10.03Z</time></trkpt><trkpt lat="42.0764561" lon="11.8107067"><ele>18.0</ele><time>2026-04-18T08:49:11.05Z</time></trkpt><trkpt lat="42.0764318" lon="11.8108426"><ele>18.75</ele><time>2026-04-18T08:49:12.034Z</time></trkpt><trkpt lat="42.0764076" lon="11.8110173"><ele>19.5</ele><time>2026-04-18T08:49:13.03Z</time></trkpt><trkpt lat="42.0763749" lon="11.8111815"><ele>20.25</ele><time>2026-04-18T08:49:14.032Z</time></trkpt><trkpt lat="42.0763377" lon="11.8113497"><ele>21.0</ele><time>2026-04-18T08:49:15.033Z</time></trkpt><trkpt lat="42.0762979" lon="11.8115212"><ele>21.0</ele><time>2026-04-18T08:49:16.039Z</time></trkpt><trkpt lat="42.0762513" lon="11.8116852"><ele>21.0</ele><time>2026-04-18T08:49:17.033Z</time></trkpt><trkpt lat="42.0761993" lon="11.8118398"><ele>21.0</ele><time>2026-04-18T08:49:18.021Z</time></trkpt><trkpt lat="42.0761505" lon="11.8119799"><ele>21.0</ele><time>2026-04-18T08:49:19.017Z</time></trkpt><trkpt lat="42.0761072" lon="11.8120907"><ele>21.6</ele><time>2026-04-18T08:49:20.018Z</time></trkpt><trkpt lat="42.0760616" lon="11.8121988"><ele>22.200000000000003</ele><time>2026-04-18T08:49:21.019Z</time></trkpt><trkpt lat="42.0759999" lon="11.8123247"><ele>22.799999999999997</ele><time>2026-04-18T08:49:23.025Z</time></trkpt><trkpt lat="42.0760666" lon="11.8123216"><ele>23.4</ele><time>2026-04-18T08:49:29.041Z</time></trkpt><trkpt lat="42.0761271" lon="11.8122106"><ele>24.0</ele><time>2026-04-18T08:49:41.046Z</time></trkpt><trkpt lat="42.0761685" lon="11.8120505"><ele>24.0</ele><time>2026-04-18T08:49:43.054Z</time></trkpt><trkpt lat="42.0761841" lon="11.8119598"><ele>24.0</ele><time>2026-04-18T08:49:44.041Z</time></trkpt><trkpt lat="42.0761937" lon="11.811866"><ele>24.0</ele><time>2026-04-18T08:49:45.048Z</time></trkpt><trkpt lat="42.0762115" lon="11.8117743"><ele>24.0</ele><time>2026-04-18T08:49:46.045Z</time></trkpt><trkpt lat="42.0762481" lon="11.8116111"><ele>24.0</ele><time>2026-04-18T08:49:48.046Z</time></trkpt><trkpt lat="42.0762707" lon="11.8115155"><ele>24.0</ele><time>2026-04-18T08:49:49.054Z</time></trkpt><trkpt lat="42.0762924" lon="11.8114198"><ele>23.5</ele><time>2026-04-18T08:49:50.039Z</time></trkpt><trkpt lat="42.0763179" lon="11.8113156"><ele>23.0</ele><time>2026-04-18T08:49:51.039Z</time></trkpt><trkpt lat="42.076347" lon="11.8112074"><ele>22.5</ele><time>2026-04-18T08:49:52.041Z</time></trkpt><trkpt lat="42.0763701" lon="11.8110982"><ele>22.0</ele><time>2026-04-18T08:49:53.041Z</time></trkpt><trkpt lat="42.0764014" lon="11.8109916"><ele>21.5</ele><time>2026-04-18T08:49:54.051Z</time></trkpt><trkpt lat="42.0764311" lon="11.8108837"><ele>21.0</ele><time>2026-04-18T08:49:55.046Z</time></trkpt><trkpt lat="42.0764586" lon="11.8107832"><ele>20.6</ele><time>2026-04-18T08:49:56.045Z</time></trkpt><trkpt lat="42.0764919" lon="11.8107095"><ele>20.200000000000003</ele><time>2026-04-18T08:49:57.04Z</time></trkpt><trkpt lat="42.0765812" lon="11.8106023"><ele>19.799999999999997</ele><time>2026-04-18T08:49:59.043Z</time></trkpt><trkpt lat="42.0766921" lon="11.8105323"><ele>19.4</ele><time>2026-04-18T08:50:01.037Z</time></trkpt><trkpt lat="42.0767683" lon="11.8106803"><ele>19.0</ele><time>2026-04-18T08:50:03.032Z</time></trkpt><trkpt lat="42.0768177" lon="11.8107845"><ele>18.8</ele><time>2026-04-18T08:50:04.053Z</time></trkpt><trkpt lat="42.0768678" lon="11.8109062"><ele>18.599999999999998</ele><time>2026-04-18T08:50:05.033Z</time></trkpt><trkpt lat="42.076919" lon="11.8110403"><ele>18.4</ele><time>2026-04-18T08:50:06.033Z</time></trkpt><trkpt lat="42.0769716" lon="11.8111513"><ele>18.2</ele><time>2026-04-18T08:50:07.033Z</time></trkpt><trkpt lat="42.0770202" lon="11.811259"><ele>18.0</ele><time>2026-04-18T08:50:08.043Z</time></trkpt><trkpt lat="42.0770669" lon="11.8113704"><ele>18.5</ele><time>2026-04-18T08:50:09.055Z</time></trkpt><trkpt lat="42.0770836" lon="11.8114873"><ele>19.0</ele><time>2026-04-18T08:50:10.039Z</time></trkpt><trkpt lat="42.0770875" lon="11.8116036"><ele>19.5</ele><time>2026-04-18T08:50:11.05Z</time></trkpt><trkpt lat="42.0770928" lon="11.8117152"><ele>20.0</ele><time>2026-04-18T08:50:12.05Z</time></trkpt><trkpt lat="42.0770888" lon="11.811819"><ele>20.5</ele><time>2026-04-18T08:50:13.049Z</time></trkpt><trkpt lat="42.0770826" lon="11.8119049"><ele>21.0</ele><time>2026-04-18T08:50:14.046Z</time></trkpt><trkpt lat="42.0770531" lon="11.8120274"><ele>21.4</ele><time>2026-04-18T08:50:16.057Z</time></trkpt><trkpt lat="42.0770335" lon="11.812172"><ele>21.8</ele><time>2026-04-18T08:50:18.05Z</time></trkpt><trkpt lat="42.0770461" lon="11.8123395"><ele>22.2</ele><time>2026-04-18T08:50:20.066Z</time></trkpt><trkpt lat="42.0770556" lon="11.8124396"><ele>22.599999999999998</ele><time>2026-04-18T08:50:21.051Z</time></trkpt><trkpt lat="42.0770631" lon="11.8125402"><ele>23.0</ele><time>2026-04-18T08:50:22.046Z</time></trkpt><trkpt lat="42.0770654" lon="11.8127032"><ele>23.4</ele><time>2026-04-18T08:50:24.052Z</time></trkpt><trkpt lat="42.0770635" lon="11.8127894"><ele>23.799999999999997</ele><time>2026-04-18T08:50:25.052Z</time></trkpt><trkpt lat="42.0770515" lon="11.8129257"><ele>24.2</ele><time>2026-04-18T08:50:27.054Z</time></trkpt><trkpt lat="42.0770727" lon="11.8130781"><ele>24.6</ele><time>2026-04-18T08:50:29.061Z</time></trkpt><trkpt lat="42.0770907" lon="11.8132407"><ele>25.0</ele><time>2026-04-18T08:50:31.066Z</time></trkpt><trkpt lat="42.0771087" lon="11.8133836"><ele>25.166666666666668</ele><time>2026-04-18T08:50:33.05Z</time></trkpt><trkpt lat="42.0771162" lon="11.8135089"><ele>25.333333333333336</ele><time>2026-04-18T08:50:35.056Z</time></trkpt><trkpt lat="42.0771266" lon="11.8136502"><ele>25.5</ele><time>2026-04-18T08:50:37.06Z</time></trkpt><trkpt lat="42.0771352" lon="11.813744"><ele>25.666666666666664</ele><time>2026-04-18T08:50:38.062Z</time></trkpt><trkpt lat="42.0771413" lon="11.8138518"><ele>25.833333333333332</ele><time>2026-04-18T08:50:39.066Z</time></trkpt><trkpt lat="42.0771516" lon="11.8139762"><ele>26.0</ele><time>2026-04-18T08:50:40.062Z</time></trkpt><trkpt lat="42.0771611" lon="11.8141058"><ele>25.999999999999996</ele><time>2026-04-18T08:50:42.147Z</time></trkpt><trkpt lat="42.0771743" lon="11.8142383"><ele>26.0</ele><time>2026-04-18T08:50:43.139Z</time></trkpt><trkpt lat="42.0771806" lon="11.8143626"><ele>26.0</ele><time>2026-04-18T08:50:44.14Z</time></trkpt><trkpt lat="42.0771849" lon="11.8144672"><ele>26.0</ele><time>2026-04-18T08:50:45.144Z</time></trkpt><trkpt lat="42.0771922" lon="11.8145699"><ele>25.999999999999996</ele><time>2026-04-18T08:50:46.157Z</time></trkpt><trkpt lat="42.0771959" lon="11.8146567"><ele>26.0</ele><time>2026-04-18T08:50:47.141Z</time></trkpt><trkpt lat="42.0771962" lon="11.8148058"><ele>26.6</ele><time>2026-04-18T08:50:49.147Z</time></trkpt><trkpt lat="42.0772009" lon="11.8148942"><ele>27.200000000000003</ele><time>2026-04-18T08:50:51.169Z</time></trkpt><trkpt lat="42.0772198" lon="11.8149887"><ele>27.799999999999997</ele><time>2026-04-18T08:50:55.153Z</time></trkpt><trkpt lat="42.0772279" lon="11.8151569"><ele>28.4</ele><time>2026-04-18T08:50:59.147Z</time></trkpt><trkpt lat="42.0772462" lon="11.8152944"><ele>29.0</ele><time>2026-04-18T08:51:00.151Z</time></trkpt><trkpt lat="42.0772403" lon="11.8154169"><ele>29.6</ele><time>2026-04-18T08:51:02.169Z</time></trkpt><trkpt lat="42.0772365" lon="11.8155116"><ele>30.2</ele><time>2026-04-18T08:51:03.167Z</time></trkpt><trkpt lat="42.0772215" lon="11.8156884"><ele>30.800000000000004</ele><time>2026-04-18T08:51:05.161Z</time></trkpt><trkpt lat="42.0772063" lon="11.8158184"><ele>31.400000000000002</ele><time>2026-04-18T08:51:07.158Z</time></trkpt><trkpt lat="42.0771894" lon="11.8159555"><ele>32.0</ele><time>2026-04-18T08:51:09.154Z</time></trkpt><trkpt lat="42.0772016" lon="11.8154151"><ele>32.0</ele><time>2026-04-18T08:51:11.168Z</time></trkpt><trkpt lat="42.0771895" lon="11.8153152"><ele>32.0</ele><time>2026-04-18T08:51:13.041Z</time></trkpt><trkpt lat="42.0772088" lon="11.8154498"><ele>32.0</ele><time>2026-04-18T08:51:14.053Z</time></trkpt><trkpt lat="42.0772322" lon="11.8155939"><ele>32.0</ele><time>2026-04-18T08:51:15.054Z</time></trkpt><trkpt lat="42.0772555" lon="11.8157531"><ele>32.0</ele><time>2026-04-18T08:51:16.051Z</time></trkpt><trkpt lat="42.0772691" lon="11.8159136"><ele>32.0</ele><time>2026-04-18T08:51:17.058Z</time></trkpt><trkpt lat="42.0772879" lon="11.8160832"><ele>32.0</ele><time>2026-04-18T08:51:18.053Z</time></trkpt><trkpt lat="42.0773033" lon="11.8162565"><ele>32.0</ele><time>2026-04-18T08:51:19.053Z</time></trkpt><trkpt lat="42.0773121" lon="11.816428"><ele>32.0</ele><time>2026-04-18T08:51:20.055Z</time></trkpt><trkpt lat="42.0773132" lon="11.816605"><ele>32.0</ele><time>2026-04-18T08:51:21.057Z</time></trkpt><trkpt lat="42.0773128" lon="11.8167774"><ele>32.0</ele><time>2026-04-18T08:51:22.05Z</time></trkpt><trkpt lat="42.0772979" lon="11.8169521"><ele>32.0</ele><time>2026-04-18T08:51:23.05Z</time></trkpt><trkpt lat="42.077284" lon="11.8171303"><ele>32.0</ele><time>2026-04-18T08:51:24.049Z</time></trkpt><trkpt lat="42.0772638" lon="11.8173039"><ele>32.25</ele><time>2026-04-18T08:51:25.05Z</time></trkpt><trkpt lat="42.0772461" lon="11.8174755"><ele>32.5</ele><time>2026-04-18T08:51:26.054Z</time></trkpt><trkpt lat="42.0772354" lon="11.8176422"><ele>32.75</ele><time>2026-04-18T08:51:27.052Z</time></trkpt><trkpt lat="42.0772397" lon="11.8178115"><ele>33.0</ele><time>2026-04-18T08:51:28.047Z</time></trkpt><trkpt lat="42.077257" lon="11.8179762"><ele>33.75</ele><time>2026-04-18T08:51:29.056Z</time></trkpt><trkpt lat="42.077285" lon="11.818147"><ele>34.5</ele><time>2026-04-18T08:51:30.056Z</time></trkpt><trkpt lat="42.0773145" lon="11.818308"><ele>35.25</ele><time>2026-04-18T08:51:31.066Z</time></trkpt><trkpt lat="42.0773485" lon="11.8184743"><ele>36.0</ele><time>2026-04-18T08:51:32.07Z</time></trkpt><trkpt lat="42.0773723" lon="11.8186543"><ele>37.25</ele><time>2026-04-18T08:51:33.049Z</time></trkpt><trkpt lat="42.0773988" lon="11.8188267"><ele>38.5</ele><time>2026-04-18T08:51:34.056Z</time></trkpt><trkpt lat="42.0774252" lon="11.818994"><ele>39.75</ele><time>2026-04-18T08:51:35.052Z</time></trkpt><trkpt lat="42.077448" lon="11.8191601"><ele>41.0</ele><time>2026-04-18T08:51:36.052Z</time></trkpt><trkpt lat="42.0774719" lon="11.819319"><ele>42.75</ele><time>2026-04-18T08:51:37.059Z</time></trkpt><trkpt lat="42.0774995" lon="11.8194787"><ele>44.5</ele><time>2026-04-18T08:51:38.055Z</time></trkpt><trkpt lat="42.0775214" lon="11.8196439"><ele>46.25</ele><time>2026-04-18T08:51:39.055Z</time></trkpt><trkpt lat="42.0775427" lon="11.8198172"><ele>48.0</ele><time>2026-04-18T08:51:40.063Z</time></trkpt><trkpt lat="42.0775838" lon="11.8199696"><ele>48.0</ele><time>2026-04-18T08:51:41.049Z</time></trkpt><trkpt lat="42.0776359" lon="11.8201068"><ele>48.0</ele><time>2026-04-18T08:51:42.056Z</time></trkpt><trkpt lat="42.0777122" lon="11.8202211"><ele>48.0</ele><time>2026-04-18T08:51:43.034Z</time></trkpt><trkpt lat="42.0778228" lon="11.8202857"><ele>48.0</ele><time>2026-04-18T08:51:44.051Z</time></trkpt><trkpt lat="42.0779419" lon="11.8203615"><ele>49.599999999999994</ele><time>2026-04-18T08:51:45.042Z</time></trkpt><trkpt lat="42.0780215" lon="11.8204633"><ele>51.199999999999996</ele><time>2026-04-18T08:51:46.043Z</time></trkpt><trkpt lat="42.0781025" lon="11.8205712"><ele>52.8</ele><time>2026-04-18T08:51:47.046Z</time></trkpt><trkpt lat="42.0781655" lon="11.8206888"><ele>54.4</ele><time>2026-04-18T08:51:48.042Z</time></trkpt><trkpt lat="42.0782186" lon="11.8208175"><ele>56.0</ele><time>2026-04-18T08:51:49.038Z</time></trkpt><trkpt lat="42.0782363" lon="11.8209742"><ele>57.0</ele><time>2026-04-18T08:51:50.049Z</time></trkpt><trkpt lat="42.0782256" lon="11.82115"><ele>58.0</ele><time>2026-04-18T08:51:51.056Z</time></trkpt><trkpt lat="42.0781897" lon="11.8213371"><ele>59.0</ele><time>2026-04-18T08:51:52.04Z</time></trkpt><trkpt lat="42.0781263" lon="11.8215202"><ele>60.0</ele><time>2026-04-18T08:51:53.046Z</time></trkpt><trkpt lat="42.0780531" lon="11.8217036"><ele>60.5</ele><time>2026-04-18T08:51:54.048Z</time></trkpt><trkpt lat="42.077962" lon="11.8218756"><ele>61.0</ele><time>2026-04-18T08:51:55.049Z</time></trkpt><trkpt lat="42.0778992" lon="11.8220484"><ele>61.5</ele><time>2026-04-18T08:51:56.05Z</time></trkpt><trkpt lat="42.0778459" lon="11.8222331"><ele>62.0</ele><time>2026-04-18T08:51:57.063Z</time></trkpt><trkpt lat="42.077807" lon="11.8224094"><ele>62.0</ele><time>2026-04-18T08:51:58.048Z</time></trkpt><trkpt lat="42.0777732" lon="11.8225886"><ele>62.0</ele><time>2026-04-18T08:51:59.054Z</time></trkpt><trkpt lat="42.0777557" lon="11.8227878"><ele>62.0</ele><time>2026-04-18T08:52:00.052Z</time></trkpt><trkpt lat="42.0777457" lon="11.8229645"><ele>62.0</ele><time>2026-04-18T08:52:01.054Z</time></trkpt><trkpt lat="42.077746" lon="11.8231331"><ele>62.6</ele><time>2026-04-18T08:52:02.051Z</time></trkpt><trkpt lat="42.0777392" lon="11.8232586"><ele>63.2</ele><time>2026-04-18T08:52:03.04Z</time></trkpt><trkpt lat="42.0777414" lon="11.8233884"><ele>63.8</ele><time>2026-04-18T08:52:04.041Z</time></trkpt><trkpt lat="42.0777572" lon="11.8235414"><ele>64.4</ele><time>2026-04-18T08:52:06.039Z</time></trkpt><trkpt lat="42.0777059" lon="11.8235957"><ele>65.0</ele><time>2026-04-18T08:52:33.039Z</time></trkpt><trkpt lat="42.0777175" lon="11.8237127"><ele>66.0</ele><time>2026-04-18T08:52:35.051Z</time></trkpt><trkpt lat="42.0777732" lon="11.8238596"><ele>67.0</ele><time>2026-04-18T08:52:37.041Z</time></trkpt><trkpt lat="42.0778135" lon="11.8239441"><ele>68.0</ele><time>2026-04-18T08:52:38.047Z</time></trkpt><trkpt lat="42.0778635" lon="11.8240338"><ele>69.0</ele><time>2026-04-18T08:52:39.045Z</time></trkpt><trkpt lat="42.0779185" lon="11.8241285"><ele>70.0</ele><time>2026-04-18T08:52:40.053Z</time></trkpt><trkpt lat="42.0779751" lon="11.8242222"><ele>70.0</ele><time>2026-04-18T08:52:41.054Z</time></trkpt><trkpt lat="42.0780301" lon="11.824303"><ele>70.0</ele><time>2026-04-18T08:52:42.047Z</time></trkpt><trkpt lat="42.0780691" lon="11.8243843"><ele>70.0</ele><time>2026-04-18T08:52:43.034Z</time></trkpt><trkpt lat="42.0780767" lon="11.8244688"><ele>70.0</ele><time>2026-04-18T08:52:44.029Z</time></trkpt><trkpt lat="42.0780722" lon="11.8246341"><ele>70.0</ele><time>2026-04-18T08:52:46.002Z</time></trkpt><trkpt lat="42.0780314" lon="11.8247577"><ele>70.0</ele><time>2026-04-18T08:52:47.001Z</time></trkpt><trkpt lat="42.0779727" lon="11.8249005"><ele>71.5</ele><time>2026-04-18T08:52:49.029Z</time></trkpt><trkpt lat="42.0779701" lon="11.8250105"><ele>73.0</ele><time>2026-04-18T08:52:50.023Z</time></trkpt><trkpt lat="42.0780293" lon="11.8251185"><ele>74.5</ele><time>2026-04-18T08:52:51.038Z</time></trkpt><trkpt lat="42.0781375" lon="11.8252337"><ele>76.0</ele><time>2026-04-18T08:52:52.03Z</time></trkpt><trkpt lat="42.0782531" lon="11.8253588"><ele>76.66666666666666</ele><time>2026-04-18T08:52:53.038Z</time></trkpt><trkpt lat="42.078363" lon="11.8254973"><ele>77.33333333333333</ele><time>2026-04-18T08:52:54.046Z</time></trkpt><trkpt lat="42.078461" lon="11.8256426"><ele>78.0</ele><time>2026-04-18T08:52:55.043Z</time></trkpt><trkpt lat="42.0785782" lon="11.8258055"><ele>78.0</ele><time>2026-04-18T08:52:56.041Z</time></trkpt><trkpt lat="42.0786797" lon="11.8259465"><ele>78.0</ele><time>2026-04-18T08:52:57.043Z</time></trkpt><trkpt lat="42.0787757" lon="11.8260834"><ele>78.0</ele><time>2026-04-18T08:52:58.046Z</time></trkpt><trkpt lat="42.0789046" lon="11.8261887"><ele>78.0</ele><time>2026-04-18T08:52:59.055Z</time></trkpt><trkpt lat="42.0789921" lon="11.8262978"><ele>80.0</ele><time>2026-04-18T08:53:00.048Z</time></trkpt><trkpt lat="42.0790845" lon="11.8264146"><ele>82.0</ele><time>2026-04-18T08:53:01.063Z</time></trkpt><trkpt lat="42.0791758" lon="11.8265257"><ele>84.0</ele><time>2026-04-18T08:53:02.064Z</time></trkpt><trkpt lat="42.0792669" lon="11.8266244"><ele>86.0</ele><time>2026-04-18T08:53:03.058Z</time></trkpt><trkpt lat="42.0793585" lon="11.8267296"><ele>87.75</ele><time>2026-04-18T08:53:04.053Z</time></trkpt><trkpt lat="42.0794451" lon="11.8268212"><ele>89.5</ele><time>2026-04-18T08:53:05.055Z</time></trkpt><trkpt lat="42.0795354" lon="11.8269142"><ele>91.25</ele><time>2026-04-18T08:53:06.05Z</time></trkpt><trkpt lat="42.0796265" lon="11.8270058"><ele>93.0</ele><time>2026-04-18T08:53:07.047Z</time></trkpt><trkpt lat="42.0797284" lon="11.8270881"><ele>93.0</ele><time>2026-04-18T08:53:08.049Z</time></trkpt><trkpt lat="42.07985" lon="11.8271256"><ele>93.0</ele><time>2026-04-18T08:53:09.05Z</time></trkpt><trkpt lat="42.0799858" lon="11.8271185"><ele>93.0</ele><time>2026-04-18T08:53:10.047Z</time></trkpt><trkpt lat="42.0801137" lon="11.8270916"><ele>93.0</ele><time>2026-04-18T08:53:11.047Z</time></trkpt><trkpt lat="42.0802148" lon="11.827024"><ele>93.5</ele><time>2026-04-18T08:53:12.035Z</time></trkpt><trkpt lat="42.0803146" lon="11.826974"><ele>94.0</ele><time>2026-04-18T08:53:13.036Z</time></trkpt><trkpt lat="42.0804034" lon="11.8269602"><ele>94.5</ele><time>2026-04-18T08:53:14.03Z</time></trkpt><trkpt lat="42.0804779" lon="11.8269648"><ele>95.0</ele><time>2026-04-18T08:53:15.04Z</time></trkpt><trkpt lat="42.0805319" lon="11.8270605"><ele>95.5</ele><time>2026-04-18T08:53:17.038Z</time></trkpt><trkpt lat="42.0805459" lon="11.827147"><ele>96.0</ele><time>2026-04-18T08:53:18.047Z</time></trkpt><trkpt lat="42.0805575" lon="11.8272445"><ele>96.0</ele><time>2026-04-18T08:53:19.043Z</time></trkpt><trkpt lat="42.0805821" lon="11.8273451"><ele>96.0</ele><time>2026-04-18T08:53:20.044Z</time></trkpt><trkpt lat="42.0806168" lon="11.8274647"><ele>96.0</ele><time>2026-04-18T08:53:21.037Z</time></trkpt><trkpt lat="42.0806562" lon="11.827612"><ele>96.0</ele><time>2026-04-18T08:53:22.04Z</time></trkpt><trkpt lat="42.0807064" lon="11.8277842"><ele>96.0</ele><time>2026-04-18T08:53:23.065Z</time></trkpt><trkpt lat="42.0807562" lon="11.82795"><ele>98.0</ele><time>2026-04-18T08:53:24.064Z</time></trkpt><trkpt lat="42.0808047" lon="11.8280942"><ele>100.0</ele><time>2026-04-18T08:53:25.066Z</time></trkpt><trkpt lat="42.0808529" lon="11.8282257"><ele>102.0</ele><time>2026-04-18T08:53:26.062Z</time></trkpt><trkpt lat="42.0808992" lon="11.8283579"><ele>104.0</ele><time>2026-04-18T08:53:27.068Z</time></trkpt><trkpt lat="42.0809483" lon="11.8284823"><ele>106.0</ele><time>2026-04-18T08:53:28.063Z</time></trkpt><trkpt lat="42.0810045" lon="11.8285938"><ele>107.19999999999999</ele><time>2026-04-18T08:53:30.144Z</time></trkpt><trkpt lat="42.0810621" lon="11.828702"><ele>108.39999999999999</ele><time>2026-04-18T08:53:31.145Z</time></trkpt><trkpt lat="42.0811353" lon="11.8288135"><ele>109.6</ele><time>2026-04-18T08:53:32.14Z</time></trkpt><trkpt lat="42.0812171" lon="11.828911"><ele>110.8</ele><time>2026-04-18T08:53:33.125Z</time></trkpt><trkpt lat="42.0813045" lon="11.8289989"><ele>112.0</ele><time>2026-04-18T08:53:34.122Z</time></trkpt><trkpt lat="42.0813895" lon="11.8290861"><ele>112.0</ele><time>2026-04-18T08:53:35.135Z</time></trkpt><trkpt lat="42.0814735" lon="11.8291742"><ele>111.99999999999999</ele><time>2026-04-18T08:53:36.159Z</time></trkpt><trkpt lat="42.0815557" lon="11.829262"><ele>111.99999999999999</ele><time>2026-04-18T08:53:37.15Z</time></trkpt><trkpt lat="42.0816432" lon="11.8293569"><ele>112.0</ele><time>2026-04-18T08:53:38.15Z</time></trkpt><trkpt lat="42.0817328" lon="11.8294543"><ele>112.0</ele><time>2026-04-18T08:53:39.145Z</time></trkpt><trkpt lat="42.0818229" lon="11.8295504"><ele>115.0</ele><time>2026-04-18T08:53:40.155Z</time></trkpt><trkpt lat="42.0819108" lon="11.829639"><ele>117.99999999999999</ele><time>2026-04-18T08:53:41.153Z</time></trkpt><trkpt lat="42.0820006" lon="11.8297282"><ele>120.99999999999999</ele><time>2026-04-18T08:53:42.138Z</time></trkpt><trkpt lat="42.0820734" lon="11.8298089"><ele>124.0</ele><time>2026-04-18T08:53:43.142Z</time></trkpt><trkpt lat="42.0821403" lon="11.8298852"><ele>127.0</ele><time>2026-04-18T08:53:44.153Z</time></trkpt><trkpt lat="42.0821932" lon="11.8299404"><ele>127.00000000000001</ele><time>2026-04-18T08:53:45.129Z</time></trkpt><trkpt lat="42.0822788" lon="11.8299636"><ele>127.0</ele><time>2026-04-18T08:53:46.15Z</time></trkpt><trkpt lat="42.082339" lon="11.8300592"><ele>127.0</ele><time>2026-04-18T08:53:47.129Z</time></trkpt><trkpt lat="42.0823744" lon="11.8301588"><ele>127.0</ele><time>2026-04-18T08:53:48.129Z</time></trkpt><trkpt lat="42.0823744" lon="11.8302569"><ele>127.00000000000001</ele><time>2026-04-18T08:53:49.124Z</time></trkpt><trkpt lat="42.082337" lon="11.8303544"><ele>127.0</ele><time>2026-04-18T08:53:50.122Z</time></trkpt><trkpt lat="42.0823297" lon="11.8304544"><ele>128.25</ele><time>2026-04-18T08:53:51.141Z</time></trkpt><trkpt lat="42.0822598" lon="11.830573"><ele>129.5</ele><time>2026-04-18T08:53:52.145Z</time></trkpt><trkpt lat="42.0821842" lon="11.830697"><ele>130.75</ele><time>2026-04-18T08:53:53.142Z</time></trkpt><trkpt lat="42.0821165" lon="11.8308269"><ele>132.0</ele><time>2026-04-18T08:53:54.141Z</time></trkpt><trkpt lat="42.0820396" lon="11.830984"><ele>133.5</ele><time>2026-04-18T08:53:55.138Z</time></trkpt><trkpt lat="42.0819675" lon="11.8311471"><ele>135.0</ele><time>2026-04-18T08:53:56.13Z</time></trkpt><trkpt lat="42.0818981" lon="11.8313119"><ele>136.5</ele><time>2026-04-18T08:53:57.131Z</time></trkpt><trkpt lat="42.081827" lon="11.8314797"><ele>138.0</ele><time>2026-04-18T08:53:58.126Z</time></trkpt><trkpt lat="42.0817561" lon="11.8316509"><ele>138.25</ele><time>2026-04-18T08:53:59.131Z</time></trkpt><trkpt lat="42.0816881" lon="11.8318223"><ele>138.5</ele><time>2026-04-18T08:54:00.146Z</time></trkpt><trkpt lat="42.0816615" lon="11.8319192"><ele>138.75</ele><time>2026-04-18T08:54:01.152Z</time></trkpt><trkpt lat="42.0816084" lon="11.8320652"><ele>139.0</ele><time>2026-04-18T08:54:02.158Z</time></trkpt><trkpt lat="42.081554" lon="11.8322018"><ele>139.25</ele><time>2026-04-18T08:54:03.147Z</time></trkpt><trkpt lat="42.0815067" lon="11.8323391"><ele>139.5</ele><time>2026-04-18T08:54:04.143Z</time></trkpt><trkpt lat="42.081473" lon="11.8324793"><ele>139.75</ele><time>2026-04-18T08:54:05.136Z</time></trkpt><trkpt lat="42.0814411" lon="11.8326327"><ele>140.0</ele><time>2026-04-18T08:54:06.121Z</time></trkpt><trkpt lat="42.0814281" lon="11.8327809"><ele>141.25</ele><time>2026-04-18T08:54:07.137Z</time></trkpt><trkpt lat="42.081428" lon="11.8329174"><ele>142.5</ele><time>2026-04-18T08:54:08.128Z</time></trkpt><trkpt lat="42.081433" lon="11.8330634"><ele>143.75</ele><time>2026-04-18T08:54:09.133Z</time></trkpt><trkpt lat="42.0814922" lon="11.8333382"><ele>145.0</ele><time>2026-04-18T08:54:10.054Z</time></trkpt><trkpt lat="42.0814834" lon="11.8335013"><ele>147.0</ele><time>2026-04-18T08:54:11.038Z</time></trkpt><trkpt lat="42.0814371" lon="11.8336514"><ele>149.0</ele><time>2026-04-18T08:54:12.038Z</time></trkpt><trkpt lat="42.0813657" lon="11.833793"><ele>151.0</ele><time>2026-04-18T08:54:13.041Z</time></trkpt><trkpt lat="42.0812828" lon="11.8339204"><ele>153.0</ele><time>2026-04-18T08:54:14.034Z</time></trkpt><trkpt lat="42.0811794" lon="11.8340492"><ele>153.0</ele><time>2026-04-18T08:54:15.045Z</time></trkpt><trkpt lat="42.0810898" lon="11.8341746"><ele>153.0</ele><time>2026-04-18T08:54:16.046Z</time></trkpt><trkpt lat="42.0810038" lon="11.8342827"><ele>153.0</ele><time>2026-04-18T08:54:17.043Z</time></trkpt><trkpt lat="42.080922" lon="11.8343895"><ele>153.0</ele><time>2026-04-18T08:54:18.054Z</time></trkpt><trkpt lat="42.0808465" lon="11.8345109"><ele>154.20000000000002</ele><time>2026-04-18T08:54:19.048Z</time></trkpt><trkpt lat="42.0807989" lon="11.8346493"><ele>155.4</ele><time>2026-04-18T08:54:20.042Z</time></trkpt><trkpt lat="42.0807762" lon="11.8347883"><ele>156.60000000000002</ele><time>2026-04-18T08:54:21.046Z</time></trkpt><trkpt lat="42.0807783" lon="11.8349387"><ele>157.8</ele><time>2026-04-18T08:54:22.052Z</time></trkpt><trkpt lat="42.0807706" lon="11.8350852"><ele>159.0</ele><time>2026-04-18T08:54:23.052Z</time></trkpt><trkpt lat="42.0807557" lon="11.8352136"><ele>161.0</ele><time>2026-04-18T08:54:24.05Z</time></trkpt><trkpt lat="42.0807374" lon="11.8353163"><ele>163.0</ele><time>2026-04-18T08:54:25.043Z</time></trkpt><trkpt lat="42.0806991" lon="11.8353948"><ele>165.0</ele><time>2026-04-18T08:54:26.04Z</time></trkpt><trkpt lat="42.0806223" lon="11.835433"><ele>167.0</ele><time>2026-04-18T08:54:27.038Z</time></trkpt><trkpt lat="42.0805176" lon="11.8354146"><ele>169.0</ele><time>2026-04-18T08:54:28.023Z</time></trkpt><trkpt lat="42.0803911" lon="11.8353751"><ele>169.0</ele><time>2026-04-18T08:54:29.028Z</time></trkpt><trkpt lat="42.0802681" lon="11.8353679"><ele>169.0</ele><time>2026-04-18T08:54:30.032Z</time></trkpt><trkpt lat="42.0801472" lon="11.8353818"><ele>169.0</ele><time>2026-04-18T08:54:31.032Z</time></trkpt><trkpt lat="42.0800448" lon="11.8354302"><ele>169.0</ele><time>2026-04-18T08:54:32.046Z</time></trkpt><trkpt lat="42.0799476" lon="11.8354965"><ele>169.0</ele><time>2026-04-18T08:54:33.032Z</time></trkpt><trkpt lat="42.0798695" lon="11.8355839"><ele>169.0</ele><time>2026-04-18T08:54:34.034Z</time></trkpt><trkpt lat="42.0798105" lon="11.8357013"><ele>169.0</ele><time>2026-04-18T08:54:35.036Z</time></trkpt><trkpt lat="42.0797683" lon="11.8358445"><ele>169.0</ele><time>2026-04-18T08:54:36.024Z</time></trkpt><trkpt lat="42.0797293" lon="11.8360028"><ele>169.0</ele><time>2026-04-18T08:54:37.032Z</time></trkpt><trkpt lat="42.0796989" lon="11.8361764"><ele>169.0</ele><time>2026-04-18T08:54:38.032Z</time></trkpt><trkpt lat="42.0796859" lon="11.8363876"><ele>169.0</ele><time>2026-04-18T08:54:39.03Z</time></trkpt><trkpt lat="42.0796695" lon="11.8365863"><ele>169.0</ele><time>2026-04-18T08:54:40.015Z</time></trkpt><trkpt lat="42.0796644" lon="11.8367877"><ele>170.0</ele><time>2026-04-18T08:54:41.022Z</time></trkpt><trkpt lat="42.0796586" lon="11.8369776"><ele>171.0</ele><time>2026-04-18T08:54:42.015Z</time></trkpt><trkpt lat="42.0796529" lon="11.8371618"><ele>172.0</ele><time>2026-04-18T08:54:43.024Z</time></trkpt><trkpt lat="42.0796806" lon="11.8373861"><ele>173.0</ele><time>2026-04-18T08:54:44.019Z</time></trkpt><trkpt lat="42.0797015" lon="11.8375977"><ele>173.75</ele><time>2026-04-18T08:54:45.024Z</time></trkpt><trkpt lat="42.0797074" lon="11.8378"><ele>174.5</ele><time>2026-04-18T08:54:46.02Z</time></trkpt><trkpt lat="42.0796851" lon="11.8379565"><ele>175.25</ele><time>2026-04-18T08:54:47.031Z</time></trkpt><trkpt lat="42.0796499" lon="11.8381175"><ele>176.0</ele><time>2026-04-18T08:54:48.023Z</time></trkpt><trkpt lat="42.079634" lon="11.8382437"><ele>176.0</ele><time>2026-04-18T08:54:49.03Z</time></trkpt><trkpt lat="42.0796118" lon="11.8384159"><ele>176.0</ele><time>2026-04-18T08:54:50.034Z</time></trkpt><trkpt lat="42.0795776" lon="11.8385839"><ele>176.0</ele><time>2026-04-18T08:54:51.03Z</time></trkpt><trkpt lat="42.0795399" lon="11.8387595"><ele>176.0</ele><time>2026-04-18T08:54:52.044Z</time></trkpt><trkpt lat="42.0794999" lon="11.8389377"><ele>175.5</ele><time>2026-04-18T08:54:53.038Z</time></trkpt><trkpt lat="42.0794844" lon="11.8391227"><ele>175.0</ele><time>2026-04-18T08:54:54.037Z</time></trkpt><trkpt lat="42.0794104" lon="11.8392912"><ele>174.5</ele><time>2026-04-18T08:54:55.038Z</time></trkpt><trkpt lat="42.0793927" lon="11.8394616"><ele>174.0</ele><time>2026-04-18T08:54:56.04Z</time></trkpt><trkpt lat="42.079375" lon="11.8395967"><ele>174.0</ele><time>2026-04-18T08:54:57.046Z</time></trkpt><trkpt lat="42.079368" lon="11.8396926"><ele>174.0</ele><time>2026-04-18T08:54:58.047Z</time></trkpt><trkpt lat="42.0793878" lon="11.8397858"><ele>174.0</ele><time>2026-04-18T08:54:59.043Z</time></trkpt><trkpt lat="42.0794715" lon="11.8399065"><ele>174.0</ele><time>2026-04-18T08:55:00.046Z</time></trkpt><trkpt lat="42.0795677" lon="11.8400496"><ele>174.0</ele><time>2026-04-18T08:55:01.065Z</time></trkpt><trkpt lat="42.0796778" lon="11.8401858"><ele>175.0</ele><time>2026-04-18T08:55:02.069Z</time></trkpt><trkpt lat="42.0797684" lon="11.8403054"><ele>176.0</ele><time>2026-04-18T08:55:03.058Z</time></trkpt><trkpt lat="42.0798457" lon="11.8404169"><ele>177.0</ele><time>2026-04-18T08:55:04.054Z</time></trkpt><trkpt lat="42.0799183" lon="11.8405148"><ele>178.0</ele><time>2026-04-18T08:55:05.046Z</time></trkpt><trkpt lat="42.0799884" lon="11.8406321"><ele>178.0</ele><time>2026-04-18T08:55:06.056Z</time></trkpt><trkpt lat="42.080057" lon="11.8407738"><ele>178.0</ele><time>2026-04-18T08:55:07.049Z</time></trkpt><trkpt lat="42.0801192" lon="11.8409322"><ele>178.0</ele><time>2026-04-18T08:55:08.051Z</time></trkpt><trkpt lat="42.0801756" lon="11.8411038"><ele>178.0</ele><time>2026-04-18T08:55:09.051Z</time></trkpt><trkpt lat="42.0802317" lon="11.8413197"><ele>177.0</ele><time>2026-04-18T08:55:10.05Z</time></trkpt><trkpt lat="42.0802782" lon="11.8414893"><ele>176.0</ele><time>2026-04-18T08:55:11.043Z</time></trkpt><trkpt lat="42.0803084" lon="11.8416344"><ele>175.0</ele><time>2026-04-18T08:55:12.055Z</time></trkpt><trkpt lat="42.0803307" lon="11.841782"><ele>174.0</ele><time>2026-04-18T08:55:13.06Z</time></trkpt><trkpt lat="42.080377" lon="11.8419399"><ele>172.75</ele><time>2026-04-18T08:55:14.065Z</time></trkpt><trkpt lat="42.0804039" lon="11.8421093"><ele>171.5</ele><time>2026-04-18T08:55:15.055Z</time></trkpt><trkpt lat="42.0804291" lon="11.8422656"><ele>170.25</ele><time>2026-04-18T08:55:16.035Z</time></trkpt><trkpt lat="42.0804559" lon="11.8424245"><ele>169.0</ele><time>2026-04-18T08:55:17.045Z</time></trkpt><trkpt lat="42.080492" lon="11.8426057"><ele>169.25</ele><time>2026-04-18T08:55:18.046Z</time></trkpt><trkpt lat="42.0805286" lon="11.8427701"><ele>169.5</ele><time>2026-04-18T08:55:19.043Z</time></trkpt><trkpt lat="42.080572" lon="11.8429307"><ele>169.75</ele><time>2026-04-18T08:55:20.04Z</time></trkpt><trkpt lat="42.0806153" lon="11.8430824"><ele>170.0</ele><time>2026-04-18T08:55:21.035Z</time></trkpt><trkpt lat="42.0806567" lon="11.8432292"><ele>170.0</ele><time>2026-04-18T08:55:22.042Z</time></trkpt><trkpt lat="42.0806987" lon="11.8433961"><ele>170.0</ele><time>2026-04-18T08:55:23.042Z</time></trkpt><trkpt lat="42.080735" lon="11.8435532"><ele>170.0</ele><time>2026-04-18T08:55:24.041Z</time></trkpt><trkpt lat="42.0807705" lon="11.8436999"><ele>170.0</ele><time>2026-04-18T08:55:25.038Z</time></trkpt><trkpt lat="42.0808146" lon="11.8438588"><ele>172.75</ele><time>2026-04-18T08:55:26.037Z</time></trkpt><trkpt lat="42.0808572" lon="11.8439954"><ele>175.5</ele><time>2026-04-18T08:55:27.036Z</time></trkpt><trkpt lat="42.0809011" lon="11.8441464"><ele>178.25</ele><time>2026-04-18T08:55:28.038Z</time></trkpt><trkpt lat="42.0809519" lon="11.8442917"><ele>181.0</ele><time>2026-04-18T08:55:29.04Z</time></trkpt><trkpt lat="42.0810057" lon="11.8444345"><ele>181.0</ele><time>2026-04-18T08:55:30.041Z</time></trkpt><trkpt lat="42.0810739" lon="11.8445758"><ele>181.0</ele><time>2026-04-18T08:55:31.045Z</time></trkpt><trkpt lat="42.0811426" lon="11.8447093"><ele>181.0</ele><time>2026-04-18T08:55:32.048Z</time></trkpt><trkpt lat="42.0812014" lon="11.844849"><ele>181.0</ele><time>2026-04-18T08:55:33.04Z</time></trkpt><trkpt lat="42.0812639" lon="11.8449824"><ele>181.0</ele><time>2026-04-18T08:55:34.047Z</time></trkpt><trkpt lat="42.0813338" lon="11.8451111"><ele>181.0</ele><time>2026-04-18T08:55:35.044Z</time></trkpt><trkpt lat="42.081403" lon="11.8452488"><ele>181.0</ele><time>2026-04-18T08:55:36.043Z</time></trkpt><trkpt lat="42.0814659" lon="11.8453787"><ele>181.0</ele><time>2026-04-18T08:55:37.039Z</time></trkpt><trkpt lat="42.0815275" lon="11.8455158"><ele>181.5</ele><time>2026-04-18T08:55:38.037Z</time></trkpt><trkpt lat="42.0815855" lon="11.8456623"><ele>182.0</ele><time>2026-04-18T08:55:39.034Z</time></trkpt><trkpt lat="42.0816569" lon="11.8458184"><ele>182.5</ele><time>2026-04-18T08:55:40.037Z</time></trkpt><trkpt lat="42.0817362" lon="11.8459733"><ele>183.0</ele><time>2026-04-18T08:55:41.034Z</time></trkpt><trkpt lat="42.0818108" lon="11.8461197"><ele>186.25</ele><time>2026-04-18T08:55:42.034Z</time></trkpt><trkpt lat="42.0818799" lon="11.8462597"><ele>189.5</ele><time>2026-04-18T08:55:43.031Z</time></trkpt><trkpt lat="42.0819466" lon="11.8463968"><ele>192.75</ele><time>2026-04-18T08:55:44.028Z</time></trkpt><trkpt lat="42.0820154" lon="11.8465387"><ele>196.0</ele><time>2026-04-18T08:55:45.027Z</time></trkpt><trkpt lat="42.0820864" lon="11.8466748"><ele>196.20000000000002</ele><time>2026-04-18T08:55:46.032Z</time></trkpt><trkpt lat="42.0821611" lon="11.8467963"><ele>196.4</ele><time>2026-04-18T08:55:47.026Z</time></trkpt><trkpt lat="42.0822426" lon="11.8468996"><ele>196.6</ele><time>2026-04-18T08:55:48.027Z</time></trkpt><trkpt lat="42.0823267" lon="11.8469866"><ele>196.8</ele><time>2026-04-18T08:55:49.024Z</time></trkpt><trkpt lat="42.0824239" lon="11.8470582"><ele>197.0</ele><time>2026-04-18T08:55:50.033Z</time></trkpt><trkpt lat="42.0825153" lon="11.8471496"><ele>198.5</ele><time>2026-04-18T08:55:51.031Z</time></trkpt><trkpt lat="42.0826186" lon="11.8472374"><ele>200.0</ele><time>2026-04-18T08:55:52.028Z</time></trkpt><trkpt lat="42.0827241" lon="11.8473274"><ele>201.5</ele><time>2026-04-18T08:55:53.022Z</time></trkpt><trkpt lat="42.0828374" lon="11.8474207"><ele>203.0</ele><time>2026-04-18T08:55:54.036Z</time></trkpt><trkpt lat="42.082941" lon="11.8475232"><ele>203.0</ele><time>2026-04-18T08:55:55.037Z</time></trkpt><trkpt lat="42.0830472" lon="11.8476168"><ele>203.0</ele><time>2026-04-18T08:55:56.035Z</time></trkpt><trkpt lat="42.0831386" lon="11.8477212"><ele>203.0</ele><time>2026-04-18T08:55:57.03Z</time></trkpt><trkpt lat="42.0832248" lon="11.847836"><ele>203.0</ele><time>2026-04-18T08:55:58.028Z</time></trkpt><trkpt lat="42.0833107" lon="11.8479515"><ele>206.25</ele><time>2026-04-18T08:55:59.031Z</time></trkpt><trkpt lat="42.0833908" lon="11.8480798"><ele>209.5</ele><time>2026-04-18T08:56:00.037Z</time></trkpt><trkpt lat="42.0834738" lon="11.8482041"><ele>212.75</ele><time>2026-04-18T08:56:01.031Z</time></trkpt><trkpt lat="42.0835638" lon="11.8483324"><ele>216.0</ele><time>2026-04-18T08:56:02.041Z</time></trkpt><trkpt lat="42.0836434" lon="11.8484558"><ele>216.8</ele><time>2026-04-18T08:56:03.023Z</time></trkpt><trkpt lat="42.0837173" lon="11.8485835"><ele>217.60000000000002</ele><time>2026-04-18T08:56:04.035Z</time></trkpt><trkpt lat="42.083786" lon="11.8487019"><ele>218.4</ele><time>2026-04-18T08:56:05.024Z</time></trkpt><trkpt lat="42.0838478" lon="11.8488111"><ele>219.2</ele><time>2026-04-18T08:56:06.03Z</time></trkpt><trkpt lat="42.0839065" lon="11.8489034"><ele>220.0</ele><time>2026-04-18T08:56:07.027Z</time></trkpt><trkpt lat="42.0839595" lon="11.8489614"><ele>220.0</ele><time>2026-04-18T08:56:08.033Z</time></trkpt><trkpt lat="42.0840081" lon="11.8490333"><ele>220.0</ele><time>2026-04-18T08:56:09.029Z</time></trkpt><trkpt lat="42.0840363" lon="11.8492044"><ele>220.0</ele><time>2026-04-18T08:56:11.029Z</time></trkpt><trkpt lat="42.0840212" lon="11.8493145"><ele>220.0</ele><time>2026-04-18T08:56:12.023Z</time></trkpt><trkpt lat="42.0839825" lon="11.8494288"><ele>220.0</ele><time>2026-04-18T08:56:13.037Z</time></trkpt><trkpt lat="42.0839181" lon="11.8495298"><ele>222.0</ele><time>2026-04-18T08:56:14.023Z</time></trkpt><trkpt lat="42.0838389" lon="11.8496028"><ele>224.0</ele><time>2026-04-18T08:56:15.026Z</time></trkpt><trkpt lat="42.083753" lon="11.8496352"><ele>226.0</ele><time>2026-04-18T08:56:16.02Z</time></trkpt><trkpt lat="42.0836561" lon="11.8496312"><ele>228.0</ele><time>2026-04-18T08:56:17.031Z</time></trkpt><trkpt lat="42.0835446" lon="11.8495942"><ele>230.0</ele><time>2026-04-18T08:56:18.025Z</time></trkpt><trkpt lat="42.0834279" lon="11.8495239"><ele>230.0</ele><time>2026-04-18T08:56:19.022Z</time></trkpt><trkpt lat="42.0833134" lon="11.84943"><ele>230.0</ele><time>2026-04-18T08:56:20.035Z</time></trkpt><trkpt lat="42.0831957" lon="11.8493277"><ele>230.0</ele><time>2026-04-18T08:56:21.034Z</time></trkpt><trkpt lat="42.0830826" lon="11.8492461"><ele>230.0</ele><time>2026-04-18T08:56:22.035Z</time></trkpt><trkpt lat="42.0829505" lon="11.8491931"><ele>229.0</ele><time>2026-04-18T08:56:23.036Z</time></trkpt><trkpt lat="42.0828286" lon="11.8491466"><ele>228.0</ele><time>2026-04-18T08:56:24.035Z</time></trkpt><trkpt lat="42.0827135" lon="11.8491132"><ele>227.0</ele><time>2026-04-18T08:56:25.028Z</time></trkpt><trkpt lat="42.082593" lon="11.8490948"><ele>226.0</ele><time>2026-04-18T08:56:26.025Z</time></trkpt><trkpt lat="42.0824818" lon="11.8490831"><ele>225.60000000000002</ele><time>2026-04-18T08:56:27.028Z</time></trkpt><trkpt lat="42.082368" lon="11.8490584"><ele>225.20000000000002</ele><time>2026-04-18T08:56:28.035Z</time></trkpt><trkpt lat="42.0822605" lon="11.8490582"><ele>224.79999999999998</ele><time>2026-04-18T08:56:29.03Z</time></trkpt><trkpt lat="42.0821617" lon="11.8490765"><ele>224.39999999999998</ele><time>2026-04-18T08:56:30.027Z</time></trkpt><trkpt lat="42.0820555" lon="11.8491096"><ele>224.0</ele><time>2026-04-18T08:56:31.027Z</time></trkpt><trkpt lat="42.0819551" lon="11.8491772"><ele>224.0</ele><time>2026-04-18T08:56:32.028Z</time></trkpt><trkpt lat="42.0818822" lon="11.8492822"><ele>223.99999999999997</ele><time>2026-04-18T08:56:33.021Z</time></trkpt><trkpt lat="42.0818078" lon="11.8493853"><ele>223.99999999999997</ele><time>2026-04-18T08:56:34.012Z</time></trkpt><trkpt lat="42.0817702" lon="11.8495236"><ele>224.0</ele><time>2026-04-18T08:56:35.027Z</time></trkpt><trkpt lat="42.0817414" lon="11.8496645"><ele>224.0</ele><time>2026-04-18T08:56:36.033Z</time></trkpt><trkpt lat="42.0817155" lon="11.8497894"><ele>223.6</ele><time>2026-04-18T08:56:37.035Z</time></trkpt><trkpt lat="42.0816896" lon="11.8499293"><ele>223.2</ele><time>2026-04-18T08:56:38.044Z</time></trkpt><trkpt lat="42.081666" lon="11.8500678"><ele>222.79999999999998</ele><time>2026-04-18T08:56:39.045Z</time></trkpt><trkpt lat="42.0816407" lon="11.8501928"><ele>222.39999999999998</ele><time>2026-04-18T08:56:40.031Z</time></trkpt><trkpt lat="42.0816125" lon="11.8502927"><ele>222.0</ele><time>2026-04-18T08:56:41.054Z</time></trkpt><trkpt lat="42.0815538" lon="11.8504064"><ele>222.0</ele><time>2026-04-18T08:56:43.053Z</time></trkpt><trkpt lat="42.0815151" lon="11.8505098"><ele>222.0</ele><time>2026-04-18T08:56:47.059Z</time></trkpt><trkpt lat="42.0815377" lon="11.8505931"><ele>222.0</ele><time>2026-04-18T08:56:49.066Z</time></trkpt><trkpt lat="42.0815782" lon="11.8506718"><ele>222.0</ele><time>2026-04-18T08:56:51.067Z</time></trkpt><trkpt lat="42.0816332" lon="11.8507629"><ele>222.0</ele><time>2026-04-18T08:56:53.059Z</time></trkpt><trkpt lat="42.0816874" lon="11.8508422"><ele>222.0</ele><time>2026-04-18T08:56:56.061Z</time></trkpt><trkpt lat="42.0817441" lon="11.8509058"><ele>220.6</ele><time>2026-04-18T08:56:59.061Z</time></trkpt><trkpt lat="42.0818213" lon="11.8509649"><ele>219.2</ele><time>2026-04-18T08:57:02.07Z</time></trkpt><trkpt lat="42.0818832" lon="11.8510741"><ele>217.8</ele><time>2026-04-18T08:57:29.06Z</time></trkpt><trkpt lat="42.0819342" lon="11.8511288"><ele>216.4</ele><time>2026-04-18T08:57:30.054Z</time></trkpt><trkpt lat="42.0820483" lon="11.8512094"><ele>215.0</ele><time>2026-04-18T08:57:31.058Z</time></trkpt><trkpt lat="42.0821633" lon="11.8512982"><ele>215.0</ele><time>2026-04-18T08:57:32.069Z</time></trkpt><trkpt lat="42.0822656" lon="11.8513993"><ele>215.0</ele><time>2026-04-18T08:57:33.063Z</time></trkpt><trkpt lat="42.0823631" lon="11.8514936"><ele>215.0</ele><time>2026-04-18T08:57:34.062Z</time></trkpt><trkpt lat="42.0824445" lon="11.8515721"><ele>215.0</ele><time>2026-04-18T08:57:35.073Z</time></trkpt><trkpt lat="42.0825273" lon="11.8516646"><ele>215.75</ele><time>2026-04-18T08:57:36.065Z</time></trkpt><trkpt lat="42.0825994" lon="11.8517753"><ele>216.5</ele><time>2026-04-18T08:57:37.065Z</time></trkpt><trkpt lat="42.0826679" lon="11.8518997"><ele>217.25</ele><time>2026-04-18T08:57:38.058Z</time></trkpt><trkpt lat="42.0827325" lon="11.8520324"><ele>218.0</ele><time>2026-04-18T08:57:39.056Z</time></trkpt><trkpt lat="42.0827968" lon="11.8521655"><ele>218.0</ele><time>2026-04-18T08:57:40.064Z</time></trkpt><trkpt lat="42.0828667" lon="11.8522959"><ele>218.0</ele><time>2026-04-18T08:57:41.059Z</time></trkpt><trkpt lat="42.0829296" lon="11.8524179"><ele>218.0</ele><time>2026-04-18T08:57:42.058Z</time></trkpt><trkpt lat="42.0829917" lon="11.8525378"><ele>218.0</ele><time>2026-04-18T08:57:43.062Z</time></trkpt><trkpt lat="42.0830523" lon="11.8526671"><ele>218.8</ele><time>2026-04-18T08:57:44.059Z</time></trkpt><trkpt lat="42.0831149" lon="11.8527882"><ele>219.60000000000002</ele><time>2026-04-18T08:57:45.066Z</time></trkpt><trkpt lat="42.0831818" lon="11.8529122"><ele>220.39999999999998</ele><time>2026-04-18T08:57:46.062Z</time></trkpt><trkpt lat="42.0832404" lon="11.8530233"><ele>221.2</ele><time>2026-04-18T08:57:47.054Z</time></trkpt><trkpt lat="42.0832985" lon="11.8531317"><ele>222.0</ele><time>2026-04-18T08:57:48.053Z</time></trkpt><trkpt lat="42.0833367" lon="11.8532113"><ele>222.5</ele><time>2026-04-18T08:57:49.048Z</time></trkpt><trkpt lat="42.0833585" lon="11.8532937"><ele>223.0</ele><time>2026-04-18T08:57:50.053Z</time></trkpt><trkpt lat="42.0833317" lon="11.8534256"><ele>223.5</ele><time>2026-04-18T08:57:52.045Z</time></trkpt><trkpt lat="42.083292" lon="11.8535139"><ele>224.0</ele><time>2026-04-18T08:58:52.066Z</time></trkpt><trkpt lat="42.08328" lon="11.8536013"><ele>224.5</ele><time>2026-04-18T08:59:58.05Z</time></trkpt><trkpt lat="42.0832685" lon="11.8536936"><ele>225.0</ele><time>2026-04-18T09:00:00.058Z</time></trkpt><trkpt lat="42.0832373" lon="11.8538738"><ele>223.33333333333334</ele><time>2026-04-18T09:00:02.056Z</time></trkpt><trkpt lat="42.0832135" lon="11.8539654"><ele>221.66666666666669</ele><time>2026-04-18T09:00:03.051Z</time></trkpt><trkpt lat="42.0831708" lon="11.8540971"><ele>220.0</ele><time>2026-04-18T09:00:05.057Z</time></trkpt><trkpt lat="42.0831496" lon="11.8542015"><ele>218.33333333333334</ele><time>2026-04-18T09:00:08.064Z</time></trkpt><trkpt lat="42.0831213" lon="11.8543197"><ele>216.66666666666669</ele><time>2026-04-18T09:00:11.061Z</time></trkpt><trkpt lat="42.0830998" lon="11.8544121"><ele>215.0</ele><time>2026-04-18T09:00:13.059Z</time></trkpt><trkpt lat="42.0830734" lon="11.8545358"><ele>212.8</ele><time>2026-04-18T09:00:15.058Z</time></trkpt><trkpt lat="42.0830622" lon="11.8546818"><ele>210.6</ele><time>2026-04-18T09:00:17.053Z</time></trkpt><trkpt lat="42.0830576" lon="11.8547701"><ele>208.39999999999998</ele><time>2026-04-18T09:00:18.053Z</time></trkpt><trkpt lat="42.0830772" lon="11.8549141"><ele>206.2</ele><time>2026-04-18T09:00:20.055Z</time></trkpt><trkpt lat="42.0830885" lon="11.8550522"><ele>204.0</ele><time>2026-04-18T09:00:22.06Z</time></trkpt><trkpt lat="42.0830621" lon="11.8551587"><ele>203.16666666666666</ele><time>2026-04-18T09:00:24.053Z</time></trkpt><trkpt lat="42.0830116" lon="11.8552907"><ele>202.33333333333331</ele><time>2026-04-18T09:00:26.042Z</time></trkpt><trkpt lat="42.0829898" lon="11.8553809"><ele>201.5</ele><time>2026-04-18T09:00:27.042Z</time></trkpt><trkpt lat="42.0829601" lon="11.855476"><ele>200.66666666666666</ele><time>2026-04-18T09:00:28.044Z</time></trkpt><trkpt lat="42.0829283" lon="11.8555669"><ele>199.83333333333331</ele><time>2026-04-18T09:00:29.044Z</time></trkpt><trkpt lat="42.0828832" lon="11.8557026"><ele>199.0</ele><time>2026-04-18T09:00:31.046Z</time></trkpt><trkpt lat="42.0828262" lon="11.8557991"><ele>199.0</ele><time>2026-04-18T09:00:33.049Z</time></trkpt><trkpt lat="42.082772" lon="11.855892"><ele>199.0</ele><time>2026-04-18T09:00:35.06Z</time></trkpt><trkpt lat="42.0827227" lon="11.8560294"><ele>199.0</ele><time>2026-04-18T09:00:37.05Z</time></trkpt><trkpt lat="42.0827028" lon="11.8561672"><ele>199.0</ele><time>2026-04-18T09:00:39.052Z</time></trkpt><trkpt lat="42.0827199" lon="11.8562915"><ele>199.0</ele><time>2026-04-18T09:00:41.047Z</time></trkpt><trkpt lat="42.0827683" lon="11.8563991"><ele>197.79999999999998</ele><time>2026-04-18T09:00:43.058Z</time></trkpt><trkpt lat="42.0828246" lon="11.856516"><ele>196.6</ele><time>2026-04-18T09:00:45.05Z</time></trkpt><trkpt lat="42.0828758" lon="11.856641"><ele>195.4</ele><time>2026-04-18T09:00:47.06Z</time></trkpt><trkpt lat="42.0829381" lon="11.8567529"><ele>194.2</ele><time>2026-04-18T09:00:49.063Z</time></trkpt><trkpt lat="42.0830146" lon="11.8568483"><ele>193.0</ele><time>2026-04-18T09:00:51.063Z</time></trkpt><trkpt lat="42.0830964" lon="11.8569427"><ele>193.0</ele><time>2026-04-18T09:00:53.057Z</time></trkpt><trkpt lat="42.0831998" lon="11.8570061"><ele>193.0</ele><time>2026-04-18T09:00:55.069Z</time></trkpt><trkpt lat="42.0832901" lon="11.8570883"><ele>193.0</ele><time>2026-04-18T09:00:57.059Z</time></trkpt><trkpt lat="42.0833669" lon="11.8571849"><ele>193.0</ele><time>2026-04-18T09:00:59.063Z</time></trkpt><trkpt lat="42.0834495" lon="11.8572547"><ele>193.0</ele><time>2026-04-18T09:01:01.066Z</time></trkpt><trkpt lat="42.0835558" lon="11.857323"><ele>193.0</ele><time>2026-04-18T09:01:03.057Z</time></trkpt><trkpt lat="42.0836403" lon="11.8573789"><ele>193.0</ele><time>2026-04-18T09:01:05.046Z</time></trkpt><trkpt lat="42.0837156" lon="11.857409"><ele>193.0</ele><time>2026-04-18T09:01:07.05Z</time></trkpt><trkpt lat="42.0838369" lon="11.8574436"><ele>193.0</ele><time>2026-04-18T09:01:09.045Z</time></trkpt><trkpt lat="42.0838994" lon="11.8574668"><ele>193.0</ele><time>2026-04-18T09:01:10.046Z</time></trkpt><trkpt lat="42.0839978" lon="11.8575048"><ele>194.16666666666666</ele><time>2026-04-18T09:01:12.046Z</time></trkpt><trkpt lat="42.0841092" lon="11.8575245"><ele>195.33333333333331</ele><time>2026-04-18T09:01:14.048Z</time></trkpt><trkpt lat="42.0841938" lon="11.8575382"><ele>196.5</ele><time>2026-04-18T09:01:16.05Z</time></trkpt><trkpt lat="42.0842794" lon="11.8575467"><ele>197.66666666666669</ele><time>2026-04-18T09:01:19.061Z</time></trkpt><trkpt lat="42.0843235" lon="11.8576315"><ele>198.83333333333334</ele><time>2026-04-18T09:01:21.05Z</time></trkpt><trkpt lat="42.0843076" lon="11.8577394"><ele>200.0</ele><time>2026-04-18T09:01:23.043Z</time></trkpt><trkpt lat="42.0842698" lon="11.8578135"><ele>200.00000000000003</ele><time>2026-04-18T09:01:24.043Z</time></trkpt><trkpt lat="42.0842223" lon="11.8578814"><ele>200.0</ele><time>2026-04-18T09:01:25.042Z</time></trkpt><trkpt lat="42.084165" lon="11.8579254"><ele>200.0</ele><time>2026-04-18T09:01:26.029Z</time></trkpt><trkpt lat="42.0841187" lon="11.857988"><ele>200.0</ele><time>2026-04-18T09:01:27.035Z</time></trkpt><trkpt lat="42.0840461" lon="11.8581164"><ele>200.00000000000003</ele><time>2026-04-18T09:01:29.046Z</time></trkpt><trkpt lat="42.0840017" lon="11.8582039"><ele>200.0</ele><time>2026-04-18T09:01:31.051Z</time></trkpt><trkpt lat="42.0839597" lon="11.8582791"><ele>195.66666666666669</ele><time>2026-04-18T09:01:33.047Z</time></trkpt><trkpt lat="42.0839153" lon="11.8583648"><ele>191.33333333333334</ele><time>2026-04-18T09:01:35.053Z</time></trkpt><trkpt lat="42.0838775" lon="11.8584448"><ele>187.0</ele><time>2026-04-18T09:01:37.06Z</time></trkpt><trkpt lat="42.0838469" lon="11.8585212"><ele>182.66666666666669</ele><time>2026-04-18T09:01:39.058Z</time></trkpt><trkpt lat="42.0838383" lon="11.8586236"><ele>178.33333333333334</ele><time>2026-04-18T09:01:41.053Z</time></trkpt><trkpt lat="42.0838483" lon="11.8587297"><ele>174.0</ele><time>2026-04-18T09:01:43.052Z</time></trkpt><trkpt lat="42.0838857" lon="11.8588437"><ele>172.79999999999998</ele><time>2026-04-18T09:01:45.056Z</time></trkpt><trkpt lat="42.0839677" lon="11.8589178"><ele>171.6</ele><time>2026-04-18T09:01:47.06Z</time></trkpt><trkpt lat="42.0840565" lon="11.859"><ele>170.4</ele><time>2026-04-18T09:01:49.054Z</time></trkpt><trkpt lat="42.0841308" lon="11.8591002"><ele>169.2</ele><time>2026-04-18T09:01:51.038Z</time></trkpt><trkpt lat="42.0842135" lon="11.8592167"><ele>168.0</ele><time>2026-04-18T09:01:53.043Z</time></trkpt><trkpt lat="42.0842804" lon="11.8593492"><ele>168.0</ele><time>2026-04-18T09:01:55.038Z</time></trkpt><trkpt lat="42.0843266" lon="11.8594795"><ele>168.0</ele><time>2026-04-18T09:01:57.045Z</time></trkpt><trkpt lat="42.0843642" lon="11.8595906"><ele>168.0</ele><time>2026-04-18T09:01:59.057Z</time></trkpt><trkpt lat="42.0844014" lon="11.859721"><ele>168.0</ele><time>2026-04-18T09:02:01.06Z</time></trkpt><trkpt lat="42.0844235" lon="11.8598576"><ele>168.0</ele><time>2026-04-18T09:02:03.045Z</time></trkpt><trkpt lat="42.0844247" lon="11.8599691"><ele>168.0</ele><time>2026-04-18T09:02:05.055Z</time></trkpt><trkpt lat="42.0844194" lon="11.8600827"><ele>168.0</ele><time>2026-04-18T09:02:07.048Z</time></trkpt><trkpt lat="42.0844734" lon="11.8601971"><ele>168.0</ele><time>2026-04-18T09:02:09.05Z</time></trkpt><trkpt lat="42.0845593" lon="11.860245"><ele>168.0</ele><time>2026-04-18T09:02:11.045Z</time></trkpt><trkpt lat="42.0846659" lon="11.8602294"><ele>168.0</ele><time>2026-04-18T09:02:13.043Z</time></trkpt><trkpt lat="42.0847723" lon="11.8602039"><ele>165.6</ele><time>2026-04-18T09:02:15.056Z</time></trkpt><trkpt lat="42.0848611" lon="11.860228"><ele>163.20000000000002</ele><time>2026-04-18T09:02:17.041Z</time></trkpt><trkpt lat="42.0849649" lon="11.8602845"><ele>160.8</ele><time>2026-04-18T09:02:19.034Z</time></trkpt><trkpt lat="42.0850777" lon="11.8602982"><ele>158.4</ele><time>2026-04-18T09:02:21.036Z</time></trkpt><trkpt lat="42.0851705" lon="11.8602997"><ele>156.0</ele><time>2026-04-18T09:02:23.043Z</time></trkpt><trkpt lat="42.0852594" lon="11.8603139"><ele>156.0</ele><time>2026-04-18T09:02:25.038Z</time></trkpt><trkpt lat="42.0853391" lon="11.8603528"><ele>156.0</ele><time>2026-04-18T09:02:27.037Z</time></trkpt><trkpt lat="42.0854201" lon="11.8604181"><ele>156.0</ele><time>2026-04-18T09:02:29.036Z</time></trkpt><trkpt lat="42.0855043" lon="11.8605369"><ele>156.0</ele><time>2026-04-18T09:02:31.024Z</time></trkpt><trkpt lat="42.0855651" lon="11.8606744"><ele>156.0</ele><time>2026-04-18T09:02:33.033Z</time></trkpt><trkpt lat="42.0856218" lon="11.8608123"><ele>156.0</ele><time>2026-04-18T09:02:35.035Z</time></trkpt><trkpt lat="42.085677" lon="11.8609366"><ele>156.0</ele><time>2026-04-18T09:02:37.051Z</time></trkpt><trkpt lat="42.0857201" lon="11.8609997"><ele>156.0</ele><time>2026-04-18T09:02:38.045Z</time></trkpt><trkpt lat="42.0857976" lon="11.8610878"><ele>156.0</ele><time>2026-04-18T09:02:40.047Z</time></trkpt><trkpt lat="42.0858701" lon="11.8611804"><ele>156.0</ele><time>2026-04-18T09:02:42.051Z</time></trkpt><trkpt lat="42.085926" lon="11.86124"><ele>156.0</ele><time>2026-04-18T09:02:43.069Z</time></trkpt><trkpt lat="42.0859763" lon="11.8613058"><ele>155.16666666666666</ele><time>2026-04-18T09:02:44.053Z</time></trkpt><trkpt lat="42.0860229" lon="11.8613708"><ele>154.33333333333334</ele><time>2026-04-18T09:02:45.053Z</time></trkpt><trkpt lat="42.0860753" lon="11.8614891"><ele>153.5</ele><time>2026-04-18T09:02:47.049Z</time></trkpt><trkpt lat="42.0861369" lon="11.8615866"><ele>152.66666666666669</ele><time>2026-04-18T09:02:49.046Z</time></trkpt><trkpt lat="42.0861819" lon="11.8616474"><ele>151.83333333333334</ele><time>2026-04-18T09:02:50.05Z</time></trkpt><trkpt lat="42.0862574" lon="11.8617568"><ele>151.0</ele><time>2026-04-18T09:02:52.058Z</time></trkpt><trkpt lat="42.0863018" lon="11.8618716"><ele>149.5</ele><time>2026-04-18T09:02:54.071Z</time></trkpt><trkpt lat="42.0862966" lon="11.8619908"><ele>148.0</ele><time>2026-04-18T09:02:56.067Z</time></trkpt><trkpt lat="42.086273" lon="11.8620955"><ele>146.5</ele><time>2026-04-18T09:02:58.057Z</time></trkpt><trkpt lat="42.0862282" lon="11.8621977"><ele>145.0</ele><time>2026-04-18T09:03:00.057Z</time></trkpt><trkpt lat="42.0861928" lon="11.8623211"><ele>143.5</ele><time>2026-04-18T09:03:02.054Z</time></trkpt><trkpt lat="42.0861724" lon="11.8624438"><ele>142.0</ele><time>2026-04-18T09:03:04.043Z</time></trkpt><trkpt lat="42.0861511" lon="11.8625532"><ele>141.33333333333334</ele><time>2026-04-18T09:03:06.043Z</time></trkpt><trkpt lat="42.086119" lon="11.8626664"><ele>140.66666666666669</ele><time>2026-04-18T09:03:08.047Z</time></trkpt><trkpt lat="42.0860666" lon="11.8627446"><ele>140.0</ele><time>2026-04-18T09:03:10.047Z</time></trkpt><trkpt lat="42.0859804" lon="11.8627686"><ele>139.33333333333334</ele><time>2026-04-18T09:03:13.046Z</time></trkpt><trkpt lat="42.0858868" lon="11.8627365"><ele>138.66666666666666</ele><time>2026-04-18T09:03:23.051Z</time></trkpt><trkpt lat="42.0858096" lon="11.8627527"><ele>138.0</ele><time>2026-04-18T09:03:25.057Z</time></trkpt><trkpt lat="42.0856948" lon="11.8627593"><ele>136.8</ele><time>2026-04-18T09:03:27.047Z</time></trkpt><trkpt lat="42.0856293" lon="11.8627581"><ele>135.60000000000002</ele><time>2026-04-18T09:03:28.044Z</time></trkpt><trkpt lat="42.0855217" lon="11.8627277"><ele>134.39999999999998</ele><time>2026-04-18T09:03:30.037Z</time></trkpt><trkpt lat="42.0854613" lon="11.8626284"><ele>133.2</ele><time>2026-04-18T09:03:32.05Z</time></trkpt><trkpt lat="42.0853883" lon="11.8625156"><ele>132.0</ele><time>2026-04-18T09:03:34.035Z</time></trkpt><trkpt lat="42.0853311" lon="11.8624653"><ele>132.0</ele><time>2026-04-18T09:03:35.027Z</time></trkpt><trkpt lat="42.085267" lon="11.8624301"><ele>132.0</ele><time>2026-04-18T09:03:36.032Z</time></trkpt><trkpt lat="42.0851991" lon="11.8623963"><ele>132.0</ele><time>2026-04-18T09:03:37.026Z</time></trkpt><trkpt lat="42.0850732" lon="11.862362"><ele>132.0</ele><time>2026-04-18T09:03:39.026Z</time></trkpt><trkpt lat="42.0849679" lon="11.8623288"><ele>132.0</ele><time>2026-04-18T09:03:41.031Z</time></trkpt><trkpt lat="42.0848478" lon="11.8623426"><ele>130.5</ele><time>2026-04-18T09:03:43.035Z</time></trkpt><trkpt lat="42.0847819" lon="11.8623341"><ele>129.0</ele><time>2026-04-18T09:03:44.032Z</time></trkpt><trkpt lat="42.0847218" lon="11.8623065"><ele>127.5</ele><time>2026-04-18T09:03:45.028Z</time></trkpt><trkpt lat="42.0846373" lon="11.86223"><ele>126.0</ele><time>2026-04-18T09:03:47.028Z</time></trkpt><trkpt lat="42.0845966" lon="11.8621143"><ele>124.5</ele><time>2026-04-18T09:04:12.028Z</time></trkpt><trkpt lat="42.0845027" lon="11.8620606"><ele>123.0</ele><time>2026-04-18T09:04:14.038Z</time></trkpt><trkpt lat="42.0844337" lon="11.8620426"><ele>123.0</ele><time>2026-04-18T09:04:15.039Z</time></trkpt><trkpt lat="42.0843542" lon="11.8619906"><ele>123.0</ele><time>2026-04-18T09:04:17.043Z</time></trkpt><trkpt lat="42.0842829" lon="11.8619628"><ele>123.0</ele><time>2026-04-18T09:04:19.036Z</time></trkpt><trkpt lat="42.0841964" lon="11.8619583"><ele>123.0</ele><time>2026-04-18T09:04:21.036Z</time></trkpt><trkpt lat="42.0841202" lon="11.8619529"><ele>123.0</ele><time>2026-04-18T09:04:23.058Z</time></trkpt><trkpt lat="42.0840628" lon="11.861904"><ele>123.0</ele><time>2026-04-18T09:04:25.05Z</time></trkpt><trkpt lat="42.0839819" lon="11.8618293"><ele>122.33333333333333</ele><time>2026-04-18T09:04:27.052Z</time></trkpt><trkpt lat="42.083925" lon="11.8617192"><ele>121.66666666666666</ele><time>2026-04-18T09:04:29.042Z</time></trkpt><trkpt lat="42.0839027" lon="11.8616338"><ele>121.0</ele><time>2026-04-18T09:04:41.035Z</time></trkpt><trkpt lat="42.0838282" lon="11.8615483"><ele>120.33333333333333</ele><time>2026-04-18T09:04:44.038Z</time></trkpt><trkpt lat="42.083774" lon="11.8614717"><ele>119.66666666666666</ele><time>2026-04-18T09:04:46.026Z</time></trkpt><trkpt lat="42.0837096" lon="11.8614024"><ele>119.0</ele><time>2026-04-18T09:04:48.034Z</time></trkpt><trkpt lat="42.08363" lon="11.8613362"><ele>118.99999999999999</ele><time>2026-04-18T09:04:50.047Z</time></trkpt><trkpt lat="42.0835377" lon="11.8612904"><ele>119.0</ele><time>2026-04-18T09:04:52.043Z</time></trkpt><trkpt lat="42.0834701" lon="11.8613681"><ele>119.0</ele><time>2026-04-18T09:05:30.04Z</time></trkpt><trkpt lat="42.0834363" lon="11.8614484"><ele>119.0</ele><time>2026-04-18T09:06:45.02Z</time></trkpt><trkpt lat="42.0834085" lon="11.861531"><ele>118.99999999999999</ele><time>2026-04-18T09:06:51.017Z</time></trkpt><trkpt lat="42.0834664" lon="11.8614491"><ele>119.0</ele><time>2026-04-18T09:07:03.019Z</time></trkpt><trkpt lat="42.0834636" lon="11.8613406"><ele>118.99999999999999</ele><time>2026-04-18T09:07:06.039Z</time></trkpt><trkpt lat="42.0833927" lon="11.8612717"><ele>119.0</ele><time>2026-04-18T09:07:09.04Z</time></trkpt><trkpt lat="42.0833261" lon="11.8612829"><ele>119.0</ele><time>2026-04-18T09:07:11.034Z</time></trkpt><trkpt lat="42.0832558" lon="11.8613521"><ele>119.0</ele><time>2026-04-18T09:07:13.036Z</time></trkpt><trkpt lat="42.0831795" lon="11.861392"><ele>118.99999999999999</ele><time>2026-04-18T09:07:15.038Z</time></trkpt><trkpt lat="42.0831124" lon="11.8613922"><ele>119.0</ele><time>2026-04-18T09:07:18.041Z</time></trkpt><trkpt lat="42.0830408" lon="11.8613609"><ele>117.99999999999999</ele><time>2026-04-18T09:07:27.04Z</time></trkpt><trkpt lat="42.0829853" lon="11.8613075"><ele>117.0</ele><time>2026-04-18T09:07:30.037Z</time></trkpt><trkpt lat="42.0828974" lon="11.8612797"><ele>116.0</ele><time>2026-04-18T09:08:02.045Z</time></trkpt><trkpt lat="42.0828079" lon="11.8612808"><ele>115.0</ele><time>2026-04-18T09:08:04.04Z</time></trkpt><trkpt lat="42.0826971" lon="11.8613202"><ele>113.99999999999999</ele><time>2026-04-18T09:08:06.045Z</time></trkpt><trkpt lat="42.0826103" lon="11.8613205"><ele>113.0</ele><time>2026-04-18T09:08:08.039Z</time></trkpt><trkpt lat="42.0825012" lon="11.8613198"><ele>111.99999999999999</ele><time>2026-04-18T09:08:10.042Z</time></trkpt><trkpt lat="42.0824036" lon="11.8613042"><ele>111.0</ele><time>2026-04-18T09:08:12.035Z</time></trkpt><trkpt lat="42.0823366" lon="11.8612649"><ele>110.0</ele><time>2026-04-18T09:08:14.027Z</time></trkpt><trkpt lat="42.0822592" lon="11.8611414"><ele>109.0</ele><time>2026-04-18T09:08:16.021Z</time></trkpt><trkpt lat="42.0822152" lon="11.8610738"><ele>107.99999999999999</ele><time>2026-04-18T09:08:17.022Z</time></trkpt><trkpt lat="42.0821468" lon="11.8610004"><ele>107.0</ele><time>2026-04-18T09:08:19.025Z</time></trkpt><trkpt lat="42.0820765" lon="11.8609606"><ele>107.0</ele><time>2026-04-18T09:08:23.032Z</time></trkpt><trkpt lat="42.0820609" lon="11.8610697"><ele>106.99999999999999</ele><time>2026-04-18T09:09:07.024Z</time></trkpt><trkpt lat="42.0820718" lon="11.8611634"><ele>106.99999999999999</ele><time>2026-04-18T09:09:09.02Z</time></trkpt><trkpt lat="42.0821695" lon="11.8611495"><ele>107.0</ele><time>2026-04-18T09:09:11.012Z</time></trkpt><trkpt lat="42.0822563" lon="11.8611899"><ele>107.0</ele><time>2026-04-18T09:09:12.024Z</time></trkpt><trkpt lat="42.0823438" lon="11.8613008"><ele>108.19999999999999</ele><time>2026-04-18T09:09:13.033Z</time></trkpt><trkpt lat="42.0824498" lon="11.8613895"><ele>109.39999999999999</ele><time>2026-04-18T09:09:15.027Z</time></trkpt><trkpt lat="42.0825145" lon="11.8614293"><ele>110.60000000000001</ele><time>2026-04-18T09:09:16.031Z</time></trkpt><trkpt lat="42.0826252" lon="11.8614149"><ele>111.80000000000001</ele><time>2026-04-18T09:09:18.034Z</time></trkpt><trkpt lat="42.0826939" lon="11.8613759"><ele>113.0</ele><time>2026-04-18T09:09:19.033Z</time></trkpt><trkpt lat="42.0827617" lon="11.8613505"><ele>112.99999999999999</ele><time>2026-04-18T09:09:20.027Z</time></trkpt><trkpt lat="42.0828484" lon="11.8613017"><ele>113.0</ele><time>2026-04-18T09:09:22.033Z</time></trkpt><trkpt lat="42.0829162" lon="11.8613127"><ele>113.0</ele><time>2026-04-18T09:10:02.052Z</time></trkpt><trkpt lat="42.0829498" lon="11.8613894"><ele>113.0</ele><time>2026-04-18T09:10:05.057Z</time></trkpt><trkpt lat="42.0829826" lon="11.8615094"><ele>112.99999999999999</ele><time>2026-04-18T09:10:07.055Z</time></trkpt><trkpt lat="42.0830112" lon="11.8616425"><ele>113.0</ele><time>2026-04-18T09:10:09.057Z</time></trkpt><trkpt lat="42.0830205" lon="11.8617699"><ele>111.33333333333333</ele><time>2026-04-18T09:10:11.059Z</time></trkpt><trkpt lat="42.0830455" lon="11.8618751"><ele>109.66666666666666</ele><time>2026-04-18T09:10:13.054Z</time></trkpt><trkpt lat="42.0830727" lon="11.8619834"><ele>108.0</ele><time>2026-04-18T09:10:15.052Z</time></trkpt><trkpt lat="42.0830964" lon="11.8620938"><ele>106.33333333333334</ele><time>2026-04-18T09:10:17.053Z</time></trkpt><trkpt lat="42.0831184" lon="11.8622089"><ele>104.66666666666667</ele><time>2026-04-18T09:10:19.051Z</time></trkpt><trkpt lat="42.083123" lon="11.8623103"><ele>103.0</ele><time>2026-04-18T09:10:21.041Z</time></trkpt><trkpt lat="42.083085" lon="11.8624146"><ele>102.99999999999999</ele><time>2026-04-18T09:10:24.042Z</time></trkpt><trkpt lat="42.0830744" lon="11.8625157"><ele>103.0</ele><time>2026-04-18T09:10:26.031Z</time></trkpt><trkpt lat="42.0831246" lon="11.8625724"><ele>103.0</ele><time>2026-04-18T09:10:28.039Z</time></trkpt><trkpt lat="42.0831894" lon="11.862645"><ele>103.0</ele><time>2026-04-18T09:10:32.051Z</time></trkpt><trkpt lat="42.083192" lon="11.8627423"><ele>103.0</ele><time>2026-04-18T09:10:46.051Z</time></trkpt><trkpt lat="42.0831943" lon="11.862833"><ele>102.99999999999999</ele><time>2026-04-18T09:10:49.048Z</time></trkpt><trkpt lat="42.0831677" lon="11.8629173"><ele>103.0</ele><time>2026-04-18T09:10:52.061Z</time></trkpt><trkpt lat="42.0831728" lon="11.8630199"><ele>102.57142857142857</ele><time>2026-04-18T09:10:54.063Z</time></trkpt><trkpt lat="42.0831921" lon="11.8631107"><ele>102.14285714285714</ele><time>2026-04-18T09:10:56.053Z</time></trkpt><trkpt lat="42.0831933" lon="11.8632053"><ele>101.71428571428572</ele><time>2026-04-18T09:10:58.055Z</time></trkpt><trkpt lat="42.08319" lon="11.8633159"><ele>101.28571428571428</ele><time>2026-04-18T09:11:01.055Z</time></trkpt><trkpt lat="42.0831892" lon="11.8634118"><ele>100.85714285714286</ele><time>2026-04-18T09:11:04.048Z</time></trkpt><trkpt lat="42.0832168" lon="11.8634926"><ele>100.42857142857143</ele><time>2026-04-18T09:11:06.054Z</time></trkpt><trkpt lat="42.0832653" lon="11.8635588"><ele>100.0</ele><time>2026-04-18T09:11:08.05Z</time></trkpt><trkpt lat="42.0832965" lon="11.8636536"><ele>100.0</ele><time>2026-04-18T09:11:10.048Z</time></trkpt><trkpt lat="42.0833043" lon="11.8637905"><ele>100.0</ele><time>2026-04-18T09:11:12.042Z</time></trkpt><trkpt lat="42.0832992" lon="11.863937"><ele>100.0</ele><time>2026-04-18T09:11:14.042Z</time></trkpt><trkpt lat="42.0833118" lon="11.8640708"><ele>100.0</ele><time>2026-04-18T09:11:16.043Z</time></trkpt><trkpt lat="42.0833451" lon="11.8642109"><ele>100.0</ele><time>2026-04-18T09:11:18.047Z</time></trkpt><trkpt lat="42.0833782" lon="11.8643607"><ele>99.50000000000001</ele><time>2026-04-18T09:11:20.049Z</time></trkpt><trkpt lat="42.0833888" lon="11.8644823"><ele>99.0</ele><time>2026-04-18T09:11:22.037Z</time></trkpt><trkpt lat="42.083308" lon="11.8644694"><ele>98.5</ele><time>2026-04-18T09:11:44.034Z</time></trkpt><trkpt lat="42.0832244" lon="11.8644668"><ele>98.0</ele><time>2026-04-18T09:11:46.042Z</time></trkpt><trkpt lat="42.0831539" lon="11.864469"><ele>97.50000000000001</ele><time>2026-04-18T09:11:47.043Z</time></trkpt><trkpt lat="42.0830524" lon="11.8645218"><ele>97.0</ele><time>2026-04-18T09:11:49.032Z</time></trkpt><trkpt lat="42.0829968" lon="11.8645916"><ele>97.00000000000001</ele><time>2026-04-18T09:11:51.044Z</time></trkpt><trkpt lat="42.0830547" lon="11.8646771"><ele>97.0</ele><time>2026-04-18T09:12:00.049Z</time></trkpt><trkpt lat="42.0830603" lon="11.8648003"><ele>97.0</ele><time>2026-04-18T09:12:02.051Z</time></trkpt><trkpt lat="42.0830257" lon="11.8648785"><ele>97.0</ele><time>2026-04-18T09:12:04.05Z</time></trkpt><trkpt lat="42.0830127" lon="11.864971"><ele>97.00000000000001</ele><time>2026-04-18T09:12:11.03Z</time></trkpt><trkpt lat="42.0830751" lon="11.8649349"><ele>97.0</ele><time>2026-04-18T09:12:52.018Z</time></trkpt><trkpt lat="42.0831228" lon="11.8650037"><ele>97.0</ele><time>2026-04-18T09:13:04.006Z</time></trkpt><trkpt lat="42.0831013" lon="11.8651023"><ele>97.0</ele><time>2026-04-18T09:13:06.999Z</time></trkpt><trkpt lat="42.0831635" lon="11.8651993"><ele>97.0</ele><time>2026-04-18T09:13:09Z</time></trkpt><trkpt lat="42.083192" lon="11.8650496"><ele>97.0</ele><time>2026-04-18T09:13:14Z</time></trkpt><trkpt lat="42.0832052" lon="11.8649336"><ele>97.0</ele><time>2026-04-18T09:13:14.998Z</time></trkpt><trkpt lat="42.0832021" lon="11.8648039"><ele>97.00000000000001</ele><time>2026-04-18T09:13:16.002Z</time></trkpt><trkpt lat="42.0832258" lon="11.8646428"><ele>97.0</ele><time>2026-04-18T09:13:18.018Z</time></trkpt><trkpt lat="42.0831536" lon="11.8646207"><ele>97.0</ele><time>2026-04-18T09:13:21.009Z</time></trkpt><trkpt lat="42.0831831" lon="11.8647103"><ele>97.0</ele><time>2026-04-18T09:13:29.006Z</time></trkpt><trkpt lat="42.0832083" lon="11.8647946"><ele>97.00000000000001</ele><time>2026-04-18T09:13:30.013Z</time></trkpt><trkpt lat="42.0832229" lon="11.8648839"><ele>97.0</ele><time>2026-04-18T09:13:35.035Z</time></trkpt><trkpt lat="42.0832288" lon="11.8649758"><ele>97.00000000000001</ele><time>2026-04-18T09:13:59.035Z</time></trkpt><trkpt lat="42.0832786" lon="11.8650598"><ele>97.0</ele><time>2026-04-18T09:16:58.956Z</time></trkpt><trkpt lat="42.0832155" lon="11.8649048"><ele>97.0</ele><time>2026-04-18T09:17:16.979Z</time></trkpt><trkpt lat="42.0832785" lon="11.8648063"><ele>97.0</ele><time>2026-04-18T09:17:18.969Z</time></trkpt><trkpt lat="42.0833143" lon="11.8647364"><ele>97.00000000000001</ele><time>2026-04-18T09:17:19.973Z</time></trkpt><trkpt lat="42.083354" lon="11.864652"><ele>97.0</ele><time>2026-04-18T09:17:21.993Z</time></trkpt><trkpt lat="42.0833568" lon="11.8648906"><ele>97.50000000000001</ele><time>2026-04-18T09:17:25.014Z</time></trkpt><trkpt lat="42.0833656" lon="11.8650141"><ele>98.0</ele><time>2026-04-18T09:17:26.022Z</time></trkpt><trkpt lat="42.0833773" lon="11.8651082"><ele>98.5</ele><time>2026-04-18T09:17:31.029Z</time></trkpt><trkpt lat="42.0834366" lon="11.8651467"><ele>99.0</ele><time>2026-04-18T09:17:33.043Z</time></trkpt><trkpt lat="42.0835068" lon="11.865222"><ele>99.50000000000001</ele><time>2026-04-18T09:17:35.027Z</time></trkpt><trkpt lat="42.0835464" lon="11.8653163"><ele>100.0</ele><time>2026-04-18T09:17:37.043Z</time></trkpt><trkpt lat="42.0835748" lon="11.8654019"><ele>100.00000000000001</ele><time>2026-04-18T09:19:42.045Z</time></trkpt><trkpt lat="42.0835526" lon="11.8654935"><ele>100.0</ele><time>2026-04-18T09:19:47.045Z</time></trkpt><trkpt lat="42.0835607" lon="11.8656"><ele>100.0</ele><time>2026-04-18T09:19:49.045Z</time></trkpt><trkpt lat="42.0835547" lon="11.8657193"><ele>100.0</ele><time>2026-04-18T09:19:52.066Z</time></trkpt><trkpt lat="42.083543" lon="11.8658046"><ele>100.00000000000001</ele><time>2026-04-18T09:19:54.059Z</time></trkpt><trkpt lat="42.0834524" lon="11.865757"><ele>100.0</ele><time>2026-04-18T09:19:58.059Z</time></trkpt><trkpt lat="42.0833826" lon="11.8656928"><ele>100.00000000000001</ele><time>2026-04-18T09:20:00.069Z</time></trkpt><trkpt lat="42.0833403" lon="11.8657804"><ele>100.0</ele><time>2026-04-18T09:20:23.053Z</time></trkpt><trkpt lat="42.083348" lon="11.865685"><ele>100.0</ele><time>2026-04-18T09:28:42.064Z</time></trkpt><trkpt lat="42.0833395" lon="11.8655563"><ele>100.0</ele><time>2026-04-18T09:28:46.016Z</time></trkpt><trkpt lat="42.0833719" lon="11.8654447"><ele>100.00000000000001</ele><time>2026-04-18T09:28:48Z</time></trkpt><trkpt lat="42.0833436" lon="11.8655358"><ele>100.0</ele><time>2026-04-18T09:29:05.048Z</time></trkpt><trkpt lat="42.0833068" lon="11.8656189"><ele>100.00000000000001</ele><time>2026-04-18T09:29:23.075Z</time></trkpt><trkpt lat="42.0832726" lon="11.8656978"><ele>100.0</ele><time>2026-04-18T09:30:18.058Z</time></trkpt><trkpt lat="42.0832181" lon="11.8657756"><ele>100.0</ele><time>2026-04-18T09:30:21.049Z</time></trkpt><trkpt lat="42.0831692" lon="11.8658897"><ele>100.0</ele><time>2026-04-18T09:30:23.05Z</time></trkpt><trkpt lat="42.0831517" lon="11.8660156"><ele>100.00000000000001</ele><time>2026-04-18T09:30:25.037Z</time></trkpt><trkpt lat="42.0831196" lon="11.8661038"><ele>100.0</ele><time>2026-04-18T09:30:27.038Z</time></trkpt><trkpt lat="42.0830668" lon="11.8661706"><ele>103.66666666666667</ele><time>2026-04-18T09:30:29.049Z</time></trkpt><trkpt lat="42.0829934" lon="11.8662174"><ele>107.33333333333334</ele><time>2026-04-18T09:30:31.05Z</time></trkpt><trkpt lat="42.082929" lon="11.8662533"><ele>111.0</ele><time>2026-04-18T09:30:33.063Z</time></trkpt><trkpt lat="42.0829071" lon="11.8661719"><ele>114.66666666666666</ele><time>2026-04-18T09:31:07.015Z</time></trkpt><trkpt lat="42.0828415" lon="11.8661113"><ele>118.33333333333333</ele><time>2026-04-18T09:31:10.002Z</time></trkpt><trkpt lat="42.0827575" lon="11.866136"><ele>122.0</ele><time>2026-04-18T09:31:11.02Z</time></trkpt><trkpt lat="42.0826611" lon="11.8661583"><ele>122.0</ele><time>2026-04-18T09:31:12.003Z</time></trkpt><trkpt lat="42.0825534" lon="11.8662008"><ele>121.99999999999999</ele><time>2026-04-18T09:31:13.017Z</time></trkpt><trkpt lat="42.082463" lon="11.8662216"><ele>121.99999999999999</ele><time>2026-04-18T09:31:14.013Z</time></trkpt><trkpt lat="42.0823538" lon="11.8662494"><ele>122.0</ele><time>2026-04-18T09:31:16.025Z</time></trkpt><trkpt lat="42.0822696" lon="11.8662075"><ele>122.0</ele><time>2026-04-18T09:31:18.01Z</time></trkpt><trkpt lat="42.0822368" lon="11.8655699"><ele>122.28571428571428</ele><time>2026-04-18T09:31:51.041Z</time></trkpt><trkpt lat="42.082213" lon="11.8654874"><ele>122.57142857142857</ele><time>2026-04-18T09:31:53.031Z</time></trkpt><trkpt lat="42.0821445" lon="11.8654541"><ele>122.85714285714286</ele><time>2026-04-18T09:31:55.029Z</time></trkpt><trkpt lat="42.0820779" lon="11.8654097"><ele>123.14285714285714</ele><time>2026-04-18T09:31:57.031Z</time></trkpt><trkpt lat="42.0820413" lon="11.8654796"><ele>123.42857142857144</ele><time>2026-04-18T09:32:09.046Z</time></trkpt><trkpt lat="42.0819918" lon="11.865562"><ele>123.71428571428572</ele><time>2026-04-18T09:33:14.043Z</time></trkpt><trkpt lat="42.0819016" lon="11.865568"><ele>124.0</ele><time>2026-04-18T09:33:17.04Z</time></trkpt><trkpt lat="42.0818038" lon="11.865532"><ele>124.00000000000001</ele><time>2026-04-18T09:33:19.055Z</time></trkpt><trkpt lat="42.0816986" lon="11.8654575"><ele>124.0</ele><time>2026-04-18T09:33:21.046Z</time></trkpt><trkpt lat="42.0815889" lon="11.8654082"><ele>124.0</ele><time>2026-04-18T09:33:23.056Z</time></trkpt><trkpt lat="42.0815115" lon="11.8654153"><ele>124.0</ele><time>2026-04-18T09:33:26.049Z</time></trkpt><trkpt lat="42.0814473" lon="11.8654513"><ele>124.00000000000001</ele><time>2026-04-18T09:33:40.048Z</time></trkpt><trkpt lat="42.0813883" lon="11.865488"><ele>124.0</ele><time>2026-04-18T09:33:42.047Z</time></trkpt><trkpt lat="42.0813247" lon="11.8655128"><ele>125.2</ele><time>2026-04-18T09:33:44.06Z</time></trkpt><trkpt lat="42.0812736" lon="11.8655798"><ele>126.4</ele><time>2026-04-18T09:33:48.057Z</time></trkpt><trkpt lat="42.0812049" lon="11.8655982"><ele>127.6</ele><time>2026-04-18T09:35:14.003Z</time></trkpt><trkpt lat="42.0810676" lon="11.8655655"><ele>128.8</ele><time>2026-04-18T09:35:15.985Z</time></trkpt><trkpt lat="42.0809853" lon="11.8655595"><ele>130.0</ele><time>2026-04-18T09:35:16.997Z</time></trkpt><trkpt lat="42.0808481" lon="11.8656123"><ele>130.0</ele><time>2026-04-18T09:35:18.982Z</time></trkpt><trkpt lat="42.0807897" lon="11.8655506"><ele>130.0</ele><time>2026-04-18T09:35:24.018Z</time></trkpt><trkpt lat="42.0807099" lon="11.8655214"><ele>130.0</ele><time>2026-04-18T09:35:27.013Z</time></trkpt><trkpt lat="42.0807883" lon="11.8655304"><ele>130.0</ele><time>2026-04-18T09:35:32.017Z</time></trkpt><trkpt lat="42.0809097" lon="11.8655611"><ele>130.0</ele><time>2026-04-18T09:35:56.026Z</time></trkpt><trkpt lat="42.0809744" lon="11.8655519"><ele>130.0</ele><time>2026-04-18T09:40:24.021Z</time></trkpt><trkpt lat="42.0809128" lon="11.86552"><ele>130.0</ele><time>2026-04-18T09:41:24.027Z</time></trkpt><trkpt lat="42.0808379" lon="11.8655561"><ele>130.0</ele><time>2026-04-18T09:41:26.031Z</time></trkpt><trkpt lat="42.0807671" lon="11.8655858"><ele>130.0</ele><time>2026-04-18T09:41:28.025Z</time></trkpt><trkpt lat="42.0806807" lon="11.8656533"><ele>130.0</ele><time>2026-04-18T09:41:30.017Z</time></trkpt><trkpt lat="42.0805838" lon="11.8657263"><ele>130.0</ele><time>2026-04-18T09:41:32.034Z</time></trkpt><trkpt lat="42.0804697" lon="11.8657556"><ele>131.0</ele><time>2026-04-18T09:41:34.03Z</time></trkpt><trkpt lat="42.0804036" lon="11.8657561"><ele>132.0</ele><time>2026-04-18T09:41:35.027Z</time></trkpt><trkpt lat="42.080282" lon="11.8657851"><ele>133.0</ele><time>2026-04-18T09:41:37.029Z</time></trkpt><trkpt lat="42.0801656" lon="11.865814"><ele>134.0</ele><time>2026-04-18T09:41:39.022Z</time></trkpt><trkpt lat="42.0800702" lon="11.8658448"><ele>135.0</ele><time>2026-04-18T09:41:41.032Z</time></trkpt><trkpt lat="42.0800015" lon="11.8658312"><ele>134.16666666666666</ele><time>2026-04-18T09:41:45.017Z</time></trkpt><trkpt lat="42.0799236" lon="11.865813"><ele>133.33333333333334</ele><time>2026-04-18T09:41:47.03Z</time></trkpt><trkpt lat="42.0798302" lon="11.8658669"><ele>132.5</ele><time>2026-04-18T09:41:49.022Z</time></trkpt><trkpt lat="42.0797595" lon="11.8659594"><ele>131.66666666666669</ele><time>2026-04-18T09:41:51.014Z</time></trkpt><trkpt lat="42.0797645" lon="11.8660536"><ele>130.83333333333334</ele><time>2026-04-18T09:41:54.03Z</time></trkpt><trkpt lat="42.0797169" lon="11.8661518"><ele>130.0</ele><time>2026-04-18T09:41:55.025Z</time></trkpt><trkpt lat="42.079698" lon="11.8662943"><ele>132.2</ele><time>2026-04-18T09:41:57.006Z</time></trkpt><trkpt lat="42.0797133" lon="11.8664233"><ele>134.4</ele><time>2026-04-18T09:41:59.014Z</time></trkpt><trkpt lat="42.0797727" lon="11.8665221"><ele>136.6</ele><time>2026-04-18T09:42:01.006Z</time></trkpt><trkpt lat="42.0798886" lon="11.866537"><ele>138.8</ele><time>2026-04-18T09:42:03.022Z</time></trkpt><trkpt lat="42.0799705" lon="11.8665277"><ele>141.0</ele><time>2026-04-18T09:42:04.025Z</time></trkpt><trkpt lat="42.0800427" lon="11.8665299"><ele>141.66666666666666</ele><time>2026-04-18T09:42:05.02Z</time></trkpt><trkpt lat="42.080105" lon="11.8665452"><ele>142.33333333333334</ele><time>2026-04-18T09:42:06.027Z</time></trkpt><trkpt lat="42.0801892" lon="11.866598"><ele>143.0</ele><time>2026-04-18T09:42:08.02Z</time></trkpt><trkpt lat="42.0802568" lon="11.8666771"><ele>143.66666666666669</ele><time>2026-04-18T09:42:10.022Z</time></trkpt><trkpt lat="42.0802826" lon="11.8667758"><ele>144.33333333333334</ele><time>2026-04-18T09:42:12.022Z</time></trkpt><trkpt lat="42.0802755" lon="11.8668805"><ele>145.0</ele><time>2026-04-18T09:42:14.021Z</time></trkpt><trkpt lat="42.0802666" lon="11.8669776"><ele>146.6</ele><time>2026-04-18T09:42:16.016Z</time></trkpt><trkpt lat="42.080237" lon="11.8670915"><ele>148.2</ele><time>2026-04-18T09:42:19.019Z</time></trkpt><trkpt lat="42.080218" lon="11.8672053"><ele>149.8</ele><time>2026-04-18T09:42:21.022Z</time></trkpt><trkpt lat="42.0802132" lon="11.8673356"><ele>151.4</ele><time>2026-04-18T09:42:23.025Z</time></trkpt><trkpt lat="42.0802173" lon="11.8674737"><ele>153.0</ele><time>2026-04-18T09:42:25.024Z</time></trkpt><trkpt lat="42.0802251" lon="11.8675847"><ele>154.0</ele><time>2026-04-18T09:42:27.019Z</time></trkpt><trkpt lat="42.0802233" lon="11.8676764"><ele>155.0</ele><time>2026-04-18T09:42:29.024Z</time></trkpt><trkpt lat="42.0802212" lon="11.8677857"><ele>156.0</ele><time>2026-04-18T09:42:31.031Z</time></trkpt><trkpt lat="42.0802249" lon="11.8679075"><ele>157.0</ele><time>2026-04-18T09:42:33.033Z</time></trkpt><trkpt lat="42.0802006" lon="11.868033"><ele>158.0</ele><time>2026-04-18T09:42:35.006Z</time></trkpt><trkpt lat="42.0801404" lon="11.8681568"><ele>159.0</ele><time>2026-04-18T09:42:37.015Z</time></trkpt><trkpt lat="42.0800749" lon="11.8682809"><ele>159.0</ele><time>2026-04-18T09:42:39.013Z</time></trkpt><trkpt lat="42.0800294" lon="11.8683534"><ele>159.0</ele><time>2026-04-18T09:42:41.014Z</time></trkpt><trkpt lat="42.0799843" lon="11.8684276"><ele>159.0</ele><time>2026-04-18T09:42:43.011Z</time></trkpt><trkpt lat="42.0799336" lon="11.8685651"><ele>159.0</ele><time>2026-04-18T09:42:45.011Z</time></trkpt><trkpt lat="42.0798806" lon="11.8687086"><ele>159.0</ele><time>2026-04-18T09:42:47.009Z</time></trkpt><trkpt lat="42.0798268" lon="11.8688459"><ele>160.8</ele><time>2026-04-18T09:42:49.002Z</time></trkpt><trkpt lat="42.0797669" lon="11.8689655"><ele>162.60000000000002</ele><time>2026-04-18T09:42:51.023Z</time></trkpt><trkpt lat="42.0797149" lon="11.8690791"><ele>164.4</ele><time>2026-04-18T09:42:53.01Z</time></trkpt><trkpt lat="42.0796655" lon="11.8691786"><ele>166.20000000000002</ele><time>2026-04-18T09:42:55.01Z</time></trkpt><trkpt lat="42.0796274" lon="11.8692751"><ele>168.0</ele><time>2026-04-18T09:42:58.009Z</time></trkpt><trkpt lat="42.079608" lon="11.8691131"><ele>168.0</ele><time>2026-04-18T09:43:35.996Z</time></trkpt><trkpt lat="42.0796429" lon="11.8691845"><ele>168.0</ele><time>2026-04-18T10:01:08.001Z</time></trkpt><trkpt lat="42.0797087" lon="11.8692447"><ele>168.0</ele><time>2026-04-18T10:01:12.941Z</time></trkpt><trkpt lat="42.0797673" lon="11.8692934"><ele>168.0</ele><time>2026-04-18T10:01:20.947Z</time></trkpt><trkpt lat="42.0798296" lon="11.869348"><ele>168.0</ele><time>2026-04-18T10:01:27.955Z</time></trkpt><trkpt lat="42.0799053" lon="11.8692632"><ele>168.0</ele><time>2026-04-18T10:01:29.992Z</time></trkpt><trkpt lat="42.0798911" lon="11.8691764"><ele>168.0</ele><time>2026-04-18T10:01:34.016Z</time></trkpt><trkpt lat="42.0798284" lon="11.8692206"><ele>168.0</ele><time>2026-04-18T10:01:38.015Z</time></trkpt><trkpt lat="42.0797601" lon="11.8692115"><ele>168.0</ele><time>2026-04-18T10:01:43.019Z</time></trkpt><trkpt lat="42.0796913" lon="11.8692075"><ele>168.0</ele><time>2026-04-18T10:01:45.998Z</time></trkpt><trkpt lat="42.0796017" lon="11.8692213"><ele>168.0</ele><time>2026-04-18T10:01:48Z</time></trkpt><trkpt lat="42.0795339" lon="11.869248"><ele>168.0</ele><time>2026-04-18T10:01:50.012Z</time></trkpt><trkpt lat="42.0795128" lon="11.8694015"><ele>169.66666666666666</ele><time>2026-04-18T10:01:56.018Z</time></trkpt><trkpt lat="42.0794713" lon="11.8695237"><ele>171.33333333333334</ele><time>2026-04-18T10:01:58.024Z</time></trkpt><trkpt lat="42.0794348" lon="11.8696361"><ele>173.0</ele><time>2026-04-18T10:02:00.026Z</time></trkpt><trkpt lat="42.0794165" lon="11.8697321"><ele>174.66666666666669</ele><time>2026-04-18T10:02:02.026Z</time></trkpt><trkpt lat="42.0794098" lon="11.8698504"><ele>176.33333333333334</ele><time>2026-04-18T10:02:05.018Z</time></trkpt><trkpt lat="42.0794035" lon="11.8699569"><ele>178.0</ele><time>2026-04-18T10:02:24.055Z</time></trkpt><trkpt lat="42.0793765" lon="11.8700481"><ele>182.0</ele><time>2026-04-18T10:02:35.022Z</time></trkpt><trkpt lat="42.0794091" lon="11.8701311"><ele>186.0</ele><time>2026-04-18T10:03:01.012Z</time></trkpt><trkpt lat="42.0794714" lon="11.8701725"><ele>190.0</ele><time>2026-04-18T10:03:03.016Z</time></trkpt><trkpt lat="42.0795775" lon="11.8702222"><ele>194.0</ele><time>2026-04-18T10:03:05.006Z</time></trkpt><trkpt lat="42.0796803" lon="11.8702981"><ele>198.0</ele><time>2026-04-18T10:03:07.021Z</time></trkpt><trkpt lat="42.0797714" lon="11.8703611"><ele>198.0</ele><time>2026-04-18T10:03:09.022Z</time></trkpt><trkpt lat="42.0798571" lon="11.8704139"><ele>198.0</ele><time>2026-04-18T10:03:11.026Z</time></trkpt><trkpt lat="42.079957" lon="11.8704627"><ele>198.0</ele><time>2026-04-18T10:03:13.015Z</time></trkpt><trkpt lat="42.0800199" lon="11.8705366"><ele>198.0</ele><time>2026-04-18T10:03:15.02Z</time></trkpt><trkpt lat="42.0800902" lon="11.8705805"><ele>198.0</ele><time>2026-04-18T10:03:17.014Z</time></trkpt><trkpt lat="42.0801943" lon="11.8705476"><ele>197.33333333333334</ele><time>2026-04-18T10:03:19.024Z</time></trkpt><trkpt lat="42.0802941" lon="11.8705292"><ele>196.66666666666669</ele><time>2026-04-18T10:03:21.028Z</time></trkpt><trkpt lat="42.0803727" lon="11.8705313"><ele>196.0</ele><time>2026-04-18T10:03:24.03Z</time></trkpt><trkpt lat="42.0804376" lon="11.8705644"><ele>195.33333333333334</ele><time>2026-04-18T10:03:26.031Z</time></trkpt><trkpt lat="42.0804992" lon="11.8705955"><ele>194.66666666666669</ele><time>2026-04-18T10:03:28.022Z</time></trkpt><trkpt lat="42.0805739" lon="11.8706752"><ele>194.0</ele><time>2026-04-18T10:03:31.023Z</time></trkpt><trkpt lat="42.0805989" lon="11.8707769"><ele>194.0</ele><time>2026-04-18T10:04:23.005Z</time></trkpt><trkpt lat="42.0806291" lon="11.8708548"><ele>194.0</ele><time>2026-04-18T10:04:24.001Z</time></trkpt><trkpt lat="42.0807749" lon="11.8709591"><ele>194.0</ele><time>2026-04-18T10:04:29.019Z</time></trkpt><trkpt lat="42.0808432" lon="11.8708316"><ele>194.0</ele><time>2026-04-18T10:04:31.03Z</time></trkpt><trkpt lat="42.0808854" lon="11.8707446"><ele>194.0</ele><time>2026-04-18T10:04:32.013Z</time></trkpt><trkpt lat="42.0809229" lon="11.8706757"><ele>194.50000000000003</ele><time>2026-04-18T10:04:33.012Z</time></trkpt><trkpt lat="42.0809921" lon="11.8706271"><ele>195.0</ele><time>2026-04-18T10:04:35.025Z</time></trkpt><trkpt lat="42.0810717" lon="11.8705681"><ele>195.5</ele><time>2026-04-18T10:04:37.028Z</time></trkpt><trkpt lat="42.0811396" lon="11.8704955"><ele>196.0</ele><time>2026-04-18T10:04:39.032Z</time></trkpt><trkpt lat="42.0812101" lon="11.8704289"><ele>196.50000000000003</ele><time>2026-04-18T10:04:41.038Z</time></trkpt><trkpt lat="42.0813024" lon="11.8703691"><ele>197.0</ele><time>2026-04-18T10:04:43.02Z</time></trkpt><trkpt lat="42.0813717" lon="11.8703488"><ele>197.00000000000003</ele><time>2026-04-18T10:04:44.025Z</time></trkpt><trkpt lat="42.0814538" lon="11.8703455"><ele>197.0</ele><time>2026-04-18T10:04:45.011Z</time></trkpt><trkpt lat="42.0815237" lon="11.8703523"><ele>197.0</ele><time>2026-04-18T10:04:46.015Z</time></trkpt><trkpt lat="42.081641" lon="11.8703417"><ele>197.0</ele><time>2026-04-18T10:04:48.009Z</time></trkpt><trkpt lat="42.08174" lon="11.8703908"><ele>197.00000000000003</ele><time>2026-04-18T10:04:50.01Z</time></trkpt><trkpt lat="42.0818005" lon="11.8704143"><ele>197.0</ele><time>2026-04-18T10:04:51.008Z</time></trkpt><trkpt lat="42.0818646" lon="11.8704473"><ele>198.8</ele><time>2026-04-18T10:04:52.009Z</time></trkpt><trkpt lat="42.0819247" lon="11.8704773"><ele>200.6</ele><time>2026-04-18T10:04:53.004Z</time></trkpt><trkpt lat="42.0820472" lon="11.8705534"><ele>202.4</ele><time>2026-04-18T10:04:55.004Z</time></trkpt><trkpt lat="42.0821128" lon="11.870611"><ele>204.20000000000002</ele><time>2026-04-18T10:04:55.998Z</time></trkpt><trkpt lat="42.0821695" lon="11.8706723"><ele>206.0</ele><time>2026-04-18T10:04:57.007Z</time></trkpt><trkpt lat="42.0822782" lon="11.8707322"><ele>206.00000000000003</ele><time>2026-04-18T10:04:59.005Z</time></trkpt><trkpt lat="42.0823511" lon="11.8707543"><ele>206.0</ele><time>2026-04-18T10:05:00.01Z</time></trkpt><trkpt lat="42.0824439" lon="11.8708024"><ele>206.0</ele><time>2026-04-18T10:05:01.002Z</time></trkpt><trkpt lat="42.0825229" lon="11.8708421"><ele>206.0</ele><time>2026-04-18T10:05:02.01Z</time></trkpt><trkpt lat="42.0825907" lon="11.8708914"><ele>206.00000000000003</ele><time>2026-04-18T10:05:02.993Z</time></trkpt><trkpt lat="42.0826627" lon="11.8709354"><ele>206.0</ele><time>2026-04-18T10:05:04.001Z</time></trkpt><trkpt lat="42.082721" lon="11.870988"><ele>208.4</ele><time>2026-04-18T10:05:05Z</time></trkpt><trkpt lat="42.0828251" lon="11.8710365"><ele>210.8</ele><time>2026-04-18T10:05:06.995Z</time></trkpt><trkpt lat="42.0829049" lon="11.8710999"><ele>213.20000000000002</ele><time>2026-04-18T10:05:08.995Z</time></trkpt><trkpt lat="42.0829919" lon="11.8711277"><ele>215.60000000000002</ele><time>2026-04-18T10:05:11Z</time></trkpt><trkpt lat="42.0831025" lon="11.8711478"><ele>218.0</ele><time>2026-04-18T10:05:13.009Z</time></trkpt><trkpt lat="42.0831456" lon="11.8712097"><ele>218.00000000000003</ele><time>2026-04-18T10:05:16.013Z</time></trkpt><trkpt lat="42.0832146" lon="11.8712418"><ele>218.0</ele><time>2026-04-18T10:05:21.008Z</time></trkpt><trkpt lat="42.0832523" lon="11.8713214"><ele>218.0</ele><time>2026-04-18T10:05:31.029Z</time></trkpt><trkpt lat="42.0833321" lon="11.8714045"><ele>218.0</ele><time>2026-04-18T10:05:34.024Z</time></trkpt><trkpt lat="42.0834177" lon="11.8714737"><ele>218.00000000000003</ele><time>2026-04-18T10:05:36.023Z</time></trkpt><trkpt lat="42.0834815" lon="11.871545"><ele>218.0</ele><time>2026-04-18T10:05:38.024Z</time></trkpt><trkpt lat="42.0835303" lon="11.871638"><ele>218.0</ele><time>2026-04-18T10:05:40.016Z</time></trkpt><trkpt lat="42.083612" lon="11.8716995"><ele>218.0</ele><time>2026-04-18T10:05:42.019Z</time></trkpt><trkpt lat="42.083686" lon="11.8717655"><ele>218.0</ele><time>2026-04-18T10:05:44.027Z</time></trkpt><trkpt lat="42.083776" lon="11.8718454"><ele>218.0</ele><time>2026-04-18T10:05:46.016Z</time></trkpt><trkpt lat="42.0838615" lon="11.8719294"><ele>218.0</ele><time>2026-04-18T10:05:48.012Z</time></trkpt><trkpt lat="42.083948" lon="11.8720197"><ele>220.60000000000002</ele><time>2026-04-18T10:05:50.001Z</time></trkpt><trkpt lat="42.0840221" lon="11.8720988"><ele>223.20000000000002</ele><time>2026-04-18T10:05:52.016Z</time></trkpt><trkpt lat="42.0841051" lon="11.8721718"><ele>225.8</ele><time>2026-04-18T10:05:54.014Z</time></trkpt><trkpt lat="42.084196" lon="11.8722455"><ele>228.4</ele><time>2026-04-18T10:05:56.017Z</time></trkpt><trkpt lat="42.0842713" lon="11.8723349"><ele>231.0</ele><time>2026-04-18T10:05:58.022Z</time></trkpt><trkpt lat="42.0843444" lon="11.8724107"><ele>231.0</ele><time>2026-04-18T10:06:00.028Z</time></trkpt><trkpt lat="42.0844249" lon="11.8724752"><ele>231.00000000000003</ele><time>2026-04-18T10:06:02.028Z</time></trkpt><trkpt lat="42.0845155" lon="11.872573"><ele>231.00000000000003</ele><time>2026-04-18T10:06:04.026Z</time></trkpt><trkpt lat="42.0845908" lon="11.8726656"><ele>231.0</ele><time>2026-04-18T10:06:06.034Z</time></trkpt><trkpt lat="42.0846572" lon="11.8727321"><ele>231.0</ele><time>2026-04-18T10:06:08.022Z</time></trkpt><trkpt lat="42.0846601" lon="11.8726312"><ele>231.0</ele><time>2026-04-18T10:06:27Z</time></trkpt><trkpt lat="42.0845795" lon="11.8726359"><ele>231.00000000000003</ele><time>2026-04-18T10:06:40.046Z</time></trkpt><trkpt lat="42.0845535" lon="11.8727215"><ele>231.00000000000003</ele><time>2026-04-18T10:06:45.034Z</time></trkpt><trkpt lat="42.0846735" lon="11.8727227"><ele>231.0</ele><time>2026-04-18T10:06:51.03Z</time></trkpt><trkpt lat="42.0847372" lon="11.8726474"><ele>231.0</ele><time>2026-04-18T10:06:52.018Z</time></trkpt><trkpt lat="42.0848161" lon="11.8725695"><ele>231.0</ele><time>2026-04-18T10:06:53.022Z</time></trkpt><trkpt lat="42.0849127" lon="11.8724993"><ele>231.00000000000003</ele><time>2026-04-18T10:06:54.032Z</time></trkpt><trkpt lat="42.0849938" lon="11.8724292"><ele>231.00000000000003</ele><time>2026-04-18T10:06:55.029Z</time></trkpt><trkpt lat="42.0850834" lon="11.8723714"><ele>231.0</ele><time>2026-04-18T10:06:56.042Z</time></trkpt><trkpt lat="42.0851452" lon="11.8723432"><ele>231.0</ele><time>2026-04-18T10:06:57.041Z</time></trkpt><trkpt lat="42.0852256" lon="11.8722946"><ele>231.60000000000002</ele><time>2026-04-18T10:06:58.041Z</time></trkpt><trkpt lat="42.0852979" lon="11.8722719"><ele>232.20000000000002</ele><time>2026-04-18T10:06:59.035Z</time></trkpt><trkpt lat="42.0853971" lon="11.8722011"><ele>232.79999999999998</ele><time>2026-04-18T10:07:01.041Z</time></trkpt><trkpt lat="42.0855038" lon="11.8721745"><ele>233.39999999999998</ele><time>2026-04-18T10:07:03.038Z</time></trkpt><trkpt lat="42.0855785" lon="11.8721456"><ele>234.0</ele><time>2026-04-18T10:07:05.045Z</time></trkpt><trkpt lat="42.0856481" lon="11.8720462"><ele>234.0</ele><time>2026-04-18T10:07:07.043Z</time></trkpt><trkpt lat="42.0857516" lon="11.8719659"><ele>233.99999999999997</ele><time>2026-04-18T10:07:09.042Z</time></trkpt><trkpt lat="42.0858474" lon="11.8719012"><ele>233.99999999999997</ele><time>2026-04-18T10:07:11.045Z</time></trkpt><trkpt lat="42.0859165" lon="11.8718114"><ele>234.0</ele><time>2026-04-18T10:07:13.039Z</time></trkpt><trkpt lat="42.0859952" lon="11.8717284"><ele>234.0</ele><time>2026-04-18T10:07:15.029Z</time></trkpt><trkpt lat="42.0860475" lon="11.8716738"><ele>234.16666666666666</ele><time>2026-04-18T10:07:16.035Z</time></trkpt><trkpt lat="42.0861278" lon="11.8716034"><ele>234.33333333333331</ele><time>2026-04-18T10:07:18.037Z</time></trkpt><trkpt lat="42.0861833" lon="11.8715471"><ele>234.5</ele><time>2026-04-18T10:07:20.046Z</time></trkpt><trkpt lat="42.08623" lon="11.8714798"><ele>234.66666666666666</ele><time>2026-04-18T10:07:22.046Z</time></trkpt><trkpt lat="42.0862945" lon="11.8714578"><ele>234.83333333333331</ele><time>2026-04-18T10:07:24.039Z</time></trkpt><trkpt lat="42.0863772" lon="11.8714447"><ele>235.0</ele><time>2026-04-18T10:07:26.033Z</time></trkpt><trkpt lat="42.0864824" lon="11.8714785"><ele>235.49999999999997</ele><time>2026-04-18T10:07:28.027Z</time></trkpt><trkpt lat="42.086597" lon="11.871521"><ele>236.0</ele><time>2026-04-18T10:07:30.019Z</time></trkpt><trkpt lat="42.0866656" lon="11.8715457"><ele>236.5</ele><time>2026-04-18T10:07:31.027Z</time></trkpt><trkpt lat="42.0867346" lon="11.8715681"><ele>237.0</ele><time>2026-04-18T10:07:32.028Z</time></trkpt><trkpt lat="42.0868035" lon="11.8715935"><ele>237.49999999999997</ele><time>2026-04-18T10:07:33.024Z</time></trkpt><trkpt lat="42.0868792" lon="11.8716224"><ele>238.0</ele><time>2026-04-18T10:07:34.018Z</time></trkpt><trkpt lat="42.0869443" lon="11.871655"><ele>238.0</ele><time>2026-04-18T10:07:35.029Z</time></trkpt><trkpt lat="42.0870167" lon="11.871673"><ele>238.0</ele><time>2026-04-18T10:07:36.017Z</time></trkpt><trkpt lat="42.0870985" lon="11.8716713"><ele>238.0</ele><time>2026-04-18T10:07:37.012Z</time></trkpt><trkpt lat="42.0871842" lon="11.8716609"><ele>238.0</ele><time>2026-04-18T10:07:38.016Z</time></trkpt><trkpt lat="42.0873015" lon="11.8716095"><ele>238.0</ele><time>2026-04-18T10:07:40.006Z</time></trkpt><trkpt lat="42.0874008" lon="11.8715978"><ele>236.60000000000002</ele><time>2026-04-18T10:07:42.015Z</time></trkpt><trkpt lat="42.0875045" lon="11.8715729"><ele>235.20000000000002</ele><time>2026-04-18T10:07:44.019Z</time></trkpt><trkpt lat="42.0876081" lon="11.8715639"><ele>233.8</ele><time>2026-04-18T10:07:46.02Z</time></trkpt><trkpt lat="42.0877047" lon="11.871542"><ele>232.4</ele><time>2026-04-18T10:07:49.017Z</time></trkpt><trkpt lat="42.0877824" lon="11.8715265"><ele>231.0</ele><time>2026-04-18T10:07:51.022Z</time></trkpt><trkpt lat="42.0878861" lon="11.8715154"><ele>231.0</ele><time>2026-04-18T10:07:53.026Z</time></trkpt><trkpt lat="42.0879636" lon="11.8715084"><ele>231.0</ele><time>2026-04-18T10:07:54.019Z</time></trkpt><trkpt lat="42.0880378" lon="11.8715031"><ele>231.0</ele><time>2026-04-18T10:07:55.022Z</time></trkpt><trkpt lat="42.088131" lon="11.8715043"><ele>231.0</ele><time>2026-04-18T10:07:56.019Z</time></trkpt><trkpt lat="42.0882255" lon="11.87151"><ele>231.0</ele><time>2026-04-18T10:07:57.017Z</time></trkpt><trkpt lat="42.0883207" lon="11.8715322"><ele>231.0</ele><time>2026-04-18T10:07:58.009Z</time></trkpt><trkpt lat="42.0884162" lon="11.8715607"><ele>230.60000000000002</ele><time>2026-04-18T10:07:59.016Z</time></trkpt><trkpt lat="42.0885379" lon="11.8715989"><ele>230.20000000000002</ele><time>2026-04-18T10:08:00.011Z</time></trkpt><trkpt lat="42.088623" lon="11.8716436"><ele>229.79999999999998</ele><time>2026-04-18T10:08:01.014Z</time></trkpt><trkpt lat="42.0886971" lon="11.8716881"><ele>229.39999999999998</ele><time>2026-04-18T10:08:02.027Z</time></trkpt><trkpt lat="42.088795" lon="11.8717702"><ele>229.0</ele><time>2026-04-18T10:08:04.021Z</time></trkpt><trkpt lat="42.0888867" lon="11.8718389"><ele>227.66666666666666</ele><time>2026-04-18T10:08:06.023Z</time></trkpt><trkpt lat="42.0889698" lon="11.8718762"><ele>226.33333333333331</ele><time>2026-04-18T10:08:08.026Z</time></trkpt><trkpt lat="42.0890586" lon="11.8719215"><ele>225.0</ele><time>2026-04-18T10:08:10.022Z</time></trkpt><trkpt lat="42.0891273" lon="11.8719592"><ele>223.66666666666669</ele><time>2026-04-18T10:08:12.022Z</time></trkpt><trkpt lat="42.0891991" lon="11.8719517"><ele>222.33333333333334</ele><time>2026-04-18T10:08:15.028Z</time></trkpt><trkpt lat="42.0892671" lon="11.8719689"><ele>221.0</ele><time>2026-04-18T10:08:17.033Z</time></trkpt><trkpt lat="42.0893544" lon="11.8719911"><ele>220.60000000000002</ele><time>2026-04-18T10:08:19.027Z</time></trkpt><trkpt lat="42.0894542" lon="11.8719764"><ele>220.20000000000002</ele><time>2026-04-18T10:08:21.036Z</time></trkpt><trkpt lat="42.0895479" lon="11.8719894"><ele>219.79999999999998</ele><time>2026-04-18T10:08:23.033Z</time></trkpt><trkpt lat="42.0896483" lon="11.8720181"><ele>219.39999999999998</ele><time>2026-04-18T10:08:25.025Z</time></trkpt><trkpt lat="42.0897554" lon="11.87207"><ele>219.0</ele><time>2026-04-18T10:08:27.021Z</time></trkpt><trkpt lat="42.0898423" lon="11.8721573"><ele>219.0</ele><time>2026-04-18T10:08:29.017Z</time></trkpt><trkpt lat="42.0899296" lon="11.8722207"><ele>218.99999999999997</ele><time>2026-04-18T10:08:31.025Z</time></trkpt><trkpt lat="42.0899793" lon="11.8722922"><ele>218.99999999999997</ele><time>2026-04-18T10:08:33.025Z</time></trkpt><trkpt lat="42.0899169" lon="11.8723514"><ele>219.0</ele><time>2026-04-18T10:08:35.03Z</time></trkpt><trkpt lat="42.0898484" lon="11.8724238"><ele>219.0</ele><time>2026-04-18T10:08:37.039Z</time></trkpt><trkpt lat="42.0897481" lon="11.8725153"><ele>219.0</ele><time>2026-04-18T10:08:39.026Z</time></trkpt><trkpt lat="42.0896911" lon="11.8725881"><ele>219.0</ele><time>2026-04-18T10:08:40.032Z</time></trkpt><trkpt lat="42.0896284" lon="11.8726624"><ele>219.0</ele><time>2026-04-18T10:08:41.03Z</time></trkpt><trkpt lat="42.0895696" lon="11.8727421"><ele>219.0</ele><time>2026-04-18T10:08:42.016Z</time></trkpt><trkpt lat="42.0895174" lon="11.8728436"><ele>219.0</ele><time>2026-04-18T10:08:43.03Z</time></trkpt><trkpt lat="42.0894626" lon="11.872948"><ele>219.0</ele><time>2026-04-18T10:08:44.026Z</time></trkpt><trkpt lat="42.0894171" lon="11.8730411"><ele>215.79999999999998</ele><time>2026-04-18T10:08:45.03Z</time></trkpt><trkpt lat="42.0893656" lon="11.8731245"><ele>212.59999999999997</ele><time>2026-04-18T10:08:46.03Z</time></trkpt><trkpt lat="42.0893228" lon="11.8731934"><ele>209.4</ele><time>2026-04-18T10:08:47.019Z</time></trkpt><trkpt lat="42.0892585" lon="11.8733167"><ele>206.2</ele><time>2026-04-18T10:08:49.029Z</time></trkpt><trkpt lat="42.0891878" lon="11.873452"><ele>203.0</ele><time>2026-04-18T10:08:51.039Z</time></trkpt><trkpt lat="42.0891274" lon="11.8735751"><ele>201.16666666666669</ele><time>2026-04-18T10:08:53.039Z</time></trkpt><trkpt lat="42.089076" lon="11.8736757"><ele>199.33333333333334</ele><time>2026-04-18T10:08:55.048Z</time></trkpt><trkpt lat="42.0890262" lon="11.873791"><ele>197.5</ele><time>2026-04-18T10:08:57.033Z</time></trkpt><trkpt lat="42.088965" lon="11.8739086"><ele>195.66666666666669</ele><time>2026-04-18T10:08:59.035Z</time></trkpt><trkpt lat="42.0889208" lon="11.873989"><ele>193.83333333333334</ele><time>2026-04-18T10:09:01.037Z</time></trkpt><trkpt lat="42.088885" lon="11.874069"><ele>192.0</ele><time>2026-04-18T10:09:03.027Z</time></trkpt><trkpt lat="42.0888056" lon="11.8740898"><ele>192.0</ele><time>2026-04-18T10:09:06.03Z</time></trkpt><trkpt lat="42.088712" lon="11.8741202"><ele>192.0</ele><time>2026-04-18T10:09:08.03Z</time></trkpt><trkpt lat="42.0886159" lon="11.8741794"><ele>192.0</ele><time>2026-04-18T10:09:10.041Z</time></trkpt><trkpt lat="42.0885569" lon="11.8742613"><ele>192.0</ele><time>2026-04-18T10:09:12.036Z</time></trkpt><trkpt lat="42.0885215" lon="11.8743913"><ele>192.0</ele><time>2026-04-18T10:09:14.028Z</time></trkpt><trkpt lat="42.0884525" lon="11.8745394"><ele>189.0</ele><time>2026-04-18T10:09:16.03Z</time></trkpt><trkpt lat="42.0883907" lon="11.8746506"><ele>186.0</ele><time>2026-04-18T10:09:18.034Z</time></trkpt><trkpt lat="42.0883325" lon="11.8747272"><ele>183.0</ele><time>2026-04-18T10:09:20.033Z</time></trkpt><trkpt lat="42.0882623" lon="11.8748032"><ele>180.0</ele><time>2026-04-18T10:09:22.033Z</time></trkpt><trkpt lat="42.0881767" lon="11.874873"><ele>177.0</ele><time>2026-04-18T10:09:24.03Z</time></trkpt><trkpt lat="42.0880741" lon="11.874942"><ele>177.0</ele><time>2026-04-18T10:09:26.03Z</time></trkpt><trkpt lat="42.0880173" lon="11.8749794"><ele>177.0</ele><time>2026-04-18T10:09:27.033Z</time></trkpt><trkpt lat="42.087918" lon="11.8750548"><ele>177.0</ele><time>2026-04-18T10:09:29.034Z</time></trkpt><trkpt lat="42.0878362" lon="11.8751423"><ele>177.0</ele><time>2026-04-18T10:09:31.024Z</time></trkpt><trkpt lat="42.0877791" lon="11.8751849"><ele>177.0</ele><time>2026-04-18T10:09:32.034Z</time></trkpt><trkpt lat="42.0877189" lon="11.8752123"><ele>177.0</ele><time>2026-04-18T10:09:33.034Z</time></trkpt><trkpt lat="42.0876426" lon="11.8752638"><ele>177.0</ele><time>2026-04-18T10:09:35.028Z</time></trkpt><trkpt lat="42.087572" lon="11.8753008"><ele>177.0</ele><time>2026-04-18T10:09:52.033Z</time></trkpt><trkpt lat="42.0874974" lon="11.8752788"><ele>177.0</ele><time>2026-04-18T10:09:54.021Z</time></trkpt><trkpt lat="42.0874142" lon="11.8752906"><ele>177.0</ele><time>2026-04-18T10:10:12.034Z</time></trkpt><trkpt lat="42.0873494" lon="11.8752817"><ele>177.0</ele><time>2026-04-18T10:10:14.032Z</time></trkpt><trkpt lat="42.0873246" lon="11.8751991"><ele>177.0</ele><time>2026-04-18T10:10:52.954Z</time></trkpt><trkpt lat="42.0873612" lon="11.8751081"><ele>177.0</ele><time>2026-04-18T10:10:55.965Z</time></trkpt><trkpt lat="42.0874455" lon="11.8750588"><ele>177.0</ele><time>2026-04-18T10:11:40.949Z</time></trkpt><trkpt lat="42.0875186" lon="11.8749197"><ele>177.0</ele><time>2026-04-18T10:11:41.958Z</time></trkpt><trkpt lat="42.0873969" lon="11.8751286"><ele>177.0</ele><time>2026-04-18T10:11:42.952Z</time></trkpt><trkpt lat="42.0874565" lon="11.8750293"><ele>177.0</ele><time>2026-04-18T10:11:43.953Z</time></trkpt><trkpt lat="42.0875044" lon="11.8749419"><ele>177.0</ele><time>2026-04-18T10:11:45.952Z</time></trkpt><trkpt lat="42.0875995" lon="11.8747386"><ele>177.0</ele><time>2026-04-18T10:11:49.951Z</time></trkpt><trkpt lat="42.0872941" lon="11.8753964"><ele>176.39999999999998</ele><time>2026-04-18T10:11:53.955Z</time></trkpt><trkpt lat="42.0873671" lon="11.8752694"><ele>175.79999999999998</ele><time>2026-04-18T10:11:54.952Z</time></trkpt><trkpt lat="42.0874017" lon="11.8751933"><ele>175.2</ele><time>2026-04-18T10:12:40.962Z</time></trkpt><trkpt lat="42.0873116" lon="11.8751575"><ele>174.6</ele><time>2026-04-18T10:13:04.966Z</time></trkpt><trkpt lat="42.0872937" lon="11.8750043"><ele>174.0</ele><time>2026-04-18T10:13:05.965Z</time></trkpt><trkpt lat="42.0868974" lon="11.8752655"><ele>182.0</ele><time>2026-04-18T10:13:16.984Z</time></trkpt><trkpt lat="42.0872411" lon="11.8750403"><ele>190.0</ele><time>2026-04-18T10:13:18.011Z</time></trkpt><trkpt lat="42.0873449" lon="11.8750104"><ele>187.33333333333334</ele><time>2026-04-18T10:13:18.989Z</time></trkpt><trkpt lat="42.0873285" lon="11.8751346"><ele>184.66666666666669</ele><time>2026-04-18T10:13:28.007Z</time></trkpt><trkpt lat="42.0873114" lon="11.8752235"><ele>182.0</ele><time>2026-04-18T10:13:33.016Z</time></trkpt><trkpt lat="42.0874371" lon="11.8752631"><ele>179.33333333333334</ele><time>2026-04-18T10:14:31.043Z</time></trkpt><trkpt lat="42.0874863" lon="11.8753174"><ele>176.66666666666666</ele><time>2026-04-18T10:14:34.036Z</time></trkpt><trkpt lat="42.0875491" lon="11.8753718"><ele>174.0</ele><time>2026-04-18T10:14:47.051Z</time></trkpt><trkpt lat="42.0875708" lon="11.8754577"><ele>173.5</ele><time>2026-04-18T10:14:49.031Z</time></trkpt><trkpt lat="42.0875562" lon="11.8756178"><ele>173.0</ele><time>2026-04-18T10:14:51.045Z</time></trkpt><trkpt lat="42.0875318" lon="11.8757172"><ele>172.5</ele><time>2026-04-18T10:14:52.034Z</time></trkpt><trkpt lat="42.0875042" lon="11.8758132"><ele>172.0</ele><time>2026-04-18T10:14:53.048Z</time></trkpt><trkpt lat="42.0874725" lon="11.8758997"><ele>171.5</ele><time>2026-04-18T10:14:54.031Z</time></trkpt><trkpt lat="42.0874293" lon="11.8759679"><ele>171.0</ele><time>2026-04-18T10:14:55.04Z</time></trkpt><trkpt lat="42.0873835" lon="11.8760268"><ele>168.8</ele><time>2026-04-18T10:14:56.034Z</time></trkpt><trkpt lat="42.0873081" lon="11.8761399"><ele>166.60000000000002</ele><time>2026-04-18T10:14:58.045Z</time></trkpt><trkpt lat="42.0872768" lon="11.8762462"><ele>164.4</ele><time>2026-04-18T10:15:00.037Z</time></trkpt><trkpt lat="42.0872028" lon="11.876384"><ele>162.2</ele><time>2026-04-18T10:15:02.038Z</time></trkpt><trkpt lat="42.0871541" lon="11.8764604"><ele>160.0</ele><time>2026-04-18T10:15:03.054Z</time></trkpt><trkpt lat="42.0871077" lon="11.8765358"><ele>160.0</ele><time>2026-04-18T10:15:04.048Z</time></trkpt><trkpt lat="42.0870723" lon="11.87661"><ele>160.0</ele><time>2026-04-18T10:15:05.042Z</time></trkpt><trkpt lat="42.0870376" lon="11.8766972"><ele>160.0</ele><time>2026-04-18T10:15:06.048Z</time></trkpt><trkpt lat="42.0870017" lon="11.8767834"><ele>160.0</ele><time>2026-04-18T10:15:07.037Z</time></trkpt><trkpt lat="42.0869843" lon="11.8769313"><ele>160.0</ele><time>2026-04-18T10:15:09.035Z</time></trkpt><trkpt lat="42.0869526" lon="11.8770776"><ele>160.0</ele><time>2026-04-18T10:15:11.032Z</time></trkpt><trkpt lat="42.0868867" lon="11.8771937"><ele>158.2</ele><time>2026-04-18T10:15:13.028Z</time></trkpt><trkpt lat="42.0868432" lon="11.8772557"><ele>156.4</ele><time>2026-04-18T10:15:14.041Z</time></trkpt><trkpt lat="42.0867607" lon="11.8773346"><ele>154.6</ele><time>2026-04-18T10:15:16.029Z</time></trkpt><trkpt lat="42.0866653" lon="11.877419"><ele>152.8</ele><time>2026-04-18T10:15:18.037Z</time></trkpt><trkpt lat="42.0866122" lon="11.8774758"><ele>151.0</ele><time>2026-04-18T10:15:19.046Z</time></trkpt><trkpt lat="42.0865249" lon="11.8775799"><ele>148.0</ele><time>2026-04-18T10:15:21.036Z</time></trkpt><trkpt lat="42.0864492" lon="11.8776649"><ele>145.0</ele><time>2026-04-18T10:15:23.038Z</time></trkpt><trkpt lat="42.0863681" lon="11.8777581"><ele>142.0</ele><time>2026-04-18T10:15:25.049Z</time></trkpt><trkpt lat="42.0862812" lon="11.8778553"><ele>139.0</ele><time>2026-04-18T10:15:27.038Z</time></trkpt><trkpt lat="42.0862352" lon="11.8779238"><ele>136.0</ele><time>2026-04-18T10:15:28.033Z</time></trkpt><trkpt lat="42.0862" lon="11.8780066"><ele>136.0</ele><time>2026-04-18T10:15:29.045Z</time></trkpt><trkpt lat="42.086157" lon="11.8780795"><ele>136.0</ele><time>2026-04-18T10:15:30.026Z</time></trkpt><trkpt lat="42.0861047" lon="11.8781695"><ele>136.0</ele><time>2026-04-18T10:15:32.036Z</time></trkpt><trkpt lat="42.0860521" lon="11.8782632"><ele>136.0</ele><time>2026-04-18T10:15:34.045Z</time></trkpt><trkpt lat="42.0859888" lon="11.8784024"><ele>136.0</ele><time>2026-04-18T10:15:36.026Z</time></trkpt><trkpt lat="42.0859573" lon="11.8784784"><ele>136.0</ele><time>2026-04-18T10:15:37.033Z</time></trkpt><trkpt lat="42.0859295" lon="11.8785602"><ele>134.2</ele><time>2026-04-18T10:15:38.033Z</time></trkpt><trkpt lat="42.0859024" lon="11.8786465"><ele>132.39999999999998</ele><time>2026-04-18T10:15:39.041Z</time></trkpt><trkpt lat="42.0858814" lon="11.8787387"><ele>130.6</ele><time>2026-04-18T10:15:40.031Z</time></trkpt><trkpt lat="42.0858339" lon="11.8788815"><ele>128.79999999999998</ele><time>2026-04-18T10:15:42.035Z</time></trkpt><trkpt lat="42.0857988" lon="11.8789985"><ele>127.0</ele><time>2026-04-18T10:15:44.029Z</time></trkpt><trkpt lat="42.085784" lon="11.8791317"><ele>124.25</ele><time>2026-04-18T10:15:46.029Z</time></trkpt><trkpt lat="42.0857806" lon="11.8792855"><ele>121.5</ele><time>2026-04-18T10:15:48.028Z</time></trkpt><trkpt lat="42.0858097" lon="11.8794418"><ele>118.75</ele><time>2026-04-18T10:15:50.041Z</time></trkpt><trkpt lat="42.0858494" lon="11.8795875"><ele>116.0</ele><time>2026-04-18T10:15:52.024Z</time></trkpt><trkpt lat="42.085878" lon="11.8797348"><ele>116.0</ele><time>2026-04-18T10:15:54.034Z</time></trkpt><trkpt lat="42.0858752" lon="11.8798742"><ele>116.0</ele><time>2026-04-18T10:15:56.033Z</time></trkpt><trkpt lat="42.0858309" lon="11.8799977"><ele>116.0</ele><time>2026-04-18T10:15:58.033Z</time></trkpt><trkpt lat="42.0857256" lon="11.8801057"><ele>116.0</ele><time>2026-04-18T10:16:00.049Z</time></trkpt><trkpt lat="42.0856704" lon="11.8801583"><ele>116.0</ele><time>2026-04-18T10:16:01.037Z</time></trkpt><trkpt lat="42.0856132" lon="11.8802019"><ele>112.6</ele><time>2026-04-18T10:16:02.035Z</time></trkpt><trkpt lat="42.0855151" lon="11.880291"><ele>109.19999999999999</ele><time>2026-04-18T10:16:04.03Z</time></trkpt><trkpt lat="42.0854227" lon="11.8803964"><ele>105.80000000000001</ele><time>2026-04-18T10:16:06.038Z</time></trkpt><trkpt lat="42.0853433" lon="11.8804833"><ele>102.4</ele><time>2026-04-18T10:16:08.029Z</time></trkpt><trkpt lat="42.0853114" lon="11.8806063"><ele>99.0</ele><time>2026-04-18T10:16:10.044Z</time></trkpt><trkpt lat="42.085288" lon="11.8807622"><ele>99.0</ele><time>2026-04-18T10:16:12.042Z</time></trkpt><trkpt lat="42.0852603" lon="11.8808387"><ele>99.0</ele><time>2026-04-18T10:16:13.035Z</time></trkpt><trkpt lat="42.0851943" lon="11.8809865"><ele>99.0</ele><time>2026-04-18T10:16:15.05Z</time></trkpt><trkpt lat="42.0851472" lon="11.8810985"><ele>99.0</ele><time>2026-04-18T10:16:17.039Z</time></trkpt><trkpt lat="42.0851296" lon="11.8811979"><ele>99.0</ele><time>2026-04-18T10:16:19.031Z</time></trkpt><trkpt lat="42.0851536" lon="11.8813172"><ele>97.83333333333333</ele><time>2026-04-18T10:16:21.029Z</time></trkpt><trkpt lat="42.0851679" lon="11.8814788"><ele>96.66666666666667</ele><time>2026-04-18T10:16:23.035Z</time></trkpt><trkpt lat="42.0851784" lon="11.8815634"><ele>95.5</ele><time>2026-04-18T10:16:24.033Z</time></trkpt><trkpt lat="42.0851721" lon="11.8816709"><ele>94.33333333333334</ele><time>2026-04-18T10:16:25.043Z</time></trkpt><trkpt lat="42.0851577" lon="11.8817761"><ele>93.16666666666667</ele><time>2026-04-18T10:16:26.03Z</time></trkpt><trkpt lat="42.0851269" lon="11.8818747"><ele>92.0</ele><time>2026-04-18T10:16:27.038Z</time></trkpt><trkpt lat="42.0850927" lon="11.8819822"><ele>91.83333333333334</ele><time>2026-04-18T10:16:28.03Z</time></trkpt><trkpt lat="42.0850746" lon="11.8820796"><ele>91.66666666666667</ele><time>2026-04-18T10:16:29.031Z</time></trkpt><trkpt lat="42.0850491" lon="11.8821624"><ele>91.5</ele><time>2026-04-18T10:16:30.04Z</time></trkpt><trkpt lat="42.0850064" lon="11.8822869"><ele>91.33333333333333</ele><time>2026-04-18T10:16:32.03Z</time></trkpt><trkpt lat="42.0849645" lon="11.8823845"><ele>91.16666666666666</ele><time>2026-04-18T10:16:34.021Z</time></trkpt><trkpt lat="42.0849147" lon="11.8824963"><ele>91.0</ele><time>2026-04-18T10:16:36.023Z</time></trkpt><trkpt lat="42.0848282" lon="11.8826051"><ele>90.83333333333333</ele><time>2026-04-18T10:16:38.019Z</time></trkpt><trkpt lat="42.0847591" lon="11.8826458"><ele>90.66666666666666</ele><time>2026-04-18T10:16:39.028Z</time></trkpt><trkpt lat="42.0846701" lon="11.8826898"><ele>90.5</ele><time>2026-04-18T10:16:40.033Z</time></trkpt><trkpt lat="42.0845926" lon="11.8826932"><ele>90.33333333333333</ele><time>2026-04-18T10:16:41.023Z</time></trkpt><trkpt lat="42.084514" lon="11.8826697"><ele>90.16666666666667</ele><time>2026-04-18T10:16:42.031Z</time></trkpt><trkpt lat="42.0844371" lon="11.8826344"><ele>90.0</ele><time>2026-04-18T10:16:43.031Z</time></trkpt><trkpt lat="42.0843663" lon="11.8826131"><ele>90.0</ele><time>2026-04-18T10:16:44.036Z</time></trkpt><trkpt lat="42.0842619" lon="11.882588"><ele>90.0</ele><time>2026-04-18T10:16:46.037Z</time></trkpt><trkpt lat="42.0841945" lon="11.8826475"><ele>90.0</ele><time>2026-04-18T10:16:48.039Z</time></trkpt><trkpt lat="42.0841939" lon="11.8827716"><ele>90.0</ele><time>2026-04-18T10:16:51.042Z</time></trkpt><trkpt lat="42.0842409" lon="11.8828606"><ele>90.0</ele><time>2026-04-18T10:16:54.044Z</time></trkpt><trkpt lat="42.0842314" lon="11.8829492"><ele>90.0</ele><time>2026-04-18T10:16:56.038Z</time></trkpt><trkpt lat="42.084194" lon="11.8830819"><ele>90.0</ele><time>2026-04-18T10:16:58.037Z</time></trkpt><trkpt lat="42.0841635" lon="11.8832146"><ele>90.0</ele><time>2026-04-18T10:17:00.044Z</time></trkpt><trkpt lat="42.0841799" lon="11.8833589"><ele>90.0</ele><time>2026-04-18T10:17:02.028Z</time></trkpt><trkpt lat="42.0842431" lon="11.8833994"><ele>90.0</ele><time>2026-04-18T10:17:03.026Z</time></trkpt><trkpt lat="42.0843278" lon="11.8834433"><ele>90.0</ele><time>2026-04-18T10:17:04.031Z</time></trkpt><trkpt lat="42.0844163" lon="11.8834718"><ele>90.66666666666667</ele><time>2026-04-18T10:17:05.033Z</time></trkpt><trkpt lat="42.0844882" lon="11.8835138"><ele>91.33333333333333</ele><time>2026-04-18T10:17:06.04Z</time></trkpt><trkpt lat="42.0845544" lon="11.8835666"><ele>92.0</ele><time>2026-04-18T10:17:07.026Z</time></trkpt><trkpt lat="42.0846225" lon="11.8836367"><ele>92.66666666666666</ele><time>2026-04-18T10:17:08.023Z</time></trkpt><trkpt lat="42.0846885" lon="11.8837176"><ele>93.33333333333333</ele><time>2026-04-18T10:17:09.028Z</time></trkpt><trkpt lat="42.0847524" lon="11.883814"><ele>94.0</ele><time>2026-04-18T10:17:10.029Z</time></trkpt><trkpt lat="42.0848143" lon="11.8838934"><ele>94.0</ele><time>2026-04-18T10:17:11.037Z</time></trkpt><trkpt lat="42.0848828" lon="11.8839561"><ele>94.0</ele><time>2026-04-18T10:17:12.03Z</time></trkpt><trkpt lat="42.084948" lon="11.8840282"><ele>94.0</ele><time>2026-04-18T10:17:13.022Z</time></trkpt><trkpt lat="42.0850189" lon="11.8840902"><ele>94.0</ele><time>2026-04-18T10:17:14.022Z</time></trkpt><trkpt lat="42.0850823" lon="11.8841553"><ele>94.0</ele><time>2026-04-18T10:17:15.016Z</time></trkpt><trkpt lat="42.0851365" lon="11.8842179"><ele>94.0</ele><time>2026-04-18T10:17:16.036Z</time></trkpt><trkpt lat="42.0852023" lon="11.8843119"><ele>97.0</ele><time>2026-04-18T10:17:18.029Z</time></trkpt><trkpt lat="42.0852502" lon="11.8844105"><ele>100.0</ele><time>2026-04-18T10:17:20.03Z</time></trkpt><trkpt lat="42.0853095" lon="11.8845204"><ele>103.0</ele><time>2026-04-18T10:17:22.032Z</time></trkpt><trkpt lat="42.0853505" lon="11.8846569"><ele>106.0</ele><time>2026-04-18T10:17:24.027Z</time></trkpt><trkpt lat="42.0853405" lon="11.8848076"><ele>109.0</ele><time>2026-04-18T10:17:26.039Z</time></trkpt><trkpt lat="42.0852988" lon="11.884885"><ele>109.00000000000001</ele><time>2026-04-18T10:17:27.025Z</time></trkpt><trkpt lat="42.085257" lon="11.8849675"><ele>109.0</ele><time>2026-04-18T10:17:28.018Z</time></trkpt><trkpt lat="42.0852111" lon="11.8850455"><ele>109.0</ele><time>2026-04-18T10:17:29.023Z</time></trkpt><trkpt lat="42.0852042" lon="11.8851352"><ele>109.0</ele><time>2026-04-18T10:17:30.021Z</time></trkpt><trkpt lat="42.0851773" lon="11.8852718"><ele>109.00000000000001</ele><time>2026-04-18T10:17:32.031Z</time></trkpt><trkpt lat="42.0851399" lon="11.8854083"><ele>109.0</ele><time>2026-04-18T10:17:34.025Z</time></trkpt><trkpt lat="42.0851229" lon="11.8854901"><ele>110.66666666666667</ele><time>2026-04-18T10:17:35.023Z</time></trkpt><trkpt lat="42.0851071" lon="11.8855816"><ele>112.33333333333334</ele><time>2026-04-18T10:17:36.044Z</time></trkpt><trkpt lat="42.0850858" lon="11.885691"><ele>114.0</ele><time>2026-04-18T10:17:37.037Z</time></trkpt><trkpt lat="42.0850676" lon="11.8858033"><ele>115.66666666666666</ele><time>2026-04-18T10:17:38.039Z</time></trkpt><trkpt lat="42.0850619" lon="11.8859121"><ele>117.33333333333333</ele><time>2026-04-18T10:17:39.035Z</time></trkpt><trkpt lat="42.0850692" lon="11.8860117"><ele>119.0</ele><time>2026-04-18T10:17:40.038Z</time></trkpt><trkpt lat="42.0850851" lon="11.8861113"><ele>119.80000000000001</ele><time>2026-04-18T10:17:41.042Z</time></trkpt><trkpt lat="42.0851273" lon="11.8862703"><ele>120.60000000000001</ele><time>2026-04-18T10:17:43.026Z</time></trkpt><trkpt lat="42.0851623" lon="11.8863581"><ele>121.4</ele><time>2026-04-18T10:17:44.026Z</time></trkpt><trkpt lat="42.085197" lon="11.8864644"><ele>122.2</ele><time>2026-04-18T10:17:45.032Z</time></trkpt><trkpt lat="42.0852289" lon="11.8865819"><ele>123.0</ele><time>2026-04-18T10:17:46.037Z</time></trkpt><trkpt lat="42.0852648" lon="11.8867106"><ele>123.80000000000001</ele><time>2026-04-18T10:17:47.037Z</time></trkpt><trkpt lat="42.0852971" lon="11.8868409"><ele>124.60000000000001</ele><time>2026-04-18T10:17:48.037Z</time></trkpt><trkpt lat="42.0853285" lon="11.8869664"><ele>125.39999999999999</ele><time>2026-04-18T10:17:49.022Z</time></trkpt><trkpt lat="42.0853705" lon="11.8870872"><ele>126.19999999999999</ele><time>2026-04-18T10:17:50.03Z</time></trkpt><trkpt lat="42.0854035" lon="11.8871851"><ele>127.0</ele><time>2026-04-18T10:17:51.049Z</time></trkpt><trkpt lat="42.085441" lon="11.8872721"><ele>127.00000000000001</ele><time>2026-04-18T10:17:52.036Z</time></trkpt><trkpt lat="42.0854828" lon="11.8873669"><ele>127.0</ele><time>2026-04-18T10:17:53.041Z</time></trkpt><trkpt lat="42.0855325" lon="11.8874604"><ele>127.0</ele><time>2026-04-18T10:17:54.045Z</time></trkpt><trkpt lat="42.0855741" lon="11.8875505"><ele>127.0</ele><time>2026-04-18T10:17:55.037Z</time></trkpt><trkpt lat="42.0856084" lon="11.8876426"><ele>127.00000000000001</ele><time>2026-04-18T10:17:56.057Z</time></trkpt><trkpt lat="42.085647" lon="11.8877317"><ele>127.0</ele><time>2026-04-18T10:17:57.045Z</time></trkpt><trkpt lat="42.0856909" lon="11.8878164"><ele>127.8</ele><time>2026-04-18T10:17:58.047Z</time></trkpt><trkpt lat="42.0857394" lon="11.8878966"><ele>128.6</ele><time>2026-04-18T10:17:59.037Z</time></trkpt><trkpt lat="42.0858088" lon="11.8879896"><ele>129.39999999999998</ele><time>2026-04-18T10:18:01.041Z</time></trkpt><trkpt lat="42.0858901" lon="11.8880523"><ele>130.2</ele><time>2026-04-18T10:18:03.036Z</time></trkpt><trkpt lat="42.0859708" lon="11.8881424"><ele>131.0</ele><time>2026-04-18T10:18:05.035Z</time></trkpt><trkpt lat="42.0860291" lon="11.8882546"><ele>132.16666666666666</ele><time>2026-04-18T10:18:07.044Z</time></trkpt><trkpt lat="42.086072" lon="11.8883393"><ele>133.33333333333331</ele><time>2026-04-18T10:18:09.049Z</time></trkpt><trkpt lat="42.0860916" lon="11.8884427"><ele>134.5</ele><time>2026-04-18T10:18:11.042Z</time></trkpt><trkpt lat="42.0861295" lon="11.8885987"><ele>135.66666666666666</ele><time>2026-04-18T10:18:13.037Z</time></trkpt><trkpt lat="42.0861605" lon="11.8886784"><ele>136.83333333333334</ele><time>2026-04-18T10:18:14.036Z</time></trkpt><trkpt lat="42.0861973" lon="11.8887627"><ele>138.0</ele><time>2026-04-18T10:18:15.043Z</time></trkpt><trkpt lat="42.0862361" lon="11.8888402"><ele>139.42857142857144</ele><time>2026-04-18T10:18:16.039Z</time></trkpt><trkpt lat="42.086275" lon="11.8889169"><ele>140.85714285714286</ele><time>2026-04-18T10:18:17.046Z</time></trkpt><trkpt lat="42.0863114" lon="11.8889882"><ele>142.28571428571428</ele><time>2026-04-18T10:18:18.036Z</time></trkpt><trkpt lat="42.086347" lon="11.8890604"><ele>143.71428571428572</ele><time>2026-04-18T10:18:19.038Z</time></trkpt><trkpt lat="42.0863863" lon="11.8891314"><ele>145.14285714285714</ele><time>2026-04-18T10:18:20.032Z</time></trkpt><trkpt lat="42.08644" lon="11.889194"><ele>146.57142857142858</ele><time>2026-04-18T10:18:21.036Z</time></trkpt><trkpt lat="42.0865306" lon="11.8892233"><ele>148.0</ele><time>2026-04-18T10:18:22.032Z</time></trkpt><trkpt lat="42.0866368" lon="11.8892409"><ele>151.4</ele><time>2026-04-18T10:18:23.034Z</time></trkpt><trkpt lat="42.0867311" lon="11.8892797"><ele>154.8</ele><time>2026-04-18T10:18:24.03Z</time></trkpt><trkpt lat="42.0868173" lon="11.8893357"><ele>158.2</ele><time>2026-04-18T10:18:25.022Z</time></trkpt><trkpt lat="42.0869011" lon="11.8894108"><ele>161.6</ele><time>2026-04-18T10:18:26.022Z</time></trkpt><trkpt lat="42.0869758" lon="11.8894871"><ele>165.0</ele><time>2026-04-18T10:18:27.024Z</time></trkpt><trkpt lat="42.0870396" lon="11.8895601"><ele>165.0</ele><time>2026-04-18T10:18:28.031Z</time></trkpt><trkpt lat="42.0870992" lon="11.889625"><ele>165.0</ele><time>2026-04-18T10:18:29.031Z</time></trkpt><trkpt lat="42.0871538" lon="11.8896783"><ele>165.0</ele><time>2026-04-18T10:18:30.026Z</time></trkpt><trkpt lat="42.0872427" lon="11.8897543"><ele>165.0</ele><time>2026-04-18T10:18:32.031Z</time></trkpt><trkpt lat="42.0873047" lon="11.8898296"><ele>165.0</ele><time>2026-04-18T10:18:34.032Z</time></trkpt><trkpt lat="42.0873244" lon="11.8899603"><ele>165.0</ele><time>2026-04-18T10:18:36.028Z</time></trkpt><trkpt lat="42.0873029" lon="11.8901189"><ele>166.33333333333334</ele><time>2026-04-18T10:18:38.026Z</time></trkpt><trkpt lat="42.0872934" lon="11.8902115"><ele>167.66666666666666</ele><time>2026-04-18T10:18:39.027Z</time></trkpt><trkpt lat="42.0872796" lon="11.8902983"><ele>169.0</ele><time>2026-04-18T10:18:40.028Z</time></trkpt><trkpt lat="42.0872111" lon="11.8904467"><ele>170.33333333333331</ele><time>2026-04-18T10:18:42.034Z</time></trkpt><trkpt lat="42.0871608" lon="11.8905278"><ele>171.66666666666666</ele><time>2026-04-18T10:18:43.033Z</time></trkpt><trkpt lat="42.0871195" lon="11.8906229"><ele>173.0</ele><time>2026-04-18T10:18:44.028Z</time></trkpt><trkpt lat="42.0870872" lon="11.8907432"><ele>173.0</ele><time>2026-04-18T10:18:45.027Z</time></trkpt><trkpt lat="42.0870668" lon="11.8908783"><ele>173.0</ele><time>2026-04-18T10:18:46.019Z</time></trkpt><trkpt lat="42.0870633" lon="11.8910144"><ele>173.0</ele><time>2026-04-18T10:18:47.017Z</time></trkpt><trkpt lat="42.0870733" lon="11.8911449"><ele>173.0</ele><time>2026-04-18T10:18:48.024Z</time></trkpt><trkpt lat="42.0870802" lon="11.8912736"><ele>173.0</ele><time>2026-04-18T10:18:49.02Z</time></trkpt><trkpt lat="42.0870864" lon="11.8913991"><ele>174.2</ele><time>2026-04-18T10:18:50.026Z</time></trkpt><trkpt lat="42.087093" lon="11.8915223"><ele>175.4</ele><time>2026-04-18T10:18:51.021Z</time></trkpt><trkpt lat="42.0871073" lon="11.8916485"><ele>176.6</ele><time>2026-04-18T10:18:52.026Z</time></trkpt><trkpt lat="42.087133" lon="11.8917702"><ele>177.79999999999998</ele><time>2026-04-18T10:18:53.031Z</time></trkpt><trkpt lat="42.0871693" lon="11.8918855"><ele>179.0</ele><time>2026-04-18T10:18:54.03Z</time></trkpt><trkpt lat="42.0872192" lon="11.8919952"><ele>180.6</ele><time>2026-04-18T10:18:55.017Z</time></trkpt><trkpt lat="42.0872786" lon="11.8920961"><ele>182.2</ele><time>2026-04-18T10:18:56.027Z</time></trkpt><trkpt lat="42.0873482" lon="11.8921718"><ele>183.79999999999998</ele><time>2026-04-18T10:18:57.028Z</time></trkpt><trkpt lat="42.0874081" lon="11.8922097"><ele>185.39999999999998</ele><time>2026-04-18T10:18:58.018Z</time></trkpt><trkpt lat="42.0875063" lon="11.8922729"><ele>187.0</ele><time>2026-04-18T10:19:00.029Z</time></trkpt><trkpt lat="42.0876192" lon="11.8922958"><ele>188.16666666666669</ele><time>2026-04-18T10:19:02.043Z</time></trkpt><trkpt lat="42.0876912" lon="11.8923206"><ele>189.33333333333334</ele><time>2026-04-18T10:19:04.029Z</time></trkpt><trkpt lat="42.0876314" lon="11.8924112"><ele>190.5</ele><time>2026-04-18T10:20:57.045Z</time></trkpt><trkpt lat="42.0876255" lon="11.8925099"><ele>191.66666666666669</ele><time>2026-04-18T10:21:01.041Z</time></trkpt><trkpt lat="42.0876378" lon="11.8926508"><ele>192.83333333333334</ele><time>2026-04-18T10:21:03.016Z</time></trkpt><trkpt lat="42.0876438" lon="11.8927612"><ele>194.0</ele><time>2026-04-18T10:21:04.022Z</time></trkpt><trkpt lat="42.0876681" lon="11.892877"><ele>195.6</ele><time>2026-04-18T10:21:05.027Z</time></trkpt><trkpt lat="42.0877086" lon="11.892982"><ele>197.2</ele><time>2026-04-18T10:21:06.01Z</time></trkpt><trkpt lat="42.0877311" lon="11.8931034"><ele>198.79999999999998</ele><time>2026-04-18T10:21:07.014Z</time></trkpt><trkpt lat="42.087774" lon="11.8931716"><ele>200.39999999999998</ele><time>2026-04-18T10:21:08.031Z</time></trkpt><trkpt lat="42.087837" lon="11.8932939"><ele>202.0</ele><time>2026-04-18T10:21:10.031Z</time></trkpt><trkpt lat="42.0879084" lon="11.893418"><ele>202.99999999999997</ele><time>2026-04-18T10:21:12.035Z</time></trkpt><trkpt lat="42.0879487" lon="11.8935104"><ele>204.0</ele><time>2026-04-18T10:21:14.03Z</time></trkpt><trkpt lat="42.0879968" lon="11.8936294"><ele>205.0</ele><time>2026-04-18T10:21:16.033Z</time></trkpt><trkpt lat="42.0880041" lon="11.893725"><ele>206.0</ele><time>2026-04-18T10:21:45.039Z</time></trkpt><trkpt lat="42.0879555" lon="11.8938028"><ele>206.99999999999997</ele><time>2026-04-18T10:21:48.034Z</time></trkpt><trkpt lat="42.0880184" lon="11.8938583"><ele>208.0</ele><time>2026-04-18T10:21:51.024Z</time></trkpt><trkpt lat="42.088053" lon="11.8937792"><ele>208.0</ele><time>2026-04-18T10:21:53.038Z</time></trkpt><trkpt lat="42.0880271" lon="11.893669"><ele>208.0</ele><time>2026-04-18T10:21:56.038Z</time></trkpt><trkpt lat="42.0879948" lon="11.893584"><ele>208.0</ele><time>2026-04-18T10:21:59.045Z</time></trkpt><trkpt lat="42.0879438" lon="11.8934493"><ele>208.0</ele><time>2026-04-18T10:22:02.045Z</time></trkpt><trkpt lat="42.0878835" lon="11.8933195"><ele>208.0</ele><time>2026-04-18T10:22:04.041Z</time></trkpt><trkpt lat="42.087829" lon="11.8931994"><ele>206.8</ele><time>2026-04-18T10:22:06.034Z</time></trkpt><trkpt lat="42.0877751" lon="11.8930672"><ele>205.60000000000002</ele><time>2026-04-18T10:22:08.033Z</time></trkpt><trkpt lat="42.0877115" lon="11.8929436"><ele>204.39999999999998</ele><time>2026-04-18T10:22:10.033Z</time></trkpt><trkpt lat="42.0876594" lon="11.8928448"><ele>203.2</ele><time>2026-04-18T10:22:12.048Z</time></trkpt><trkpt lat="42.0876237" lon="11.892757"><ele>202.0</ele><time>2026-04-18T10:22:14.065Z</time></trkpt><trkpt lat="42.0876098" lon="11.892663"><ele>200.66666666666666</ele><time>2026-04-18T10:22:16.048Z</time></trkpt><trkpt lat="42.0876116" lon="11.892578"><ele>199.33333333333331</ele><time>2026-04-18T10:22:18.054Z</time></trkpt><trkpt lat="42.0876183" lon="11.892476"><ele>198.0</ele><time>2026-04-18T10:22:25.03Z</time></trkpt><trkpt lat="42.0876315" lon="11.892369"><ele>196.66666666666669</ele><time>2026-04-18T10:22:27.048Z</time></trkpt><trkpt lat="42.0876004" lon="11.8922279"><ele>195.33333333333334</ele><time>2026-04-18T10:22:29.025Z</time></trkpt><trkpt lat="42.0875133" lon="11.8921642"><ele>194.0</ele><time>2026-04-18T10:22:31.043Z</time></trkpt><trkpt lat="42.0874222" lon="11.892101"><ele>192.6</ele><time>2026-04-18T10:22:33.027Z</time></trkpt><trkpt lat="42.0873476" lon="11.8920256"><ele>191.2</ele><time>2026-04-18T10:22:35.042Z</time></trkpt><trkpt lat="42.0872944" lon="11.8919262"><ele>189.79999999999998</ele><time>2026-04-18T10:22:37.037Z</time></trkpt><trkpt lat="42.0872401" lon="11.8918415"><ele>188.39999999999998</ele><time>2026-04-18T10:22:39.042Z</time></trkpt><trkpt lat="42.0871679" lon="11.8917104"><ele>187.0</ele><time>2026-04-18T10:22:41.043Z</time></trkpt><trkpt lat="42.0871373" lon="11.8916333"><ele>185.66666666666669</ele><time>2026-04-18T10:22:42.034Z</time></trkpt><trkpt lat="42.0871099" lon="11.8915264"><ele>184.33333333333334</ele><time>2026-04-18T10:22:44.028Z</time></trkpt><trkpt lat="42.0871176" lon="11.8914301"><ele>183.0</ele><time>2026-04-18T10:22:46.044Z</time></trkpt><trkpt lat="42.0871175" lon="11.8913011"><ele>181.66666666666666</ele><time>2026-04-18T10:22:48.048Z</time></trkpt><trkpt lat="42.0871225" lon="11.8912112"><ele>180.33333333333331</ele><time>2026-04-18T10:22:50.043Z</time></trkpt><trkpt lat="42.0871668" lon="11.8911236"><ele>179.0</ele><time>2026-04-18T10:22:53.042Z</time></trkpt><trkpt lat="42.0872158" lon="11.8910688"><ele>179.0</ele><time>2026-04-18T10:22:55.045Z</time></trkpt><trkpt lat="42.0873041" lon="11.8910101"><ele>179.0</ele><time>2026-04-18T10:22:57.049Z</time></trkpt><trkpt lat="42.0873956" lon="11.8909553"><ele>179.0</ele><time>2026-04-18T10:22:59.044Z</time></trkpt><trkpt lat="42.0875126" lon="11.8908843"><ele>179.0</ele><time>2026-04-18T10:23:01.035Z</time></trkpt><trkpt lat="42.0875828" lon="11.8908461"><ele>179.0</ele><time>2026-04-18T10:23:02.042Z</time></trkpt><trkpt lat="42.0876565" lon="11.8908047"><ele>178.5</ele><time>2026-04-18T10:23:03.037Z</time></trkpt><trkpt lat="42.0877376" lon="11.8907717"><ele>178.0</ele><time>2026-04-18T10:23:04.037Z</time></trkpt><trkpt lat="42.0878173" lon="11.8907434"><ele>177.5</ele><time>2026-04-18T10:23:05.047Z</time></trkpt><trkpt lat="42.0878863" lon="11.8907036"><ele>177.0</ele><time>2026-04-18T10:23:06.042Z</time></trkpt><trkpt lat="42.0879372" lon="11.8906491"><ele>176.5</ele><time>2026-04-18T10:23:07.038Z</time></trkpt><trkpt lat="42.0879874" lon="11.8905688"><ele>176.0</ele><time>2026-04-18T10:23:09.031Z</time></trkpt><trkpt lat="42.0880336" lon="11.8904468"><ele>176.0</ele><time>2026-04-18T10:23:11.019Z</time></trkpt><trkpt lat="42.0880329" lon="11.8903092"><ele>176.0</ele><time>2026-04-18T10:23:13.033Z</time></trkpt><trkpt lat="42.0880055" lon="11.8901765"><ele>176.0</ele><time>2026-04-18T10:23:15.041Z</time></trkpt><trkpt lat="42.0880193" lon="11.8900495"><ele>176.0</ele><time>2026-04-18T10:23:17.042Z</time></trkpt><trkpt lat="42.0880644" lon="11.8899496"><ele>176.0</ele><time>2026-04-18T10:23:19.031Z</time></trkpt><trkpt lat="42.0881218" lon="11.8898418"><ele>176.0</ele><time>2026-04-18T10:23:21.034Z</time></trkpt><trkpt lat="42.0881708" lon="11.8897541"><ele>176.0</ele><time>2026-04-18T10:23:23.025Z</time></trkpt><trkpt lat="42.0882289" lon="11.8896583"><ele>176.0</ele><time>2026-04-18T10:23:25.029Z</time></trkpt><trkpt lat="42.0882786" lon="11.8895644"><ele>176.0</ele><time>2026-04-18T10:23:27.05Z</time></trkpt><trkpt lat="42.0883377" lon="11.8894552"><ele>176.0</ele><time>2026-04-18T10:23:29.033Z</time></trkpt><trkpt lat="42.0884102" lon="11.8893285"><ele>173.60000000000002</ele><time>2026-04-18T10:23:31.03Z</time></trkpt><trkpt lat="42.0884807" lon="11.8892023"><ele>171.2</ele><time>2026-04-18T10:23:33.026Z</time></trkpt><trkpt lat="42.088542" lon="11.8890849"><ele>168.8</ele><time>2026-04-18T10:23:35.029Z</time></trkpt><trkpt lat="42.0885992" lon="11.8889632"><ele>166.39999999999998</ele><time>2026-04-18T10:23:37.032Z</time></trkpt><trkpt lat="42.0886625" lon="11.8888694"><ele>164.0</ele><time>2026-04-18T10:23:39.046Z</time></trkpt><trkpt lat="42.088737" lon="11.8888147"><ele>164.0</ele><time>2026-04-18T10:23:41.04Z</time></trkpt><trkpt lat="42.0888214" lon="11.8887906"><ele>164.0</ele><time>2026-04-18T10:23:43.048Z</time></trkpt><trkpt lat="42.0889307" lon="11.8887754"><ele>164.0</ele><time>2026-04-18T10:23:45.048Z</time></trkpt><trkpt lat="42.0890324" lon="11.8887145"><ele>164.0</ele><time>2026-04-18T10:23:47.04Z</time></trkpt><trkpt lat="42.0891286" lon="11.8886535"><ele>164.0</ele><time>2026-04-18T10:23:49.036Z</time></trkpt><trkpt lat="42.0892013" lon="11.8885894"><ele>163.0</ele><time>2026-04-18T10:23:51.036Z</time></trkpt><trkpt lat="42.089283" lon="11.8885399"><ele>162.0</ele><time>2026-04-18T10:23:53.04Z</time></trkpt><trkpt lat="42.0893467" lon="11.8884952"><ele>161.0</ele><time>2026-04-18T10:23:55.024Z</time></trkpt><trkpt lat="42.0894319" lon="11.8883834"><ele>160.0</ele><time>2026-04-18T10:23:57.02Z</time></trkpt><trkpt lat="42.0895087" lon="11.8882871"><ele>159.0</ele><time>2026-04-18T10:23:59.03Z</time></trkpt><trkpt lat="42.0895601" lon="11.8881977"><ele>159.0</ele><time>2026-04-18T10:24:01.034Z</time></trkpt><trkpt lat="42.0896152" lon="11.8880894"><ele>159.0</ele><time>2026-04-18T10:24:03.033Z</time></trkpt><trkpt lat="42.089684" lon="11.8879865"><ele>159.0</ele><time>2026-04-18T10:24:05.032Z</time></trkpt><trkpt lat="42.0897557" lon="11.887938"><ele>159.0</ele><time>2026-04-18T10:24:07.03Z</time></trkpt><trkpt lat="42.089841" lon="11.8879006"><ele>159.0</ele><time>2026-04-18T10:24:09.026Z</time></trkpt><trkpt lat="42.0899251" lon="11.887856"><ele>159.0</ele><time>2026-04-18T10:24:11.03Z</time></trkpt><trkpt lat="42.0900133" lon="11.8878639"><ele>159.0</ele><time>2026-04-18T10:24:14.025Z</time></trkpt><trkpt lat="42.0901158" lon="11.8879031"><ele>159.0</ele><time>2026-04-18T10:24:16.015Z</time></trkpt><trkpt lat="42.0902402" lon="11.8879834"><ele>159.0</ele><time>2026-04-18T10:24:18.008Z</time></trkpt><trkpt lat="42.0903171" lon="11.8880308"><ele>159.0</ele><time>2026-04-18T10:24:19.019Z</time></trkpt><trkpt lat="42.0903893" lon="11.8880775"><ele>159.0</ele><time>2026-04-18T10:24:20.007Z</time></trkpt><trkpt lat="42.0904508" lon="11.8881104"><ele>159.0</ele><time>2026-04-18T10:24:21.008Z</time></trkpt><trkpt lat="42.0905408" lon="11.8881323"><ele>159.0</ele><time>2026-04-18T10:24:23.005Z</time></trkpt><trkpt lat="42.090647" lon="11.8881447"><ele>159.0</ele><time>2026-04-18T10:24:25.027Z</time></trkpt><trkpt lat="42.0907719" lon="11.8881102"><ele>159.0</ele><time>2026-04-18T10:24:27.034Z</time></trkpt><trkpt lat="42.0908725" lon="11.8880528"><ele>158.4</ele><time>2026-04-18T10:24:29.032Z</time></trkpt><trkpt lat="42.0909697" lon="11.8879946"><ele>157.8</ele><time>2026-04-18T10:24:31.014Z</time></trkpt><trkpt lat="42.0910663" lon="11.8879861"><ele>157.2</ele><time>2026-04-18T10:24:33.033Z</time></trkpt><trkpt lat="42.0911578" lon="11.888044"><ele>156.6</ele><time>2026-04-18T10:24:35.037Z</time></trkpt><trkpt lat="42.0912506" lon="11.8881468"><ele>156.0</ele><time>2026-04-18T10:24:37.023Z</time></trkpt><trkpt lat="42.0913388" lon="11.8882634"><ele>156.0</ele><time>2026-04-18T10:24:39.02Z</time></trkpt><trkpt lat="42.091422" lon="11.8883588"><ele>156.0</ele><time>2026-04-18T10:24:41.019Z</time></trkpt><trkpt lat="42.0914939" lon="11.8884538"><ele>156.0</ele><time>2026-04-18T10:24:43.031Z</time></trkpt><trkpt lat="42.0915633" lon="11.8885743"><ele>156.0</ele><time>2026-04-18T10:24:45.033Z</time></trkpt><trkpt lat="42.0915889" lon="11.8887018"><ele>156.0</ele><time>2026-04-18T10:24:47.026Z</time></trkpt><trkpt lat="42.0916041" lon="11.8887932"><ele>154.8</ele><time>2026-04-18T10:24:49.026Z</time></trkpt><trkpt lat="42.0916153" lon="11.8889091"><ele>153.6</ele><time>2026-04-18T10:24:51.014Z</time></trkpt><trkpt lat="42.0916341" lon="11.8890728"><ele>152.4</ele><time>2026-04-18T10:24:53.014Z</time></trkpt><trkpt lat="42.0916636" lon="11.8892328"><ele>151.2</ele><time>2026-04-18T10:24:55.023Z</time></trkpt><trkpt lat="42.0916865" lon="11.8893197"><ele>150.0</ele><time>2026-04-18T10:24:56.016Z</time></trkpt><trkpt lat="42.0917169" lon="11.8893987"><ele>149.99999999999997</ele><time>2026-04-18T10:24:57.007Z</time></trkpt><trkpt lat="42.0917442" lon="11.8894757"><ele>150.0</ele><time>2026-04-18T10:24:58.015Z</time></trkpt><trkpt lat="42.0917838" lon="11.889568"><ele>150.0</ele><time>2026-04-18T10:25:00.009Z</time></trkpt><trkpt lat="42.0918178" lon="11.8896525"><ele>150.0</ele><time>2026-04-18T10:25:02.017Z</time></trkpt><trkpt lat="42.0918209" lon="11.8897661"><ele>150.0</ele><time>2026-04-18T10:25:05.021Z</time></trkpt><trkpt lat="42.0917823" lon="11.8898684"><ele>149.99999999999997</ele><time>2026-04-18T10:25:08.025Z</time></trkpt><trkpt lat="42.0917674" lon="11.8899526"><ele>150.0</ele><time>2026-04-18T10:25:10.019Z</time></trkpt><trkpt lat="42.0918008" lon="11.8900336"><ele>150.0</ele><time>2026-04-18T10:25:13.022Z</time></trkpt><trkpt lat="42.0918978" lon="11.8900315"><ele>150.0</ele><time>2026-04-18T10:26:53.028Z</time></trkpt><trkpt lat="42.0920157" lon="11.8900374"><ele>150.0</ele><time>2026-04-18T10:26:55.008Z</time></trkpt><trkpt lat="42.0920896" lon="11.8900601"><ele>150.0</ele><time>2026-04-18T10:26:56.012Z</time></trkpt><trkpt lat="42.0921641" lon="11.8900895"><ele>150.0</ele><time>2026-04-18T10:26:57.022Z</time></trkpt><trkpt lat="42.0922338" lon="11.8901122"><ele>150.0</ele><time>2026-04-18T10:26:58.027Z</time></trkpt><trkpt lat="42.0922997" lon="11.890132"><ele>151.16666666666666</ele><time>2026-04-18T10:26:59.014Z</time></trkpt><trkpt lat="42.0923642" lon="11.8901346"><ele>152.33333333333334</ele><time>2026-04-18T10:27:00.017Z</time></trkpt><trkpt lat="42.0924347" lon="11.8901446"><ele>153.5</ele><time>2026-04-18T10:27:01.014Z</time></trkpt><trkpt lat="42.0925023" lon="11.890148"><ele>154.66666666666669</ele><time>2026-04-18T10:27:02.008Z</time></trkpt><trkpt lat="42.0925714" lon="11.89016"><ele>155.83333333333334</ele><time>2026-04-18T10:27:03.022Z</time></trkpt><trkpt lat="42.0926729" lon="11.8901434"><ele>157.0</ele><time>2026-04-18T10:27:05.005Z</time></trkpt><trkpt lat="42.0927482" lon="11.8900779"><ele>154.0</ele><time>2026-04-18T10:27:07.02Z</time></trkpt><trkpt lat="42.0928167" lon="11.8900287"><ele>151.0</ele><time>2026-04-18T10:27:09.044Z</time></trkpt><trkpt lat="42.0929008" lon="11.8899865"><ele>148.0</ele><time>2026-04-18T10:27:11.027Z</time></trkpt><trkpt lat="42.0929942" lon="11.8899561"><ele>145.0</ele><time>2026-04-18T10:27:14.033Z</time></trkpt><trkpt lat="42.093061" lon="11.8899697"><ele>142.0</ele><time>2026-04-18T10:27:16.008Z</time></trkpt><trkpt lat="42.0931666" lon="11.8900553"><ele>143.33333333333334</ele><time>2026-04-18T10:27:18.002Z</time></trkpt><trkpt lat="42.0932696" lon="11.8901354"><ele>144.66666666666669</ele><time>2026-04-18T10:27:20.003Z</time></trkpt><trkpt lat="42.093325" lon="11.8901773"><ele>146.0</ele><time>2026-04-18T10:27:21.02Z</time></trkpt><trkpt lat="42.0933987" lon="11.8902496"><ele>147.33333333333334</ele><time>2026-04-18T10:27:23.011Z</time></trkpt><trkpt lat="42.0934528" lon="11.8903035"><ele>148.66666666666666</ele><time>2026-04-18T10:27:26.021Z</time></trkpt><trkpt lat="42.0935162" lon="11.8903623"><ele>150.0</ele><time>2026-04-18T10:27:28.023Z</time></trkpt><trkpt lat="42.0936069" lon="11.8904497"><ele>150.0</ele><time>2026-04-18T10:27:30.025Z</time></trkpt><trkpt lat="42.0936927" lon="11.8905082"><ele>150.0</ele><time>2026-04-18T10:27:32.026Z</time></trkpt><trkpt lat="42.0937439" lon="11.8905609"><ele>150.0</ele><time>2026-04-18T10:27:34.034Z</time></trkpt><trkpt lat="42.0938185" lon="11.8906297"><ele>150.0</ele><time>2026-04-18T10:27:36.02Z</time></trkpt><trkpt lat="42.093883" lon="11.8907232"><ele>150.0</ele><time>2026-04-18T10:27:38.018Z</time></trkpt><trkpt lat="42.0939316" lon="11.8907875"><ele>150.0</ele><time>2026-04-18T10:27:40.02Z</time></trkpt><trkpt lat="42.0939869" lon="11.8908364"><ele>150.0</ele><time>2026-04-18T10:27:42.02Z</time></trkpt><trkpt lat="42.0940334" lon="11.8908946"><ele>150.0</ele><time>2026-04-18T10:38:53.012Z</time></trkpt><trkpt lat="42.0940961" lon="11.8909128"><ele>150.0</ele><time>2026-04-18T10:46:21.028Z</time></trkpt><trkpt lat="42.0941553" lon="11.8910141"><ele>150.0</ele><time>2026-04-18T10:46:23.015Z</time></trkpt><trkpt lat="42.0942689" lon="11.8910646"><ele>150.0</ele><time>2026-04-18T10:46:25.023Z</time></trkpt><trkpt lat="42.0943539" lon="11.8910977"><ele>150.0</ele><time>2026-04-18T10:46:27.022Z</time></trkpt><trkpt lat="42.0944747" lon="11.8911695"><ele>150.16666666666666</ele><time>2026-04-18T10:46:29.032Z</time></trkpt><trkpt lat="42.0945425" lon="11.8912048"><ele>150.33333333333334</ele><time>2026-04-18T10:46:30.026Z</time></trkpt><trkpt lat="42.0946084" lon="11.8912509"><ele>150.5</ele><time>2026-04-18T10:46:31.022Z</time></trkpt><trkpt lat="42.09468" lon="11.8913254"><ele>150.66666666666669</ele><time>2026-04-18T10:46:33.035Z</time></trkpt><trkpt lat="42.0947253" lon="11.8914196"><ele>150.83333333333334</ele><time>2026-04-18T10:46:35.039Z</time></trkpt><trkpt lat="42.0947757" lon="11.8915146"><ele>151.0</ele><time>2026-04-18T10:46:37.026Z</time></trkpt><trkpt lat="42.0948107" lon="11.8916444"><ele>151.0</ele><time>2026-04-18T10:46:39.026Z</time></trkpt><trkpt lat="42.0948785" lon="11.8917225"><ele>151.0</ele><time>2026-04-18T10:46:41.025Z</time></trkpt><trkpt lat="42.0949829" lon="11.8917561"><ele>151.0</ele><time>2026-04-18T10:46:43.029Z</time></trkpt><trkpt lat="42.0950794" lon="11.8917876"><ele>151.0</ele><time>2026-04-18T10:46:45.027Z</time></trkpt><trkpt lat="42.0951757" lon="11.8918169"><ele>151.0</ele><time>2026-04-18T10:46:47.018Z</time></trkpt><trkpt lat="42.0952433" lon="11.8918504"><ele>151.4</ele><time>2026-04-18T10:46:49.029Z</time></trkpt><trkpt lat="42.0953259" lon="11.8918989"><ele>151.8</ele><time>2026-04-18T10:46:52.038Z</time></trkpt><trkpt lat="42.095362" lon="11.8919855"><ele>152.20000000000002</ele><time>2026-04-18T10:46:54.037Z</time></trkpt><trkpt lat="42.0954219" lon="11.8921097"><ele>152.6</ele><time>2026-04-18T10:46:56.026Z</time></trkpt><trkpt lat="42.0954949" lon="11.8922302"><ele>153.0</ele><time>2026-04-18T10:46:58.026Z</time></trkpt><trkpt lat="42.0955509" lon="11.8923271"><ele>153.0</ele><time>2026-04-18T10:47:00.027Z</time></trkpt><trkpt lat="42.0956143" lon="11.8923877"><ele>153.0</ele><time>2026-04-18T10:47:02.038Z</time></trkpt><trkpt lat="42.0956722" lon="11.8924238"><ele>153.0</ele><time>2026-04-18T10:47:04.034Z</time></trkpt><trkpt lat="42.0957261" lon="11.8925257"><ele>153.0</ele><time>2026-04-18T10:47:08.037Z</time></trkpt><trkpt lat="42.095779" lon="11.8925887"><ele>153.0</ele><time>2026-04-18T10:47:10.045Z</time></trkpt><trkpt lat="42.0958381" lon="11.8926545"><ele>153.0</ele><time>2026-04-18T10:47:12.042Z</time></trkpt><trkpt lat="42.0959085" lon="11.8927006"><ele>150.4</ele><time>2026-04-18T10:47:15.033Z</time></trkpt><trkpt lat="42.0959533" lon="11.8927748"><ele>147.8</ele><time>2026-04-18T10:47:27.034Z</time></trkpt><trkpt lat="42.0960527" lon="11.8929633"><ele>145.2</ele><time>2026-04-18T10:47:29.033Z</time></trkpt><trkpt lat="42.096084" lon="11.8930731"><ele>142.6</ele><time>2026-04-18T10:47:30.024Z</time></trkpt><trkpt lat="42.0961408" lon="11.8931969"><ele>140.0</ele><time>2026-04-18T10:47:32.02Z</time></trkpt><trkpt lat="42.0962529" lon="11.8932079"><ele>140.0</ele><time>2026-04-18T10:47:34.041Z</time></trkpt><trkpt lat="42.0963491" lon="11.8932216"><ele>140.0</ele><time>2026-04-18T10:47:36.042Z</time></trkpt><trkpt lat="42.0964314" lon="11.8932399"><ele>140.0</ele><time>2026-04-18T10:47:38.045Z</time></trkpt><trkpt lat="42.0964939" lon="11.893289"><ele>140.0</ele><time>2026-04-18T10:47:40.043Z</time></trkpt><trkpt lat="42.096562" lon="11.8933438"><ele>140.0</ele><time>2026-04-18T10:47:42.051Z</time></trkpt><trkpt lat="42.0966438" lon="11.8934054"><ele>140.0</ele><time>2026-04-18T10:47:44.046Z</time></trkpt><trkpt lat="42.0967432" lon="11.8934822"><ele>138.4</ele><time>2026-04-18T10:47:46.03Z</time></trkpt><trkpt lat="42.0968306" lon="11.8935937"><ele>136.8</ele><time>2026-04-18T10:47:48.035Z</time></trkpt><trkpt lat="42.0969175" lon="11.893717"><ele>135.2</ele><time>2026-04-18T10:47:50.035Z</time></trkpt><trkpt lat="42.0969594" lon="11.893786"><ele>133.6</ele><time>2026-04-18T10:47:51.035Z</time></trkpt><trkpt lat="42.0969988" lon="11.8938652"><ele>132.0</ele><time>2026-04-18T10:47:52.028Z</time></trkpt><trkpt lat="42.09705" lon="11.8939996"><ele>132.0</ele><time>2026-04-18T10:47:54.023Z</time></trkpt><trkpt lat="42.0971196" lon="11.8940944"><ele>132.0</ele><time>2026-04-18T10:47:56.026Z</time></trkpt><trkpt lat="42.0972001" lon="11.8941954"><ele>132.0</ele><time>2026-04-18T10:47:58.035Z</time></trkpt><trkpt lat="42.0972825" lon="11.8942991"><ele>132.0</ele><time>2026-04-18T10:48:00.03Z</time></trkpt><trkpt lat="42.0973647" lon="11.8944193"><ele>132.0</ele><time>2026-04-18T10:48:02.034Z</time></trkpt><trkpt lat="42.0974368" lon="11.8945102"><ele>132.5</ele><time>2026-04-18T10:48:04.027Z</time></trkpt><trkpt lat="42.0975125" lon="11.8945565"><ele>133.0</ele><time>2026-04-18T10:48:06.032Z</time></trkpt><trkpt lat="42.0975839" lon="11.8945887"><ele>133.5</ele><time>2026-04-18T10:48:08.046Z</time></trkpt><trkpt lat="42.0976547" lon="11.8946283"><ele>134.0</ele><time>2026-04-18T10:48:10.029Z</time></trkpt><trkpt lat="42.0977674" lon="11.8947235"><ele>134.5</ele><time>2026-04-18T10:48:12.039Z</time></trkpt><trkpt lat="42.0978341" lon="11.8947677"><ele>135.0</ele><time>2026-04-18T10:48:13.042Z</time></trkpt><trkpt lat="42.0979053" lon="11.8948157"><ele>135.0</ele><time>2026-04-18T10:48:14.039Z</time></trkpt><trkpt lat="42.0979785" lon="11.8948505"><ele>135.0</ele><time>2026-04-18T10:48:15.031Z</time></trkpt><trkpt lat="42.0980531" lon="11.8948833"><ele>135.0</ele><time>2026-04-18T10:48:16.04Z</time></trkpt><trkpt lat="42.098128" lon="11.8949127"><ele>135.0</ele><time>2026-04-18T10:48:17.041Z</time></trkpt><trkpt lat="42.0982" lon="11.894945"><ele>135.0</ele><time>2026-04-18T10:48:18.046Z</time></trkpt><trkpt lat="42.0982712" lon="11.8949782"><ele>135.0</ele><time>2026-04-18T10:48:19.037Z</time></trkpt><trkpt lat="42.0983447" lon="11.8950124"><ele>134.6</ele><time>2026-04-18T10:48:20.046Z</time></trkpt><trkpt lat="42.0984224" lon="11.8950412"><ele>134.2</ele><time>2026-04-18T10:48:21.041Z</time></trkpt><trkpt lat="42.0985048" lon="11.8950659"><ele>133.8</ele><time>2026-04-18T10:48:22.044Z</time></trkpt><trkpt lat="42.0985855" lon="11.895105"><ele>133.4</ele><time>2026-04-18T10:48:23.03Z</time></trkpt><trkpt lat="42.0986683" lon="11.8951753"><ele>133.0</ele><time>2026-04-18T10:48:24.019Z</time></trkpt><trkpt lat="42.0987399" lon="11.895273"><ele>134.0</ele><time>2026-04-18T10:48:25.024Z</time></trkpt><trkpt lat="42.0988026" lon="11.8953857"><ele>135.0</ele><time>2026-04-18T10:48:26.025Z</time></trkpt><trkpt lat="42.0988581" lon="11.8955029"><ele>136.0</ele><time>2026-04-18T10:48:27.032Z</time></trkpt><trkpt lat="42.0989021" lon="11.8956244"><ele>137.0</ele><time>2026-04-18T10:48:28.029Z</time></trkpt><trkpt lat="42.0989197" lon="11.8957469"><ele>138.0</ele><time>2026-04-18T10:48:29.018Z</time></trkpt><trkpt lat="42.0989297" lon="11.8958511"><ele>140.4</ele><time>2026-04-18T10:48:30.025Z</time></trkpt><trkpt lat="42.0989412" lon="11.8959487"><ele>142.8</ele><time>2026-04-18T10:48:31.033Z</time></trkpt><trkpt lat="42.0989804" lon="11.8961011"><ele>145.2</ele><time>2026-04-18T10:48:33.029Z</time></trkpt><trkpt lat="42.0990553" lon="11.8961617"><ele>147.6</ele><time>2026-04-18T10:48:35.034Z</time></trkpt><trkpt lat="42.0991884" lon="11.8961485"><ele>150.0</ele><time>2026-04-18T10:48:37.051Z</time></trkpt><trkpt lat="42.0992598" lon="11.8961029"><ele>150.0</ele><time>2026-04-18T10:48:38.04Z</time></trkpt><trkpt lat="42.0993236" lon="11.8960527"><ele>150.0</ele><time>2026-04-18T10:48:39.036Z</time></trkpt><trkpt lat="42.0993864" lon="11.8960046"><ele>150.0</ele><time>2026-04-18T10:48:40.035Z</time></trkpt><trkpt lat="42.0994515" lon="11.8959746"><ele>150.0</ele><time>2026-04-18T10:48:41.032Z</time></trkpt><trkpt lat="42.0995835" lon="11.8960003"><ele>150.0</ele><time>2026-04-18T10:48:43.03Z</time></trkpt><trkpt lat="42.0996438" lon="11.8960497"><ele>150.0</ele><time>2026-04-18T10:48:44.038Z</time></trkpt><trkpt lat="42.0996832" lon="11.8961287"><ele>150.0</ele><time>2026-04-18T10:48:45.034Z</time></trkpt><trkpt lat="42.099722" lon="11.8962035"><ele>150.0</ele><time>2026-04-18T10:48:46.038Z</time></trkpt><trkpt lat="42.0997791" lon="11.8963284"><ele>150.0</ele><time>2026-04-18T10:48:48.037Z</time></trkpt><trkpt lat="42.0998276" lon="11.8964287"><ele>150.0</ele><time>2026-04-18T10:48:50.055Z</time></trkpt><trkpt lat="42.0998903" lon="11.8965293"><ele>150.0</ele><time>2026-04-18T10:48:52.05Z</time></trkpt><trkpt lat="42.099974" lon="11.8966226"><ele>150.57142857142856</ele><time>2026-04-18T10:48:54.035Z</time></trkpt><trkpt lat="42.1000393" lon="11.896666"><ele>151.14285714285714</ele><time>2026-04-18T10:48:55.034Z</time></trkpt><trkpt lat="42.1001048" lon="11.8967231"><ele>151.71428571428572</ele><time>2026-04-18T10:48:56.047Z</time></trkpt><trkpt lat="42.1001694" lon="11.8967847"><ele>152.28571428571428</ele><time>2026-04-18T10:48:57.038Z</time></trkpt><trkpt lat="42.1002303" lon="11.896838"><ele>152.85714285714286</ele><time>2026-04-18T10:48:58.034Z</time></trkpt><trkpt lat="42.1002962" lon="11.8968822"><ele>153.42857142857142</ele><time>2026-04-18T10:48:59.04Z</time></trkpt><trkpt lat="42.1003497" lon="11.8969368"><ele>154.0</ele><time>2026-04-18T10:49:00.038Z</time></trkpt><trkpt lat="42.1004107" lon="11.8969833"><ele>154.0</ele><time>2026-04-18T10:49:01.041Z</time></trkpt><trkpt lat="42.1004805" lon="11.8970361"><ele>154.0</ele><time>2026-04-18T10:49:02.038Z</time></trkpt><trkpt lat="42.100546" lon="11.8970786"><ele>154.0</ele><time>2026-04-18T10:49:03.045Z</time></trkpt><trkpt lat="42.100604" lon="11.8971343"><ele>154.0</ele><time>2026-04-18T10:49:04.047Z</time></trkpt><trkpt lat="42.1006648" lon="11.8971803"><ele>154.0</ele><time>2026-04-18T10:49:05.032Z</time></trkpt><trkpt lat="42.1007246" lon="11.8972398"><ele>154.0</ele><time>2026-04-18T10:49:06.031Z</time></trkpt><trkpt lat="42.1007932" lon="11.8973099"><ele>154.16666666666669</ele><time>2026-04-18T10:49:07.039Z</time></trkpt><trkpt lat="42.1008507" lon="11.8973798"><ele>154.33333333333334</ele><time>2026-04-18T10:49:08.051Z</time></trkpt><trkpt lat="42.1009158" lon="11.8974442"><ele>154.5</ele><time>2026-04-18T10:49:09.042Z</time></trkpt><trkpt lat="42.1009784" lon="11.8975186"><ele>154.66666666666666</ele><time>2026-04-18T10:49:10.03Z</time></trkpt><trkpt lat="42.1010216" lon="11.8976024"><ele>154.83333333333331</ele><time>2026-04-18T10:49:11.027Z</time></trkpt><trkpt lat="42.1010632" lon="11.8977484"><ele>155.0</ele><time>2026-04-18T10:49:13.034Z</time></trkpt><trkpt lat="42.1010906" lon="11.8978997"><ele>155.0</ele><time>2026-04-18T10:49:15.026Z</time></trkpt><trkpt lat="42.1011225" lon="11.898058"><ele>155.0</ele><time>2026-04-18T10:49:17.023Z</time></trkpt><trkpt lat="42.101158" lon="11.8981286"><ele>155.0</ele><time>2026-04-18T10:49:18.025Z</time></trkpt><trkpt lat="42.1012079" lon="11.8981952"><ele>155.0</ele><time>2026-04-18T10:49:19.02Z</time></trkpt><trkpt lat="42.1012634" lon="11.8982398"><ele>155.0</ele><time>2026-04-18T10:49:20.037Z</time></trkpt><trkpt lat="42.1013259" lon="11.8982726"><ele>155.0</ele><time>2026-04-18T10:49:21.035Z</time></trkpt><trkpt lat="42.1013949" lon="11.8983144"><ele>155.0</ele><time>2026-04-18T10:49:22.047Z</time></trkpt><trkpt lat="42.1014738" lon="11.8983453"><ele>155.0</ele><time>2026-04-18T10:49:23.045Z</time></trkpt><trkpt lat="42.1015411" lon="11.8983877"><ele>155.0</ele><time>2026-04-18T10:49:24.048Z</time></trkpt><trkpt lat="42.1016022" lon="11.8984349"><ele>155.0</ele><time>2026-04-18T10:49:25.042Z</time></trkpt><trkpt lat="42.1016904" lon="11.898535"><ele>155.0</ele><time>2026-04-18T10:49:27.042Z</time></trkpt><trkpt lat="42.101769" lon="11.8986353"><ele>156.2</ele><time>2026-04-18T10:49:29.032Z</time></trkpt><trkpt lat="42.1018412" lon="11.8987328"><ele>157.4</ele><time>2026-04-18T10:49:31.028Z</time></trkpt><trkpt lat="42.1019215" lon="11.8988446"><ele>158.60000000000002</ele><time>2026-04-18T10:49:33.033Z</time></trkpt><trkpt lat="42.1020356" lon="11.8989347"><ele>159.8</ele><time>2026-04-18T10:49:35.031Z</time></trkpt><trkpt lat="42.102113" lon="11.8989482"><ele>161.0</ele><time>2026-04-18T10:49:36.023Z</time></trkpt><trkpt lat="42.1021803" lon="11.8989428"><ele>161.0</ele><time>2026-04-18T10:49:37.031Z</time></trkpt><trkpt lat="42.1022827" lon="11.898945"><ele>161.0</ele><time>2026-04-18T10:49:39.04Z</time></trkpt><trkpt lat="42.102357" lon="11.8990144"><ele>161.0</ele><time>2026-04-18T10:49:41.034Z</time></trkpt><trkpt lat="42.1024108" lon="11.8989431"><ele>161.0</ele><time>2026-04-18T10:50:42.033Z</time></trkpt><trkpt lat="42.102383" lon="11.8988655"><ele>161.0</ele><time>2026-04-18T10:50:44.038Z</time></trkpt><trkpt lat="42.1023345" lon="11.8987631"><ele>161.0</ele><time>2026-04-18T10:50:46.044Z</time></trkpt><trkpt lat="42.1022505" lon="11.8986473"><ele>161.0</ele><time>2026-04-18T10:50:48.038Z</time></trkpt><trkpt lat="42.102139" lon="11.8985867"><ele>161.0</ele><time>2026-04-18T10:50:50.041Z</time></trkpt><trkpt lat="42.102081" lon="11.8985534"><ele>161.0</ele><time>2026-04-18T10:50:51.024Z</time></trkpt><trkpt lat="42.1019905" lon="11.8985039"><ele>161.0</ele><time>2026-04-18T10:50:53.044Z</time></trkpt><trkpt lat="42.1019174" lon="11.8984451"><ele>161.0</ele><time>2026-04-18T10:50:55.045Z</time></trkpt><trkpt lat="42.101854" lon="11.8983834"><ele>161.0</ele><time>2026-04-18T10:50:57.048Z</time></trkpt><trkpt lat="42.1017958" lon="11.8983171"><ele>161.0</ele><time>2026-04-18T10:50:59.033Z</time></trkpt><trkpt lat="42.101751" lon="11.8982309"><ele>161.0</ele><time>2026-04-18T10:51:02.042Z</time></trkpt><trkpt lat="42.1017554" lon="11.8983171"><ele>161.0</ele><time>2026-04-18T10:59:21.013Z</time></trkpt><trkpt lat="42.1017801" lon="11.8984"><ele>161.0</ele><time>2026-04-18T10:59:24Z</time></trkpt><trkpt lat="42.1018415" lon="11.898432"><ele>161.0</ele><time>2026-04-18T11:00:47.99Z</time></trkpt><trkpt lat="42.1019123" lon="11.8984944"><ele>161.0</ele><time>2026-04-18T11:00:49.989Z</time></trkpt><trkpt lat="42.1020118" lon="11.8985975"><ele>161.0</ele><time>2026-04-18T11:00:51.992Z</time></trkpt><trkpt lat="42.1020818" lon="11.8986414"><ele>161.0</ele><time>2026-04-18T11:00:52.994Z</time></trkpt><trkpt lat="42.1021477" lon="11.8986733"><ele>161.0</ele><time>2026-04-18T11:00:53.987Z</time></trkpt><trkpt lat="42.1022644" lon="11.898715"><ele>161.0</ele><time>2026-04-18T11:00:55.991Z</time></trkpt><trkpt lat="42.1023537" lon="11.898812"><ele>161.0</ele><time>2026-04-18T11:00:57.985Z</time></trkpt><trkpt lat="42.1023874" lon="11.8989393"><ele>161.0</ele><time>2026-04-18T11:00:59.983Z</time></trkpt><trkpt lat="42.1023592" lon="11.899037"><ele>161.0</ele><time>2026-04-18T11:01:01.992Z</time></trkpt><trkpt lat="42.1024052" lon="11.8991441"><ele>161.0</ele><time>2026-04-18T11:01:07.99Z</time></trkpt><trkpt lat="42.1025" lon="11.8992998"><ele>161.0</ele><time>2026-04-18T11:01:09.995Z</time></trkpt><trkpt lat="42.1025585" lon="11.8993878"><ele>161.0</ele><time>2026-04-18T11:01:11.004Z</time></trkpt><trkpt lat="42.102617" lon="11.8994811"><ele>160.5</ele><time>2026-04-18T11:01:11.997Z</time></trkpt><trkpt lat="42.1026606" lon="11.8995683"><ele>160.0</ele><time>2026-04-18T11:01:12.991Z</time></trkpt><trkpt lat="42.1027037" lon="11.8996544"><ele>159.5</ele><time>2026-04-18T11:01:13.989Z</time></trkpt><trkpt lat="42.1027335" lon="11.8997417"><ele>159.0</ele><time>2026-04-18T11:01:14.987Z</time></trkpt><trkpt lat="42.10276" lon="11.8998246"><ele>158.5</ele><time>2026-04-18T11:01:15.988Z</time></trkpt><trkpt lat="42.1027935" lon="11.8999745"><ele>158.0</ele><time>2026-04-18T11:01:18Z</time></trkpt><trkpt lat="42.1028281" lon="11.9000957"><ele>160.33333333333331</ele><time>2026-04-18T11:01:19.996Z</time></trkpt><trkpt lat="42.1028632" lon="11.9002044"><ele>162.66666666666666</ele><time>2026-04-18T11:01:21.997Z</time></trkpt><trkpt lat="42.102943" lon="11.9003112"><ele>165.0</ele><time>2026-04-18T11:01:24Z</time></trkpt><trkpt lat="42.1029867" lon="11.9003798"><ele>167.33333333333334</ele><time>2026-04-18T11:01:24.994Z</time></trkpt><trkpt lat="42.1030209" lon="11.9004586"><ele>169.66666666666669</ele><time>2026-04-18T11:01:25.99Z</time></trkpt><trkpt lat="42.1030555" lon="11.900538"><ele>172.0</ele><time>2026-04-18T11:01:26.994Z</time></trkpt><trkpt lat="42.1030745" lon="11.9006754"><ele>172.0</ele><time>2026-04-18T11:01:28.999Z</time></trkpt><trkpt lat="42.1031118" lon="11.9007778"><ele>172.0</ele><time>2026-04-18T11:01:30.998Z</time></trkpt><trkpt lat="42.1031533" lon="11.9008503"><ele>172.0</ele><time>2026-04-18T11:01:32.985Z</time></trkpt><trkpt lat="42.1032482" lon="11.9008939"><ele>172.0</ele><time>2026-04-18T11:01:36.98Z</time></trkpt><trkpt lat="42.10334" lon="11.9009088"><ele>172.0</ele><time>2026-04-18T11:01:39.989Z</time></trkpt><trkpt lat="42.1034293" lon="11.900948"><ele>172.0</ele><time>2026-04-18T11:01:41.986Z</time></trkpt><trkpt lat="42.1035229" lon="11.9010076"><ele>171.2857142857143</ele><time>2026-04-18T11:01:43.987Z</time></trkpt><trkpt lat="42.1035853" lon="11.9010453"><ele>170.57142857142858</ele><time>2026-04-18T11:01:45.991Z</time></trkpt><trkpt lat="42.1035325" lon="11.9010939"><ele>169.85714285714286</ele><time>2026-04-18T11:08:23.99Z</time></trkpt><trkpt lat="42.1035981" lon="11.9010804"><ele>169.14285714285717</ele><time>2026-04-18T11:08:32.967Z</time></trkpt><trkpt lat="42.1036424" lon="11.9010088"><ele>168.42857142857144</ele><time>2026-04-18T11:08:39.975Z</time></trkpt><trkpt lat="42.1035801" lon="11.9011319"><ele>167.71428571428572</ele><time>2026-04-18T11:10:37.019Z</time></trkpt><trkpt lat="42.1036415" lon="11.9011097"><ele>167.0</ele><time>2026-04-18T11:13:22.029Z</time></trkpt><trkpt lat="42.1037194" lon="11.9010941"><ele>167.0</ele><time>2026-04-18T11:13:24.061Z</time></trkpt><trkpt lat="42.1037921" lon="11.9010526"><ele>167.0</ele><time>2026-04-18T11:13:26.026Z</time></trkpt><trkpt lat="42.1038527" lon="11.9010149"><ele>167.0</ele><time>2026-04-18T11:13:29.027Z</time></trkpt><trkpt lat="42.103915" lon="11.900962"><ele>167.0</ele><time>2026-04-18T11:15:19.006Z</time></trkpt><trkpt lat="42.1039956" lon="11.9009263"><ele>167.0</ele><time>2026-04-18T11:15:22.008Z</time></trkpt><trkpt lat="42.1040564" lon="11.9008722"><ele>167.0</ele><time>2026-04-18T11:15:24.013Z</time></trkpt><trkpt lat="42.1039947" lon="11.900772"><ele>164.75</ele><time>2026-04-18T11:15:26.014Z</time></trkpt><trkpt lat="42.1038918" lon="11.9007813"><ele>162.5</ele><time>2026-04-18T11:15:28.012Z</time></trkpt><trkpt lat="42.1038375" lon="11.9008257"><ele>160.25</ele><time>2026-04-18T11:15:29.009Z</time></trkpt><trkpt lat="42.1039212" lon="11.9008304"><ele>158.0</ele><time>2026-04-18T11:43:05.009Z</time></trkpt><trkpt lat="42.1042558" lon="11.9007654"><ele>158.0</ele><time>2026-04-18T11:43:10.008Z</time></trkpt><trkpt lat="42.1043261" lon="11.9007613"><ele>158.0</ele><time>2026-04-18T11:43:11.019Z</time></trkpt><trkpt lat="42.1048107" lon="11.9008399"><ele>158.0</ele><time>2026-04-18T11:43:19.011Z</time></trkpt><trkpt lat="42.1048821" lon="11.9008566"><ele>158.0</ele><time>2026-04-18T11:43:20.015Z</time></trkpt><trkpt lat="42.1049515" lon="11.900873"><ele>158.0</ele><time>2026-04-18T11:43:21.002Z</time></trkpt><trkpt lat="42.1050537" lon="11.9009316"><ele>158.0</ele><time>2026-04-18T11:43:22.997Z</time></trkpt><trkpt lat="42.1051326" lon="11.9010278"><ele>158.0</ele><time>2026-04-18T11:43:24.992Z</time></trkpt><trkpt lat="42.1051673" lon="11.9011002"><ele>158.0</ele><time>2026-04-18T11:43:25.993Z</time></trkpt><trkpt lat="42.1052555" lon="11.9011921"><ele>161.0</ele><time>2026-04-18T11:43:27.993Z</time></trkpt><trkpt lat="42.1053536" lon="11.9012371"><ele>164.0</ele><time>2026-04-18T11:43:30.003Z</time></trkpt><trkpt lat="42.1053857" lon="11.9013314"><ele>167.0</ele><time>2026-04-18T11:43:33.018Z</time></trkpt><trkpt lat="42.1053547" lon="11.9014209"><ele>170.0</ele><time>2026-04-18T11:43:35.02Z</time></trkpt><trkpt lat="42.105277" lon="11.9015101"><ele>173.0</ele><time>2026-04-18T11:43:37.011Z</time></trkpt><trkpt lat="42.1052269" lon="11.9016061"><ele>176.0</ele><time>2026-04-18T11:43:39.011Z</time></trkpt><trkpt lat="42.1052439" lon="11.9017141"><ele>178.83333333333331</ele><time>2026-04-18T11:43:45.019Z</time></trkpt><trkpt lat="42.1052813" lon="11.9017869"><ele>181.66666666666666</ele><time>2026-04-18T11:43:56.993Z</time></trkpt><trkpt lat="42.105347" lon="11.901904"><ele>184.5</ele><time>2026-04-18T11:43:59.004Z</time></trkpt><trkpt lat="42.1054045" lon="11.9019937"><ele>187.33333333333331</ele><time>2026-04-18T11:44:00.01Z</time></trkpt><trkpt lat="42.1054375" lon="11.9020881"><ele>190.16666666666666</ele><time>2026-04-18T11:44:01.005Z</time></trkpt><trkpt lat="42.1054935" lon="11.902167"><ele>193.0</ele><time>2026-04-18T11:44:02.004Z</time></trkpt><trkpt lat="42.1055429" lon="11.9022245"><ele>192.99999999999997</ele><time>2026-04-18T11:44:02.998Z</time></trkpt><trkpt lat="42.1056322" lon="11.9023474"><ele>193.0</ele><time>2026-04-18T11:44:04.996Z</time></trkpt><trkpt lat="42.1056744" lon="11.9024266"><ele>193.0</ele><time>2026-04-18T11:44:06.002Z</time></trkpt><trkpt lat="42.105711" lon="11.9025073"><ele>193.0</ele><time>2026-04-18T11:44:06.999Z</time></trkpt><trkpt lat="42.1057529" lon="11.9025753"><ele>192.99999999999997</ele><time>2026-04-18T11:44:08.001Z</time></trkpt><trkpt lat="42.1057917" lon="11.9026476"><ele>193.0</ele><time>2026-04-18T11:44:09Z</time></trkpt><trkpt lat="42.105829" lon="11.9027174"><ele>191.99999999999997</ele><time>2026-04-18T11:44:10.003Z</time></trkpt><trkpt lat="42.1058923" lon="11.9027578"><ele>191.0</ele><time>2026-04-18T11:44:11.003Z</time></trkpt><trkpt lat="42.1059648" lon="11.9027704"><ele>190.0</ele><time>2026-04-18T11:44:11.983Z</time></trkpt><trkpt lat="42.1060425" lon="11.902739"><ele>189.0</ele><time>2026-04-18T11:44:12.985Z</time></trkpt><trkpt lat="42.1061164" lon="11.9026921"><ele>188.0</ele><time>2026-04-18T11:44:13.976Z</time></trkpt><trkpt lat="42.1061736" lon="11.902609"><ele>187.0</ele><time>2026-04-18T11:44:14.97Z</time></trkpt><trkpt lat="42.1062134" lon="11.9025333"><ele>187.0</ele><time>2026-04-18T11:44:15.987Z</time></trkpt><trkpt lat="42.1062625" lon="11.9024659"><ele>187.0</ele><time>2026-04-18T11:44:16.978Z</time></trkpt><trkpt lat="42.1063015" lon="11.9023811"><ele>187.0</ele><time>2026-04-18T11:44:17.98Z</time></trkpt><trkpt lat="42.1063408" lon="11.9023124"><ele>187.0</ele><time>2026-04-18T11:44:18.998Z</time></trkpt><trkpt lat="42.1063996" lon="11.9022739"><ele>187.0</ele><time>2026-04-18T11:44:20.003Z</time></trkpt><trkpt lat="42.1065187" lon="11.9022453"><ele>187.0</ele><time>2026-04-18T11:44:22.005Z</time></trkpt><trkpt lat="42.106614" lon="11.9022498"><ele>188.2</ele><time>2026-04-18T11:44:24.007Z</time></trkpt><trkpt lat="42.1067076" lon="11.9022898"><ele>189.39999999999998</ele><time>2026-04-18T11:44:26.009Z</time></trkpt><trkpt lat="42.1067678" lon="11.9024023"><ele>190.60000000000002</ele><time>2026-04-18T11:44:28.002Z</time></trkpt><trkpt lat="42.1068181" lon="11.902547"><ele>191.8</ele><time>2026-04-18T11:44:30.004Z</time></trkpt><trkpt lat="42.1068494" lon="11.9026266"><ele>193.0</ele><time>2026-04-18T11:44:31.016Z</time></trkpt><trkpt lat="42.1069267" lon="11.9027477"><ele>195.2</ele><time>2026-04-18T11:44:33.003Z</time></trkpt><trkpt lat="42.1070032" lon="11.9028704"><ele>197.4</ele><time>2026-04-18T11:44:35.01Z</time></trkpt><trkpt lat="42.1070424" lon="11.9029381"><ele>199.6</ele><time>2026-04-18T11:44:36.01Z</time></trkpt><trkpt lat="42.1071203" lon="11.903026"><ele>201.79999999999998</ele><time>2026-04-18T11:44:38.012Z</time></trkpt><trkpt lat="42.1072012" lon="11.9031254"><ele>204.0</ele><time>2026-04-18T11:44:40.015Z</time></trkpt><trkpt lat="42.107264" lon="11.9032527"><ele>204.0</ele><time>2026-04-18T11:44:42.012Z</time></trkpt><trkpt lat="42.1072792" lon="11.9033477"><ele>204.0</ele><time>2026-04-18T11:44:44.015Z</time></trkpt><trkpt lat="42.1073117" lon="11.9034327"><ele>204.0</ele><time>2026-04-18T11:44:46.011Z</time></trkpt><trkpt lat="42.1073734" lon="11.9034894"><ele>204.0</ele><time>2026-04-18T11:44:48.022Z</time></trkpt><trkpt lat="42.1074297" lon="11.903545"><ele>204.0</ele><time>2026-04-18T11:44:50.013Z</time></trkpt><trkpt lat="42.1074616" lon="11.9036372"><ele>204.0</ele><time>2026-04-18T11:44:52.005Z</time></trkpt><trkpt lat="42.1074859" lon="11.9037445"><ele>204.0</ele><time>2026-04-18T11:44:54.005Z</time></trkpt><trkpt lat="42.1075022" lon="11.9038398"><ele>207.39999999999998</ele><time>2026-04-18T11:44:56Z</time></trkpt><trkpt lat="42.1075966" lon="11.9038177"><ele>210.8</ele><time>2026-04-18T11:44:58.983Z</time></trkpt><trkpt lat="42.107653" lon="11.9037666"><ele>214.20000000000002</ele><time>2026-04-18T11:44:59.997Z</time></trkpt><trkpt lat="42.107706" lon="11.9037188"><ele>217.60000000000002</ele><time>2026-04-18T11:45:01.005Z</time></trkpt><trkpt lat="42.1077873" lon="11.9035994"><ele>221.0</ele><time>2026-04-18T11:45:03.002Z</time></trkpt><trkpt lat="42.1078875" lon="11.9035654"><ele>221.00000000000003</ele><time>2026-04-18T11:45:05.007Z</time></trkpt><trkpt lat="42.1079777" lon="11.9035502"><ele>221.0</ele><time>2026-04-18T11:45:06.997Z</time></trkpt><trkpt lat="42.1080483" lon="11.9035462"><ele>221.0</ele><time>2026-04-18T11:45:08.993Z</time></trkpt><trkpt lat="42.1081724" lon="11.9035448"><ele>221.0</ele><time>2026-04-18T11:45:10.995Z</time></trkpt><trkpt lat="42.1082438" lon="11.9035482"><ele>221.00000000000003</ele><time>2026-04-18T11:45:11.997Z</time></trkpt><trkpt lat="42.1083092" lon="11.9035619"><ele>221.0</ele><time>2026-04-18T11:45:12.998Z</time></trkpt><trkpt lat="42.1083882" lon="11.9036048"><ele>220.83333333333334</ele><time>2026-04-18T11:45:15.018Z</time></trkpt><trkpt lat="42.108454" lon="11.9037013"><ele>220.66666666666669</ele><time>2026-04-18T11:45:17.009Z</time></trkpt><trkpt lat="42.1084798" lon="11.9038031"><ele>220.5</ele><time>2026-04-18T11:45:19.015Z</time></trkpt><trkpt lat="42.1084959" lon="11.9038857"><ele>220.33333333333331</ele><time>2026-04-18T11:45:23.013Z</time></trkpt><trkpt lat="42.1085398" lon="11.9039877"><ele>220.16666666666666</ele><time>2026-04-18T11:45:43.979Z</time></trkpt><trkpt lat="42.1085817" lon="11.9040548"><ele>220.0</ele><time>2026-04-18T11:45:44.979Z</time></trkpt><trkpt lat="42.1086359" lon="11.9041217"><ele>219.99999999999997</ele><time>2026-04-18T11:45:45.98Z</time></trkpt><trkpt lat="42.1086895" lon="11.9042073"><ele>220.0</ele><time>2026-04-18T11:45:46.979Z</time></trkpt><trkpt lat="42.1087344" lon="11.9043016"><ele>220.0</ele><time>2026-04-18T11:45:47.992Z</time></trkpt><trkpt lat="42.108774" lon="11.9043882"><ele>220.0</ele><time>2026-04-18T11:45:48.982Z</time></trkpt><trkpt lat="42.1088235" lon="11.9044711"><ele>219.99999999999997</ele><time>2026-04-18T11:45:49.988Z</time></trkpt><trkpt lat="42.1088837" lon="11.9045627"><ele>220.0</ele><time>2026-04-18T11:45:50.989Z</time></trkpt><trkpt lat="42.1089327" lon="11.9046416"><ele>222.4</ele><time>2026-04-18T11:45:51.993Z</time></trkpt><trkpt lat="42.1089835" lon="11.9047205"><ele>224.8</ele><time>2026-04-18T11:45:52.997Z</time></trkpt><trkpt lat="42.109063" lon="11.9048084"><ele>227.2</ele><time>2026-04-18T11:45:54.997Z</time></trkpt><trkpt lat="42.1091328" lon="11.9048613"><ele>229.6</ele><time>2026-04-18T11:45:57.002Z</time></trkpt><trkpt lat="42.1092068" lon="11.9048982"><ele>232.0</ele><time>2026-04-18T11:45:59.006Z</time></trkpt><trkpt lat="42.1093132" lon="11.9049555"><ele>232.0</ele><time>2026-04-18T11:46:01.002Z</time></trkpt><trkpt lat="42.1093873" lon="11.9050152"><ele>232.0</ele><time>2026-04-18T11:46:03.008Z</time></trkpt><trkpt lat="42.1094572" lon="11.9050973"><ele>232.0</ele><time>2026-04-18T11:47:18.001Z</time></trkpt><trkpt lat="42.1095616" lon="11.9051861"><ele>232.0</ele><time>2026-04-18T11:47:20.006Z</time></trkpt><trkpt lat="42.1096438" lon="11.9052415"><ele>232.0</ele><time>2026-04-18T11:47:20.998Z</time></trkpt><trkpt lat="42.1097208" lon="11.9052721"><ele>234.16666666666666</ele><time>2026-04-18T11:47:21.999Z</time></trkpt><trkpt lat="42.1097831" lon="11.9052982"><ele>236.33333333333331</ele><time>2026-04-18T11:47:23.002Z</time></trkpt><trkpt lat="42.1098771" lon="11.905368"><ele>238.5</ele><time>2026-04-18T11:47:25.004Z</time></trkpt><trkpt lat="42.1099307" lon="11.9054369"><ele>240.66666666666669</ele><time>2026-04-18T11:47:26.998Z</time></trkpt><trkpt lat="42.1099799" lon="11.9054928"><ele>242.83333333333334</ele><time>2026-04-18T11:47:29.003Z</time></trkpt><trkpt lat="42.1100442" lon="11.9055593"><ele>245.0</ele><time>2026-04-18T11:47:30.992Z</time></trkpt><trkpt lat="42.1101319" lon="11.9056256"><ele>245.0</ele><time>2026-04-18T11:47:32.981Z</time></trkpt><trkpt lat="42.1102553" lon="11.9056108"><ele>245.0</ele><time>2026-04-18T11:47:34.985Z</time></trkpt><trkpt lat="42.1103675" lon="11.9055351"><ele>245.0</ele><time>2026-04-18T11:47:37.001Z</time></trkpt><trkpt lat="42.1104615" lon="11.9054226"><ele>245.0</ele><time>2026-04-18T11:47:38.989Z</time></trkpt><trkpt lat="42.1105099" lon="11.9053618"><ele>245.0</ele><time>2026-04-18T11:47:39.998Z</time></trkpt><trkpt lat="42.1105612" lon="11.9052974"><ele>245.00000000000003</ele><time>2026-04-18T11:47:41.008Z</time></trkpt><trkpt lat="42.1106162" lon="11.9052162"><ele>245.0</ele><time>2026-04-18T11:47:42.008Z</time></trkpt><trkpt lat="42.1106759" lon="11.9051335"><ele>245.0</ele><time>2026-04-18T11:47:43.009Z</time></trkpt><trkpt lat="42.11074" lon="11.9050601"><ele>245.0</ele><time>2026-04-18T11:47:44.001Z</time></trkpt><trkpt lat="42.1108018" lon="11.9050055"><ele>245.00000000000003</ele><time>2026-04-18T11:47:44.994Z</time></trkpt><trkpt lat="42.1108701" lon="11.9049591"><ele>245.0</ele><time>2026-04-18T11:47:45.996Z</time></trkpt><trkpt lat="42.1109301" lon="11.9049235"><ele>245.00000000000003</ele><time>2026-04-18T11:47:46.994Z</time></trkpt><trkpt lat="42.1109965" lon="11.904953"><ele>245.0</ele><time>2026-04-18T11:47:47.997Z</time></trkpt><trkpt lat="42.1110364" lon="11.9050335"><ele>245.0</ele><time>2026-04-18T11:47:48.995Z</time></trkpt><trkpt lat="42.1110655" lon="11.9051536"><ele>245.0</ele><time>2026-04-18T11:47:49.99Z</time></trkpt><trkpt lat="42.1110836" lon="11.9052837"><ele>245.00000000000003</ele><time>2026-04-18T11:47:50.992Z</time></trkpt><trkpt lat="42.1110979" lon="11.9054168"><ele>245.0</ele><time>2026-04-18T11:47:51.998Z</time></trkpt><trkpt lat="42.1111124" lon="11.9055379"><ele>246.50000000000003</ele><time>2026-04-18T11:47:52.995Z</time></trkpt><trkpt lat="42.1111182" lon="11.9056613"><ele>248.0</ele><time>2026-04-18T11:47:54.001Z</time></trkpt><trkpt lat="42.111124" lon="11.9057714"><ele>249.5</ele><time>2026-04-18T11:47:54.986Z</time></trkpt><trkpt lat="42.1111196" lon="11.9058794"><ele>251.0</ele><time>2026-04-18T11:47:56.001Z</time></trkpt><trkpt lat="42.111108" lon="11.9059754"><ele>252.50000000000003</ele><time>2026-04-18T11:47:56.997Z</time></trkpt><trkpt lat="42.1111021" lon="11.9060739"><ele>254.0</ele><time>2026-04-18T11:47:58.002Z</time></trkpt><trkpt lat="42.1110946" lon="11.9061736"><ele>255.50000000000003</ele><time>2026-04-18T11:47:59.006Z</time></trkpt><trkpt lat="42.1110941" lon="11.9062715"><ele>257.0</ele><time>2026-04-18T11:48:00.006Z</time></trkpt><trkpt lat="42.1110999" lon="11.9063688"><ele>258.5</ele><time>2026-04-18T11:48:00.998Z</time></trkpt><trkpt lat="42.1111028" lon="11.9064544"><ele>260.0</ele><time>2026-04-18T11:48:02.01Z</time></trkpt><trkpt lat="42.1110933" lon="11.9065824"><ele>261.5</ele><time>2026-04-18T11:48:04.002Z</time></trkpt><trkpt lat="42.1110738" lon="11.9067263"><ele>263.0</ele><time>2026-04-18T11:48:06.005Z</time></trkpt><trkpt lat="42.1110797" lon="11.9068404"><ele>265.33333333333337</ele><time>2026-04-18T11:48:08.003Z</time></trkpt><trkpt lat="42.1110701" lon="11.9069451"><ele>267.6666666666667</ele><time>2026-04-18T11:48:10.008Z</time></trkpt><trkpt lat="42.1110076" lon="11.9070142"><ele>270.0</ele><time>2026-04-18T11:48:13.999Z</time></trkpt><trkpt lat="42.1109528" lon="11.9071124"><ele>272.3333333333333</ele><time>2026-04-18T11:48:17.016Z</time></trkpt><trkpt lat="42.1109132" lon="11.9071843"><ele>274.66666666666663</ele><time>2026-04-18T11:50:47.995Z</time></trkpt><trkpt lat="42.1108912" lon="11.907328"><ele>277.0</ele><time>2026-04-18T11:50:49.992Z</time></trkpt><trkpt lat="42.1108717" lon="11.9074377"><ele>277.0</ele><time>2026-04-18T11:50:50.983Z</time></trkpt><trkpt lat="42.1108519" lon="11.9075387"><ele>277.0</ele><time>2026-04-18T11:50:51.98Z</time></trkpt><trkpt lat="42.1108393" lon="11.9076293"><ele>277.0</ele><time>2026-04-18T11:50:52.982Z</time></trkpt><trkpt lat="42.1108145" lon="11.9077082"><ele>277.0</ele><time>2026-04-18T11:50:53.988Z</time></trkpt><trkpt lat="42.1107618" lon="11.907845"><ele>277.0</ele><time>2026-04-18T11:50:55.986Z</time></trkpt><trkpt lat="42.1107291" lon="11.9079521"><ele>277.0</ele><time>2026-04-18T11:50:57.988Z</time></trkpt><trkpt lat="42.1106887" lon="11.9080201"><ele>280.0</ele><time>2026-04-18T11:50:58.981Z</time></trkpt><trkpt lat="42.1106383" lon="11.9081701"><ele>283.0</ele><time>2026-04-18T11:51:00.982Z</time></trkpt><trkpt lat="42.1106163" lon="11.9083042"><ele>286.0</ele><time>2026-04-18T11:51:02.982Z</time></trkpt><trkpt lat="42.1105627" lon="11.9084248"><ele>289.0</ele><time>2026-04-18T11:51:04.979Z</time></trkpt><trkpt lat="42.1104684" lon="11.9085163"><ele>292.0</ele><time>2026-04-18T11:51:06.985Z</time></trkpt><trkpt lat="42.1103948" lon="11.9085534"><ele>294.3333333333333</ele><time>2026-04-18T11:51:08.994Z</time></trkpt><trkpt lat="42.1103053" lon="11.9085571"><ele>296.66666666666663</ele><time>2026-04-18T11:51:10.988Z</time></trkpt><trkpt lat="42.1102314" lon="11.9085626"><ele>299.0</ele><time>2026-04-18T11:51:12.995Z</time></trkpt><trkpt lat="42.1101652" lon="11.908645"><ele>301.3333333333333</ele><time>2026-04-18T11:51:14.987Z</time></trkpt><trkpt lat="42.1101303" lon="11.9087243"><ele>303.6666666666667</ele><time>2026-04-18T11:51:15.986Z</time></trkpt><trkpt lat="42.1100972" lon="11.9088147"><ele>306.0</ele><time>2026-04-18T11:51:16.991Z</time></trkpt><trkpt lat="42.110067" lon="11.9088918"><ele>306.0</ele><time>2026-04-18T11:51:17.989Z</time></trkpt><trkpt lat="42.1099994" lon="11.9090083"><ele>306.0</ele><time>2026-04-18T11:51:19.989Z</time></trkpt><trkpt lat="42.1098939" lon="11.9090278"><ele>306.0</ele><time>2026-04-18T11:51:21.984Z</time></trkpt><trkpt lat="42.1098269" lon="11.9090313"><ele>306.0</ele><time>2026-04-18T11:51:23.006Z</time></trkpt><trkpt lat="42.1097584" lon="11.9090182"><ele>306.0</ele><time>2026-04-18T11:51:23.995Z</time></trkpt><trkpt lat="42.1096936" lon="11.9090117"><ele>306.0</ele><time>2026-04-18T11:51:24.997Z</time></trkpt><trkpt lat="42.1096064" lon="11.9090261"><ele>305.8333333333333</ele><time>2026-04-18T11:51:27Z</time></trkpt><trkpt lat="42.1095593" lon="11.909095"><ele>305.6666666666667</ele><time>2026-04-18T11:51:28.998Z</time></trkpt><trkpt lat="42.109565" lon="11.9091981"><ele>305.5</ele><time>2026-04-18T11:51:31.006Z</time></trkpt><trkpt lat="42.1095889" lon="11.9092995"><ele>305.33333333333337</ele><time>2026-04-18T11:51:32.993Z</time></trkpt><trkpt lat="42.1096457" lon="11.909405"><ele>305.1666666666667</ele><time>2026-04-18T11:51:35.002Z</time></trkpt><trkpt lat="42.1096947" lon="11.9095108"><ele>305.0</ele><time>2026-04-18T11:51:36.991Z</time></trkpt><trkpt lat="42.1097445" lon="11.909596"><ele>305.83333333333337</ele><time>2026-04-18T11:51:38.99Z</time></trkpt><trkpt lat="42.1098119" lon="11.9097028"><ele>306.6666666666667</ele><time>2026-04-18T11:51:40.99Z</time></trkpt><trkpt lat="42.1098537" lon="11.9097794"><ele>307.5</ele><time>2026-04-18T11:51:41.997Z</time></trkpt><trkpt lat="42.1098901" lon="11.9098667"><ele>308.3333333333333</ele><time>2026-04-18T11:51:42.99Z</time></trkpt><trkpt lat="42.1099341" lon="11.9099365"><ele>309.16666666666663</ele><time>2026-04-18T11:51:43.99Z</time></trkpt><trkpt lat="42.1099993" lon="11.9100708"><ele>310.0</ele><time>2026-04-18T11:51:45.985Z</time></trkpt><trkpt lat="42.1100337" lon="11.9101485"><ele>313.2</ele><time>2026-04-18T11:51:46.994Z</time></trkpt><trkpt lat="42.110083" lon="11.9102672"><ele>316.4</ele><time>2026-04-18T11:51:48.982Z</time></trkpt><trkpt lat="42.1101319" lon="11.9103992"><ele>319.6</ele><time>2026-04-18T11:51:50.978Z</time></trkpt><trkpt lat="42.1101828" lon="11.9104999"><ele>322.8</ele><time>2026-04-18T11:51:52.989Z</time></trkpt><trkpt lat="42.1102619" lon="11.9105847"><ele>326.0</ele><time>2026-04-18T11:51:54.977Z</time></trkpt><trkpt lat="42.1103314" lon="11.9106812"><ele>326.0</ele><time>2026-04-18T11:51:56.992Z</time></trkpt><trkpt lat="42.1103778" lon="11.9107963"><ele>326.0</ele><time>2026-04-18T11:51:58.98Z</time></trkpt><trkpt lat="42.1104283" lon="11.9109653"><ele>326.0</ele><time>2026-04-18T11:52:00.972Z</time></trkpt><trkpt lat="42.1104811" lon="11.9110961"><ele>326.0</ele><time>2026-04-18T11:52:02.968Z</time></trkpt><trkpt lat="42.1105397" lon="11.9111532"><ele>326.0</ele><time>2026-04-18T11:52:04.978Z</time></trkpt><trkpt lat="42.1105916" lon="11.911234"><ele>326.6</ele><time>2026-04-18T11:52:06.985Z</time></trkpt><trkpt lat="42.1106826" lon="11.9112771"><ele>327.20000000000005</ele><time>2026-04-18T11:52:08.99Z</time></trkpt><trkpt lat="42.1107911" lon="11.9112796"><ele>327.79999999999995</ele><time>2026-04-18T11:52:10.98Z</time></trkpt><trkpt lat="42.1108566" lon="11.9112652"><ele>328.4</ele><time>2026-04-18T11:52:11.985Z</time></trkpt><trkpt lat="42.1109293" lon="11.9112471"><ele>329.0</ele><time>2026-04-18T11:52:12.985Z</time></trkpt><trkpt lat="42.1110391" lon="11.9111739"><ele>331.6666666666667</ele><time>2026-04-18T11:52:14.986Z</time></trkpt><trkpt lat="42.1110961" lon="11.9111191"><ele>334.33333333333337</ele><time>2026-04-18T11:52:15.98Z</time></trkpt><trkpt lat="42.1111529" lon="11.9110819"><ele>337.0</ele><time>2026-04-18T11:52:16.976Z</time></trkpt><trkpt lat="42.111235" lon="11.9110394"><ele>339.6666666666667</ele><time>2026-04-18T11:52:18.979Z</time></trkpt><trkpt lat="42.1112926" lon="11.9109982"><ele>342.3333333333333</ele><time>2026-04-18T11:52:20.968Z</time></trkpt><trkpt lat="42.1113899" lon="11.9109687"><ele>345.0</ele><time>2026-04-18T11:52:22.986Z</time></trkpt><trkpt lat="42.1115094" lon="11.9109142"><ele>344.42857142857144</ele><time>2026-04-18T11:52:24.968Z</time></trkpt><trkpt lat="42.1115732" lon="11.9108682"><ele>343.85714285714283</ele><time>2026-04-18T11:52:25.966Z</time></trkpt><trkpt lat="42.1116405" lon="11.9108192"><ele>343.2857142857143</ele><time>2026-04-18T11:52:26.976Z</time></trkpt><trkpt lat="42.1116943" lon="11.910775"><ele>342.7142857142857</ele><time>2026-04-18T11:52:27.996Z</time></trkpt><trkpt lat="42.1117841" lon="11.9107059"><ele>342.14285714285717</ele><time>2026-04-18T11:52:29.978Z</time></trkpt><trkpt lat="42.1118475" lon="11.9106892"><ele>341.57142857142856</ele><time>2026-04-18T11:52:30.978Z</time></trkpt><trkpt lat="42.1119108" lon="11.9106931"><ele>341.0</ele><time>2026-04-18T11:52:31.972Z</time></trkpt><trkpt lat="42.1120305" lon="11.9107358"><ele>341.0</ele><time>2026-04-18T11:52:33.975Z</time></trkpt><trkpt lat="42.1121066" lon="11.9107562"><ele>341.0</ele><time>2026-04-18T11:52:34.978Z</time></trkpt><trkpt lat="42.1121792" lon="11.9107823"><ele>341.0</ele><time>2026-04-18T11:52:35.973Z</time></trkpt><trkpt lat="42.1122422" lon="11.910804"><ele>341.0</ele><time>2026-04-18T11:52:36.969Z</time></trkpt><trkpt lat="42.1123074" lon="11.9108187"><ele>341.0</ele><time>2026-04-18T11:52:37.976Z</time></trkpt><trkpt lat="42.1123706" lon="11.9108321"><ele>341.0</ele><time>2026-04-18T11:52:38.982Z</time></trkpt><trkpt lat="42.1124652" lon="11.9108239"><ele>341.0</ele><time>2026-04-18T11:52:40.982Z</time></trkpt><trkpt lat="42.112535" lon="11.910885"><ele>343.8</ele><time>2026-04-18T11:52:42.976Z</time></trkpt><trkpt lat="42.1126219" lon="11.9109676"><ele>346.6</ele><time>2026-04-18T11:52:44.994Z</time></trkpt><trkpt lat="42.1126736" lon="11.9110812"><ele>349.4</ele><time>2026-04-18T11:52:46.981Z</time></trkpt><trkpt lat="42.1126919" lon="11.9112298"><ele>352.2</ele><time>2026-04-18T11:52:48.981Z</time></trkpt><trkpt lat="42.1127149" lon="11.9113098"><ele>355.0</ele><time>2026-04-18T11:52:49.997Z</time></trkpt><trkpt lat="42.1127302" lon="11.9114464"><ele>355.0</ele><time>2026-04-18T11:52:51.986Z</time></trkpt><trkpt lat="42.1127446" lon="11.9115498"><ele>355.0</ele><time>2026-04-18T11:52:55.003Z</time></trkpt><trkpt lat="42.1128384" lon="11.9116478"><ele>355.0</ele><time>2026-04-18T11:52:56.982Z</time></trkpt><trkpt lat="42.1129111" lon="11.9116914"><ele>355.0</ele><time>2026-04-18T11:52:57.98Z</time></trkpt><trkpt lat="42.1129857" lon="11.9117251"><ele>355.0</ele><time>2026-04-18T11:52:58.986Z</time></trkpt><trkpt lat="42.1130639" lon="11.9117481"><ele>355.0</ele><time>2026-04-18T11:53:00.001Z</time></trkpt><trkpt lat="42.1131321" lon="11.9117741"><ele>354.8</ele><time>2026-04-18T11:53:00.989Z</time></trkpt><trkpt lat="42.1132328" lon="11.9117499"><ele>354.6</ele><time>2026-04-18T11:53:02.982Z</time></trkpt><trkpt lat="42.1133428" lon="11.911754"><ele>354.4</ele><time>2026-04-18T11:53:04.994Z</time></trkpt><trkpt lat="42.11344" lon="11.9117697"><ele>354.2</ele><time>2026-04-18T11:53:06.98Z</time></trkpt><trkpt lat="42.1135382" lon="11.9117438"><ele>354.0</ele><time>2026-04-18T11:53:08.988Z</time></trkpt><trkpt lat="42.1136278" lon="11.9117131"><ele>353.0</ele><time>2026-04-18T11:53:10.985Z</time></trkpt><trkpt lat="42.1137292" lon="11.9116637"><ele>352.0</ele><time>2026-04-18T11:53:12.978Z</time></trkpt><trkpt lat="42.1137921" lon="11.9116015"><ele>351.0</ele><time>2026-04-18T11:53:17.986Z</time></trkpt><trkpt lat="42.1139982" lon="11.9115337"><ele>350.0</ele><time>2026-04-18T11:53:41.964Z</time></trkpt><trkpt lat="42.1140876" lon="11.9115084"><ele>350.0</ele><time>2026-04-18T11:53:42.962Z</time></trkpt><trkpt lat="42.1141844" lon="11.9114992"><ele>350.0</ele><time>2026-04-18T11:53:43.953Z</time></trkpt><trkpt lat="42.1143056" lon="11.9114689"><ele>350.0</ele><time>2026-04-18T11:53:44.957Z</time></trkpt><trkpt lat="42.1143991" lon="11.9114638"><ele>350.0</ele><time>2026-04-18T11:53:45.968Z</time></trkpt><trkpt lat="42.114494" lon="11.9115131"><ele>350.0</ele><time>2026-04-18T11:53:47.986Z</time></trkpt><trkpt lat="42.1145564" lon="11.9115414"><ele>350.0</ele><time>2026-04-18T11:53:48.979Z</time></trkpt><trkpt lat="42.1146029" lon="11.9116019"><ele>350.0</ele><time>2026-04-18T11:53:49.985Z</time></trkpt><trkpt lat="42.1146449" lon="11.9116722"><ele>350.0</ele><time>2026-04-18T11:53:50.984Z</time></trkpt><trkpt lat="42.114688" lon="11.9117707"><ele>350.0</ele><time>2026-04-18T11:53:51.981Z</time></trkpt><trkpt lat="42.1147138" lon="11.9118609"><ele>350.0</ele><time>2026-04-18T11:53:52.97Z</time></trkpt><trkpt lat="42.1146955" lon="11.9120215"><ele>350.0</ele><time>2026-04-18T11:53:54.971Z</time></trkpt><trkpt lat="42.1146629" lon="11.9121923"><ele>351.5</ele><time>2026-04-18T11:53:56.975Z</time></trkpt><trkpt lat="42.1146654" lon="11.9122823"><ele>353.0</ele><time>2026-04-18T11:53:57.977Z</time></trkpt><trkpt lat="42.1146738" lon="11.9123705"><ele>354.5</ele><time>2026-04-18T11:53:58.971Z</time></trkpt><trkpt lat="42.1146974" lon="11.9124553"><ele>356.0</ele><time>2026-04-18T11:54:00.999Z</time></trkpt><trkpt lat="42.1147216" lon="11.9125601"><ele>357.5</ele><time>2026-04-18T11:54:03.975Z</time></trkpt><trkpt lat="42.1147574" lon="11.9126859"><ele>359.0</ele><time>2026-04-18T11:54:05.988Z</time></trkpt><trkpt lat="42.1148005" lon="11.9128165"><ele>360.4</ele><time>2026-04-18T11:54:07.978Z</time></trkpt><trkpt lat="42.1148221" lon="11.9129193"><ele>361.79999999999995</ele><time>2026-04-18T11:54:09.978Z</time></trkpt><trkpt lat="42.1148176" lon="11.9130591"><ele>363.20000000000005</ele><time>2026-04-18T11:54:12.983Z</time></trkpt><trkpt lat="42.1147879" lon="11.9132023"><ele>364.6</ele><time>2026-04-18T11:54:14.983Z</time></trkpt><trkpt lat="42.1147582" lon="11.9133404"><ele>366.0</ele><time>2026-04-18T11:54:16.982Z</time></trkpt><trkpt lat="42.1147458" lon="11.9134573"><ele>368.6</ele><time>2026-04-18T11:54:18.979Z</time></trkpt><trkpt lat="42.1147425" lon="11.9135878"><ele>371.20000000000005</ele><time>2026-04-18T11:54:20.982Z</time></trkpt><trkpt lat="42.1147386" lon="11.9137314"><ele>373.79999999999995</ele><time>2026-04-18T11:54:22.982Z</time></trkpt><trkpt lat="42.1147239" lon="11.9138246"><ele>376.4</ele><time>2026-04-18T11:54:23.988Z</time></trkpt><trkpt lat="42.1147149" lon="11.9139127"><ele>379.0</ele><time>2026-04-18T11:54:24.985Z</time></trkpt><trkpt lat="42.1146951" lon="11.9140583"><ele>379.0</ele><time>2026-04-18T11:54:26.992Z</time></trkpt><trkpt lat="42.1146683" lon="11.9142228"><ele>379.0</ele><time>2026-04-18T11:54:28.999Z</time></trkpt><trkpt lat="42.114629" lon="11.9143829"><ele>379.0</ele><time>2026-04-18T11:54:30.989Z</time></trkpt><trkpt lat="42.1145907" lon="11.9145329"><ele>379.0</ele><time>2026-04-18T11:54:32.993Z</time></trkpt><trkpt lat="42.1145774" lon="11.9146497"><ele>381.8333333333333</ele><time>2026-04-18T11:54:34.995Z</time></trkpt><trkpt lat="42.1145588" lon="11.9147661"><ele>384.66666666666663</ele><time>2026-04-18T11:54:36.998Z</time></trkpt><trkpt lat="42.1145304" lon="11.9148881"><ele>387.5</ele><time>2026-04-18T11:54:38.98Z</time></trkpt><trkpt lat="42.1145132" lon="11.9149945"><ele>390.3333333333333</ele><time>2026-04-18T11:54:40.998Z</time></trkpt><trkpt lat="42.1144899" lon="11.9150889"><ele>393.1666666666667</ele><time>2026-04-18T11:54:42.998Z</time></trkpt><trkpt lat="42.1144898" lon="11.9152208"><ele>396.0</ele><time>2026-04-18T11:54:44.976Z</time></trkpt><trkpt lat="42.1145303" lon="11.9153523"><ele>396.0</ele><time>2026-04-18T11:54:46.984Z</time></trkpt><trkpt lat="42.1145833" lon="11.9154785"><ele>396.0</ele><time>2026-04-18T11:54:48.99Z</time></trkpt><trkpt lat="42.1146183" lon="11.9155537"><ele>396.0</ele><time>2026-04-18T11:54:50.988Z</time></trkpt><trkpt lat="42.1146772" lon="11.9156278"><ele>396.0</ele><time>2026-04-18T11:54:53.97Z</time></trkpt><trkpt lat="42.1147139" lon="11.9157161"><ele>396.0</ele><time>2026-04-18T11:54:54.958Z</time></trkpt><trkpt lat="42.1147563" lon="11.9158536"><ele>396.0</ele><time>2026-04-18T11:54:55.969Z</time></trkpt><trkpt lat="42.1147951" lon="11.915982"><ele>396.0</ele><time>2026-04-18T11:54:56.97Z</time></trkpt><trkpt lat="42.1148267" lon="11.9160713"><ele>396.0</ele><time>2026-04-18T11:54:57.972Z</time></trkpt><trkpt lat="42.1148802" lon="11.9162279"><ele>396.0</ele><time>2026-04-18T11:54:59.97Z</time></trkpt><trkpt lat="42.1149193" lon="11.9163097"><ele>396.0</ele><time>2026-04-18T11:55:00.985Z</time></trkpt><trkpt lat="42.1149557" lon="11.9163875"><ele>396.0</ele><time>2026-04-18T11:55:01.981Z</time></trkpt><trkpt lat="42.1149987" lon="11.9164817"><ele>396.0</ele><time>2026-04-18T11:55:02.981Z</time></trkpt><trkpt lat="42.1150339" lon="11.9165688"><ele>397.1666666666667</ele><time>2026-04-18T11:55:03.99Z</time></trkpt><trkpt lat="42.1150668" lon="11.9166648"><ele>398.33333333333337</ele><time>2026-04-18T11:55:04.979Z</time></trkpt><trkpt lat="42.1150909" lon="11.9167709"><ele>399.5</ele><time>2026-04-18T11:55:05.974Z</time></trkpt><trkpt lat="42.1151275" lon="11.9168711"><ele>400.6666666666667</ele><time>2026-04-18T11:55:06.976Z</time></trkpt><trkpt lat="42.1151741" lon="11.9169683"><ele>401.83333333333337</ele><time>2026-04-18T11:55:07.983Z</time></trkpt><trkpt lat="42.115217" lon="11.9170524"><ele>403.0</ele><time>2026-04-18T11:55:08.994Z</time></trkpt><trkpt lat="42.1152857" lon="11.9171324"><ele>403.2857142857143</ele><time>2026-04-18T11:55:09.978Z</time></trkpt><trkpt lat="42.115342" lon="11.9172065"><ele>403.57142857142856</ele><time>2026-04-18T11:55:10.979Z</time></trkpt><trkpt lat="42.1154031" lon="11.9172798"><ele>403.85714285714283</ele><time>2026-04-18T11:55:11.978Z</time></trkpt><trkpt lat="42.1154587" lon="11.9173444"><ele>404.1428571428571</ele><time>2026-04-18T11:55:12.979Z</time></trkpt><trkpt lat="42.1155096" lon="11.9174102"><ele>404.42857142857144</ele><time>2026-04-18T11:55:13.988Z</time></trkpt><trkpt lat="42.1155575" lon="11.9174794"><ele>404.71428571428567</ele><time>2026-04-18T11:55:14.986Z</time></trkpt><trkpt lat="42.1156032" lon="11.9175576"><ele>405.0</ele><time>2026-04-18T11:55:15.976Z</time></trkpt><trkpt lat="42.1156454" lon="11.9176357"><ele>405.6666666666667</ele><time>2026-04-18T11:55:16.977Z</time></trkpt><trkpt lat="42.115688" lon="11.9177059"><ele>406.33333333333337</ele><time>2026-04-18T11:55:17.98Z</time></trkpt><trkpt lat="42.1157361" lon="11.9177785"><ele>407.0</ele><time>2026-04-18T11:55:18.989Z</time></trkpt><trkpt lat="42.1157946" lon="11.9178553"><ele>407.6666666666667</ele><time>2026-04-18T11:55:19.985Z</time></trkpt><trkpt lat="42.1158584" lon="11.9179375"><ele>408.33333333333337</ele><time>2026-04-18T11:55:20.984Z</time></trkpt><trkpt lat="42.1159121" lon="11.9180058"><ele>409.0</ele><time>2026-04-18T11:55:21.984Z</time></trkpt><trkpt lat="42.1159632" lon="11.9180871"><ele>411.00000000000006</ele><time>2026-04-18T11:55:22.986Z</time></trkpt><trkpt lat="42.1160172" lon="11.9181773"><ele>413.0</ele><time>2026-04-18T11:55:24.002Z</time></trkpt><trkpt lat="42.1160654" lon="11.9182573"><ele>415.0</ele><time>2026-04-18T11:55:24.985Z</time></trkpt><trkpt lat="42.1161109" lon="11.9183284"><ele>417.0</ele><time>2026-04-18T11:55:25.98Z</time></trkpt><trkpt lat="42.1161953" lon="11.918445"><ele>419.00000000000006</ele><time>2026-04-18T11:55:27.989Z</time></trkpt><trkpt lat="42.1162423" lon="11.9185179"><ele>421.0</ele><time>2026-04-18T11:55:28.997Z</time></trkpt><trkpt lat="42.1163036" lon="11.9186019"><ele>421.42857142857144</ele><time>2026-04-18T11:55:29.99Z</time></trkpt><trkpt lat="42.1163646" lon="11.9186779"><ele>421.8571428571429</ele><time>2026-04-18T11:55:30.984Z</time></trkpt><trkpt lat="42.1164218" lon="11.9187297"><ele>422.28571428571433</ele><time>2026-04-18T11:55:31.98Z</time></trkpt><trkpt lat="42.1164685" lon="11.9187887"><ele>422.7142857142857</ele><time>2026-04-18T11:55:32.979Z</time></trkpt><trkpt lat="42.1165292" lon="11.918862"><ele>423.1428571428571</ele><time>2026-04-18T11:55:33.996Z</time></trkpt><trkpt lat="42.1165809" lon="11.9189405"><ele>423.5714285714286</ele><time>2026-04-18T11:55:34.984Z</time></trkpt><trkpt lat="42.1166253" lon="11.9190203"><ele>424.0</ele><time>2026-04-18T11:55:35.982Z</time></trkpt><trkpt lat="42.1166611" lon="11.9191023"><ele>424.79999999999995</ele><time>2026-04-18T11:55:36.987Z</time></trkpt><trkpt lat="42.116694" lon="11.9191923"><ele>425.59999999999997</ele><time>2026-04-18T11:55:37.977Z</time></trkpt><trkpt lat="42.1166992" lon="11.9193093"><ele>426.4</ele><time>2026-04-18T11:55:38.979Z</time></trkpt><trkpt lat="42.1167003" lon="11.9194341"><ele>427.2</ele><time>2026-04-18T11:55:39.974Z</time></trkpt><trkpt lat="42.116693" lon="11.9195835"><ele>428.0</ele><time>2026-04-18T11:55:40.975Z</time></trkpt><trkpt lat="42.1166689" lon="11.9197351"><ele>428.75</ele><time>2026-04-18T11:55:41.979Z</time></trkpt><trkpt lat="42.1166335" lon="11.9199018"><ele>429.5</ele><time>2026-04-18T11:55:42.988Z</time></trkpt><trkpt lat="42.1165881" lon="11.9200809"><ele>430.25</ele><time>2026-04-18T11:55:43.99Z</time></trkpt><trkpt lat="42.1165676" lon="11.9202529"><ele>431.0</ele><time>2026-04-18T11:55:44.98Z</time></trkpt><trkpt lat="42.1165529" lon="11.9204148"><ele>431.20000000000005</ele><time>2026-04-18T11:55:45.978Z</time></trkpt><trkpt lat="42.1165453" lon="11.9205212"><ele>431.40000000000003</ele><time>2026-04-18T11:55:46.984Z</time></trkpt><trkpt lat="42.1165272" lon="11.9206425"><ele>431.6</ele><time>2026-04-18T11:55:47.988Z</time></trkpt><trkpt lat="42.1165223" lon="11.9207602"><ele>431.8</ele><time>2026-04-18T11:55:48.997Z</time></trkpt><trkpt lat="42.1165117" lon="11.9209"><ele>432.0</ele><time>2026-04-18T11:55:49.993Z</time></trkpt><trkpt lat="42.1165008" lon="11.9210411"><ele>432.6</ele><time>2026-04-18T11:55:50.982Z</time></trkpt><trkpt lat="42.1165212" lon="11.9212266"><ele>433.20000000000005</ele><time>2026-04-18T11:55:52.986Z</time></trkpt><trkpt lat="42.1165339" lon="11.9213355"><ele>433.8</ele><time>2026-04-18T11:55:53.98Z</time></trkpt><trkpt lat="42.1165596" lon="11.9214468"><ele>434.4</ele><time>2026-04-18T11:55:54.995Z</time></trkpt><trkpt lat="42.1166" lon="11.9215505"><ele>435.0</ele><time>2026-04-18T11:55:55.983Z</time></trkpt><trkpt lat="42.1166611" lon="11.9216736"><ele>434.8333333333333</ele><time>2026-04-18T11:55:56.979Z</time></trkpt><trkpt lat="42.1167325" lon="11.9217977"><ele>434.66666666666663</ele><time>2026-04-18T11:55:57.969Z</time></trkpt><trkpt lat="42.1167925" lon="11.9219095"><ele>434.5</ele><time>2026-04-18T11:55:58.979Z</time></trkpt><trkpt lat="42.116838" lon="11.9219983"><ele>434.3333333333333</ele><time>2026-04-18T11:55:59.989Z</time></trkpt><trkpt lat="42.1168803" lon="11.9220769"><ele>434.16666666666663</ele><time>2026-04-18T11:56:00.981Z</time></trkpt><trkpt lat="42.1169207" lon="11.9221482"><ele>434.0</ele><time>2026-04-18T11:56:01.97Z</time></trkpt><trkpt lat="42.1169364" lon="11.9222359"><ele>434.0</ele><time>2026-04-18T11:56:02.973Z</time></trkpt><trkpt lat="42.1169308" lon="11.9223233"><ele>434.0</ele><time>2026-04-18T11:56:03.965Z</time></trkpt><trkpt lat="42.1169144" lon="11.9224191"><ele>434.0</ele><time>2026-04-18T11:56:04.986Z</time></trkpt><trkpt lat="42.1168827" lon="11.922508"><ele>434.0</ele><time>2026-04-18T11:56:05.976Z</time></trkpt><trkpt lat="42.1168517" lon="11.9225908"><ele>434.0</ele><time>2026-04-18T11:56:06.972Z</time></trkpt><trkpt lat="42.1168182" lon="11.9226826"><ele>434.0</ele><time>2026-04-18T11:56:07.967Z</time></trkpt><trkpt lat="42.1168105" lon="11.9227682"><ele>434.0</ele><time>2026-04-18T11:56:08.965Z</time></trkpt><trkpt lat="42.1167903" lon="11.9228568"><ele>432.2857142857143</ele><time>2026-04-18T11:56:09.967Z</time></trkpt><trkpt lat="42.1167628" lon="11.922938"><ele>430.57142857142856</ele><time>2026-04-18T11:56:10.957Z</time></trkpt><trkpt lat="42.1167247" lon="11.9230064"><ele>428.8571428571429</ele><time>2026-04-18T11:56:11.962Z</time></trkpt><trkpt lat="42.1166768" lon="11.9230713"><ele>427.1428571428571</ele><time>2026-04-18T11:56:12.96Z</time></trkpt><trkpt lat="42.1166228" lon="11.9231389"><ele>425.42857142857144</ele><time>2026-04-18T11:56:13.966Z</time></trkpt><trkpt lat="42.1165697" lon="11.9232087"><ele>423.7142857142857</ele><time>2026-04-18T11:56:14.969Z</time></trkpt><trkpt lat="42.1165192" lon="11.9232931"><ele>422.0</ele><time>2026-04-18T11:56:15.966Z</time></trkpt><trkpt lat="42.1164644" lon="11.9233906"><ele>421.0</ele><time>2026-04-18T11:56:16.961Z</time></trkpt><trkpt lat="42.116422" lon="11.9234992"><ele>420.0</ele><time>2026-04-18T11:56:17.966Z</time></trkpt><trkpt lat="42.1163792" lon="11.9236043"><ele>419.0</ele><time>2026-04-18T11:56:18.964Z</time></trkpt><trkpt lat="42.1163452" lon="11.9237231"><ele>418.0</ele><time>2026-04-18T11:56:19.976Z</time></trkpt><trkpt lat="42.1163213" lon="11.9238479"><ele>417.0</ele><time>2026-04-18T11:56:20.967Z</time></trkpt><trkpt lat="42.1163143" lon="11.9239679"><ele>417.0</ele><time>2026-04-18T11:56:21.971Z</time></trkpt><trkpt lat="42.1163202" lon="11.9240819"><ele>417.0</ele><time>2026-04-18T11:56:22.981Z</time></trkpt><trkpt lat="42.1163483" lon="11.9241742"><ele>417.0</ele><time>2026-04-18T11:56:23.979Z</time></trkpt><trkpt lat="42.1163825" lon="11.9242767"><ele>417.0</ele><time>2026-04-18T11:56:24.98Z</time></trkpt><trkpt lat="42.1164227" lon="11.9243664"><ele>417.0</ele><time>2026-04-18T11:56:25.972Z</time></trkpt><trkpt lat="42.1164588" lon="11.9244604"><ele>417.0</ele><time>2026-04-18T11:56:26.98Z</time></trkpt><trkpt lat="42.1164961" lon="11.9245436"><ele>417.5</ele><time>2026-04-18T11:56:27.976Z</time></trkpt><trkpt lat="42.1165422" lon="11.924619"><ele>418.0</ele><time>2026-04-18T11:56:28.981Z</time></trkpt><trkpt lat="42.1166009" lon="11.924685"><ele>418.5</ele><time>2026-04-18T11:56:29.976Z</time></trkpt><trkpt lat="42.1166585" lon="11.9247442"><ele>419.0</ele><time>2026-04-18T11:56:30.973Z</time></trkpt><trkpt lat="42.1167219" lon="11.9248044"><ele>419.5</ele><time>2026-04-18T11:56:31.976Z</time></trkpt><trkpt lat="42.1167902" lon="11.9248766"><ele>420.0</ele><time>2026-04-18T11:56:32.967Z</time></trkpt><trkpt lat="42.1168452" lon="11.9249725"><ele>422.0</ele><time>2026-04-18T11:56:33.961Z</time></trkpt><trkpt lat="42.1168998" lon="11.9250665"><ele>424.0</ele><time>2026-04-18T11:56:34.962Z</time></trkpt><trkpt lat="42.1169693" lon="11.9251484"><ele>426.0</ele><time>2026-04-18T11:56:35.962Z</time></trkpt><trkpt lat="42.1170345" lon="11.925204"><ele>428.0</ele><time>2026-04-18T11:56:36.961Z</time></trkpt><trkpt lat="42.1171045" lon="11.9252303"><ele>430.0</ele><time>2026-04-18T11:56:37.967Z</time></trkpt><trkpt lat="42.1171715" lon="11.9252299"><ele>432.0</ele><time>2026-04-18T11:56:38.96Z</time></trkpt><trkpt lat="42.1172476" lon="11.9252043"><ele>432.0</ele><time>2026-04-18T11:56:39.965Z</time></trkpt><trkpt lat="42.1173138" lon="11.9251668"><ele>432.00000000000006</ele><time>2026-04-18T11:56:40.959Z</time></trkpt><trkpt lat="42.1174099" lon="11.9251127"><ele>432.00000000000006</ele><time>2026-04-18T11:56:42.963Z</time></trkpt><trkpt lat="42.1175065" lon="11.9251498"><ele>432.0</ele><time>2026-04-18T11:56:44.965Z</time></trkpt><trkpt lat="42.1175897" lon="11.9252328"><ele>432.0</ele><time>2026-04-18T11:56:46.964Z</time></trkpt><trkpt lat="42.1176509" lon="11.9253099"><ele>432.20000000000005</ele><time>2026-04-18T11:56:48.971Z</time></trkpt><trkpt lat="42.1177173" lon="11.9254683"><ele>432.40000000000003</ele><time>2026-04-18T11:56:50.969Z</time></trkpt><trkpt lat="42.1177636" lon="11.9255851"><ele>432.59999999999997</ele><time>2026-04-18T11:56:51.96Z</time></trkpt><trkpt lat="42.1177967" lon="11.9256922"><ele>432.79999999999995</ele><time>2026-04-18T11:56:52.97Z</time></trkpt><trkpt lat="42.1178211" lon="11.9258112"><ele>433.0</ele><time>2026-04-18T11:56:53.968Z</time></trkpt><trkpt lat="42.1178168" lon="11.9259294"><ele>434.33333333333337</ele><time>2026-04-18T11:56:54.969Z</time></trkpt><trkpt lat="42.1178185" lon="11.9260241"><ele>435.6666666666667</ele><time>2026-04-18T11:56:55.964Z</time></trkpt><trkpt lat="42.1178335" lon="11.9261218"><ele>437.0</ele><time>2026-04-18T11:56:56.965Z</time></trkpt><trkpt lat="42.1178543" lon="11.9262143"><ele>438.33333333333337</ele><time>2026-04-18T11:56:57.963Z</time></trkpt><trkpt lat="42.1178882" lon="11.9263125"><ele>439.6666666666667</ele><time>2026-04-18T11:56:58.955Z</time></trkpt><trkpt lat="42.1179441" lon="11.9264234"><ele>441.0</ele><time>2026-04-18T11:56:59.963Z</time></trkpt><trkpt lat="42.1180052" lon="11.9265343"><ele>441.0</ele><time>2026-04-18T11:57:00.959Z</time></trkpt><trkpt lat="42.1180805" lon="11.9266517"><ele>441.0</ele><time>2026-04-18T11:57:01.963Z</time></trkpt><trkpt lat="42.1181765" lon="11.9267673"><ele>441.0</ele><time>2026-04-18T11:57:02.971Z</time></trkpt><trkpt lat="42.1182707" lon="11.9268671"><ele>441.0</ele><time>2026-04-18T11:57:03.965Z</time></trkpt><trkpt lat="42.1183667" lon="11.9269512"><ele>445.0</ele><time>2026-04-18T11:57:04.958Z</time></trkpt><trkpt lat="42.1184577" lon="11.9270191"><ele>445.0</ele><time>2026-04-18T11:57:05.951Z</time></trkpt><trkpt lat="42.1185379" lon="11.9270758"><ele>445.0</ele><time>2026-04-18T11:57:06.953Z</time></trkpt><trkpt lat="42.1185924" lon="11.9271184"><ele>445.0</ele><time>2026-04-18T11:57:07.956Z</time></trkpt></trkseg><trkseg><trkpt lat="42.0899303" lon="11.7929756"><ele>8.0</ele><time>2026-04-19T05:26:33.954Z</time></trkpt><trkpt lat="42.0898863" lon="11.7929149"><ele>2.0</ele><time>2026-04-19T05:26:48.933Z</time></trkpt><trkpt lat="42.0898863" lon="11.7929149"><ele>2.0</ele><time>2026-04-19T05:26:48.933Z</time></trkpt><trkpt lat="42.0898863" lon="11.7929149"><ele>2.0</ele><time>2026-04-19T05:26:48.933Z</time></trkpt><trkpt lat="42.0898863" lon="11.7929149"><ele>2.0</ele><time>2026-04-19T05:26:48.933Z</time></trkpt><trkpt lat="42.0898863" lon="11.7929149"><ele>2.0</ele><time>2026-04-19T05:26:48.933Z</time></trkpt><trkpt lat="42.0899253" lon="11.7928249"><ele>8.0</ele><time>2026-04-19T05:31:20.917Z</time></trkpt><trkpt lat="42.0899848" lon="11.7928614"><ele>8.0</ele><time>2026-04-19T05:58:19.914Z</time></trkpt><trkpt lat="42.0899201" lon="11.7928269"><ele>2.0</ele><time>2026-04-19T06:11:03.931Z</time></trkpt><trkpt lat="42.0899201" lon="11.7928269"><ele>2.0</ele><time>2026-04-19T06:11:03.931Z</time></trkpt><trkpt lat="42.0899201" lon="11.7928269"><ele>2.0</ele><time>2026-04-19T06:11:03.931Z</time></trkpt><trkpt lat="42.0899201" lon="11.7928269"><ele>2.0</ele><time>2026-04-19T06:11:03.931Z</time></trkpt><trkpt lat="42.0899201" lon="11.7928269"><ele>2.0</ele><time>2026-04-19T06:11:03.931Z</time></trkpt><trkpt lat="42.0899201" lon="11.7928269"><ele>2.0</ele><time>2026-04-19T06:11:03.931Z</time></trkpt><trkpt lat="42.0899201" lon="11.7928269"><ele>2.0</ele><time>2026-04-19T06:11:03.931Z</time></trkpt><trkpt lat="42.0899201" lon="11.7928269"><ele>2.0</ele><time>2026-04-19T06:11:03.931Z</time></trkpt><trkpt lat="42.0899201" lon="11.7928269"><ele>2.0</ele><time>2026-04-19T06:11:03.931Z</time></trkpt><trkpt lat="42.0899201" lon="11.7928269"><ele>2.0</ele><time>2026-04-19T06:11:03.931Z</time></trkpt><trkpt lat="42.0899201" lon="11.7928269"><ele>2.0</ele><time>2026-04-19T06:11:03.931Z</time></trkpt><trkpt lat="42.0899201" lon="11.7928269"><ele>2.0</ele><time>2026-04-19T06:11:03.931Z</time></trkpt><trkpt lat="42.0899201" lon="11.7928269"><ele>2.0</ele><time>2026-04-19T06:11:03.931Z</time></trkpt></trkseg></trk></gpx>